<?xml version='1.0' encoding='UTF-8'?><gpx version="1.1" creator="JPX - https://github.com/jenetics/jpx" xmlns="http://www.topografix.com/GPX/1/1"><trk><trkseg><trkpt lat="44.60955788527936" lon="7.387889475777267"><ele>927.0</ele><time>2026-05-01T13:09:36Z</time></trkpt><trkpt lat="44.60951946699421" lon="7.387778585128024"><ele>927.0</ele><time>2026-05-01T13:09:38Z</time></trkpt><trkpt lat="44.60949662237464" lon="7.3876810035569385"><ele>927.0</ele><time>2026-05-01T13:09:40Z</time></trkpt><trkpt lat="44.609458693043344" lon="7.387597905160903"><ele>927.0</ele><time>2026-05-01T13:09:42Z</time></trkpt><trkpt lat="44.609406671536355" lon="7.387499777693139"><ele>927.0</ele><time>2026-05-01T13:09:45Z</time></trkpt><trkpt lat="44.60934052583213" lon="7.3874070584057385"><ele>927.0</ele><time>2026-05-01T13:09:47Z</time></trkpt><trkpt lat="44.60925559974828" lon="7.387322651296024"><ele>926.4000000000001</ele><time>2026-05-01T13:09:49Z</time></trkpt><trkpt lat="44.60917718353088" lon="7.38721735956252"><ele>925.8000000000001</ele><time>2026-05-01T13:09:51Z</time></trkpt><trkpt lat="44.609111458310856" lon="7.3871195018657625"><ele>925.2</ele><time>2026-05-01T13:09:52Z</time></trkpt><trkpt lat="44.60905182028543" lon="7.387006039901373"><ele>924.6</ele><time>2026-05-01T13:09:53Z</time></trkpt><trkpt lat="44.60899663728702" lon="7.386906804678218"><ele>924.0</ele><time>2026-05-01T13:09:54Z</time></trkpt><trkpt lat="44.608947747838734" lon="7.3868001214921994"><ele>922.6666666666666</ele><time>2026-05-01T13:09:55Z</time></trkpt><trkpt lat="44.60894968771905" lon="7.386675536013871"><ele>921.3333333333333</ele><time>2026-05-01T13:09:56Z</time></trkpt><trkpt lat="44.6089103555776" lon="7.386588023105302"><ele>920.0</ele><time>2026-05-01T13:09:57Z</time></trkpt><trkpt lat="44.608884102127355" lon="7.3864735357600795"><ele>918.6666666666666</ele><time>2026-05-01T13:09:59Z</time></trkpt><trkpt lat="44.60886442284655" lon="7.386375365928309"><ele>917.3333333333333</ele><time>2026-05-01T13:10:01Z</time></trkpt><trkpt lat="44.60879973480102" lon="7.386308968189849"><ele>916.0</ele><time>2026-05-01T13:10:03Z</time></trkpt><trkpt lat="44.60873459979527" lon="7.386246579655434"><ele>917.0</ele><time>2026-05-01T13:10:05Z</time></trkpt><trkpt lat="44.608641064757734" lon="7.386158576664457"><ele>917.9999999999999</ele><time>2026-05-01T13:10:07Z</time></trkpt><trkpt lat="44.60858379275814" lon="7.386044351138981"><ele>918.9999999999999</ele><time>2026-05-01T13:10:09Z</time></trkpt><trkpt lat="44.608537247344294" lon="7.385874060325382"><ele>920.0</ele><time>2026-05-01T13:10:11Z</time></trkpt><trkpt lat="44.608504109421304" lon="7.385748615628049"><ele>921.0</ele><time>2026-05-01T13:10:12Z</time></trkpt><trkpt lat="44.608464257322446" lon="7.385662843822534"><ele>922.5</ele><time>2026-05-01T13:10:13Z</time></trkpt><trkpt lat="44.608426105934385" lon="7.385511995523726"><ele>924.0</ele><time>2026-05-01T13:10:15Z</time></trkpt><trkpt lat="44.60839112666059" lon="7.3854187216343234"><ele>925.5</ele><time>2026-05-01T13:10:17Z</time></trkpt><trkpt lat="44.6083540278971" lon="7.385313019071339"><ele>927.0</ele><time>2026-05-01T13:10:19Z</time></trkpt><trkpt lat="44.608306790591946" lon="7.385217913635495"><ele>928.5</ele><time>2026-05-01T13:10:21Z</time></trkpt><trkpt lat="44.608282477719506" lon="7.385109006331899"><ele>930.0</ele><time>2026-05-01T13:10:22.999Z</time></trkpt><trkpt lat="44.60826949821928" lon="7.385013509643481"><ele>930.0</ele><time>2026-05-01T13:10:24.999Z</time></trkpt><trkpt lat="44.60823165238859" lon="7.384930265326754"><ele>930.0</ele><time>2026-05-01T13:10:26.999Z</time></trkpt><trkpt lat="44.60820533510675" lon="7.384849496365133"><ele>930.0</ele><time>2026-05-01T13:10:28.999Z</time></trkpt><trkpt lat="44.60817316514822" lon="7.384739200129728"><ele>930.0</ele><time>2026-05-01T13:10:31.999Z</time></trkpt><trkpt lat="44.608155470770576" lon="7.384639611090426"><ele>930.0</ele><time>2026-05-01T13:10:33.999Z</time></trkpt><trkpt lat="44.608122653922024" lon="7.384548178960863"><ele>930.0</ele><time>2026-05-01T13:10:35.999Z</time></trkpt><trkpt lat="44.60805828170404" lon="7.384455715121447"><ele>929.7142857142857</ele><time>2026-05-01T13:10:37.999Z</time></trkpt><trkpt lat="44.608013819455984" lon="7.384389720490308"><ele>929.4285714285716</ele><time>2026-05-01T13:10:39.999Z</time></trkpt><trkpt lat="44.60797971767233" lon="7.384309938572776"><ele>929.1428571428572</ele><time>2026-05-01T13:10:41.999Z</time></trkpt><trkpt lat="44.60794653086168" lon="7.384188694467686"><ele>928.8571428571429</ele><time>2026-05-01T13:10:44.999Z</time></trkpt><trkpt lat="44.607934286285506" lon="7.384093576939566"><ele>928.5714285714287</ele><time>2026-05-01T13:10:46.999Z</time></trkpt><trkpt lat="44.60788431715319" lon="7.383995460291423"><ele>928.2857142857144</ele><time>2026-05-01T13:10:50.999Z</time></trkpt><trkpt lat="44.60784392874196" lon="7.383919547545397"><ele>928.0000000000001</ele><time>2026-05-01T13:10:57Z</time></trkpt><trkpt lat="44.60780988342984" lon="7.383827425124574"><ele>929.5999999999999</ele><time>2026-05-01T13:11:10Z</time></trkpt><trkpt lat="44.6078093946367" lon="7.3837225368573405"><ele>931.1999999999999</ele><time>2026-05-01T13:11:14Z</time></trkpt><trkpt lat="44.60776620078874" lon="7.383573360082831"><ele>932.8</ele><time>2026-05-01T13:11:16Z</time></trkpt><trkpt lat="44.607715957588766" lon="7.383402073610607"><ele>934.4</ele><time>2026-05-01T13:11:18Z</time></trkpt><trkpt lat="44.607621427045345" lon="7.383306494373954"><ele>936.0</ele><time>2026-05-01T13:11:20Z</time></trkpt><trkpt lat="44.607568914304586" lon="7.383226352446962"><ele>936.0</ele><time>2026-05-01T13:11:21Z</time></trkpt><trkpt lat="44.607506818676505" lon="7.383148469367268"><ele>935.9999999999999</ele><time>2026-05-01T13:11:22Z</time></trkpt><trkpt lat="44.60739965002332" lon="7.3830342751079865"><ele>935.9999999999999</ele><time>2026-05-01T13:11:24Z</time></trkpt><trkpt lat="44.607348591628686" lon="7.382967111869019"><ele>936.0</ele><time>2026-05-01T13:11:25Z</time></trkpt><trkpt lat="44.60728384650264" lon="7.382871414653479"><ele>936.0</ele><time>2026-05-01T13:11:26Z</time></trkpt><trkpt lat="44.607241337812624" lon="7.382773094067796"><ele>936.3333333333334</ele><time>2026-05-01T13:11:27Z</time></trkpt><trkpt lat="44.60719114612151" lon="7.382674367008713"><ele>936.6666666666667</ele><time>2026-05-01T13:11:28Z</time></trkpt><trkpt lat="44.60716556691354" lon="7.382562551787838"><ele>937.0</ele><time>2026-05-01T13:11:29Z</time></trkpt><trkpt lat="44.607126655567825" lon="7.382468142235755"><ele>937.3333333333334</ele><time>2026-05-01T13:11:30Z</time></trkpt><trkpt lat="44.60709499339833" lon="7.382389100512459"><ele>937.6666666666667</ele><time>2026-05-01T13:11:31Z</time></trkpt><trkpt lat="44.60705297453272" lon="7.3823185923776204"><ele>938.0</ele><time>2026-05-01T13:11:32Z</time></trkpt><trkpt lat="44.60698351038052" lon="7.382239769668108"><ele>939.8333333333334</ele><time>2026-05-01T13:11:33Z</time></trkpt><trkpt lat="44.6069290532879" lon="7.382158467298553"><ele>941.6666666666667</ele><time>2026-05-01T13:11:34Z</time></trkpt><trkpt lat="44.60686093933601" lon="7.38208251865794"><ele>943.5</ele><time>2026-05-01T13:11:35Z</time></trkpt><trkpt lat="44.6068002897479" lon="7.382009566625898"><ele>945.3333333333333</ele><time>2026-05-01T13:11:36Z</time></trkpt><trkpt lat="44.60673747029418" lon="7.381938656623574"><ele>947.1666666666666</ele><time>2026-05-01T13:11:37Z</time></trkpt><trkpt lat="44.60667745849831" lon="7.381882281841913"><ele>949.0</ele><time>2026-05-01T13:11:38Z</time></trkpt><trkpt lat="44.606634982937955" lon="7.381814024787942"><ele>948.9999999999999</ele><time>2026-05-01T13:11:39Z</time></trkpt><trkpt lat="44.60660138466646" lon="7.381689520247135"><ele>949.0</ele><time>2026-05-01T13:11:41Z</time></trkpt><trkpt lat="44.606570142571826" lon="7.381602307159659"><ele>949.0</ele><time>2026-05-01T13:11:44Z</time></trkpt><trkpt lat="44.60654380213973" lon="7.381490169923855"><ele>949.0</ele><time>2026-05-01T13:11:46Z</time></trkpt><trkpt lat="44.606497750037896" lon="7.381348080300774"><ele>948.9999999999999</ele><time>2026-05-01T13:11:48Z</time></trkpt><trkpt lat="44.606471531029705" lon="7.381260738199031"><ele>949.0</ele><time>2026-05-01T13:11:49Z</time></trkpt><trkpt lat="44.60643876338501" lon="7.3811282335864545"><ele>949.6666666666666</ele><time>2026-05-01T13:11:50Z</time></trkpt><trkpt lat="44.60637546982268" lon="7.381051018303179"><ele>950.3333333333333</ele><time>2026-05-01T13:11:52Z</time></trkpt><trkpt lat="44.60636915406154" lon="7.380906214701033"><ele>951.0</ele><time>2026-05-01T13:11:55Z</time></trkpt><trkpt lat="44.6063730484944" lon="7.38074082812846"><ele>951.6666666666667</ele><time>2026-05-01T13:11:57Z</time></trkpt><trkpt lat="44.606387243618656" lon="7.380648098293674"><ele>952.3333333333334</ele><time>2026-05-01T13:11:58Z</time></trkpt><trkpt lat="44.606404571081306" lon="7.380558610782973"><ele>953.0</ele><time>2026-05-01T13:11:59Z</time></trkpt><trkpt lat="44.60641133156842" lon="7.380462632963593"><ele>953.8</ele><time>2026-05-01T13:12:00Z</time></trkpt><trkpt lat="44.60640139840657" lon="7.380302657167443"><ele>954.5999999999999</ele><time>2026-05-01T13:12:02Z</time></trkpt><trkpt lat="44.606434745645856" lon="7.3801380451695975"><ele>955.4000000000001</ele><time>2026-05-01T13:12:04Z</time></trkpt><trkpt lat="44.606467224538754" lon="7.380038378134924"><ele>956.2</ele><time>2026-05-01T13:12:05Z</time></trkpt><trkpt lat="44.60649615603506" lon="7.37994184126546"><ele>957.0</ele><time>2026-05-01T13:12:06Z</time></trkpt><trkpt lat="44.60655501169161" lon="7.379784314979631"><ele>957.0</ele><time>2026-05-01T13:12:08Z</time></trkpt><trkpt lat="44.606596930952826" lon="7.37970820950777"><ele>957.0</ele><time>2026-05-01T13:12:10Z</time></trkpt><trkpt lat="44.60663612702363" lon="7.379608243173597"><ele>957.0</ele><time>2026-05-01T13:12:12Z</time></trkpt><trkpt lat="44.6066728838721" lon="7.379487389000143"><ele>957.0</ele><time>2026-05-01T13:12:14Z</time></trkpt><trkpt lat="44.60672223209816" lon="7.379363559898729"><ele>957.0</ele><time>2026-05-01T13:12:16Z</time></trkpt><trkpt lat="44.606770692235294" lon="7.379246202824725"><ele>957.0</ele><time>2026-05-01T13:12:18Z</time></trkpt><trkpt lat="44.60681386149321" lon="7.379113062401889"><ele>956.3333333333334</ele><time>2026-05-01T13:12:20Z</time></trkpt><trkpt lat="44.606823109858645" lon="7.378997748285973"><ele>955.6666666666667</ele><time>2026-05-01T13:12:21Z</time></trkpt><trkpt lat="44.606826433949855" lon="7.37890609972479"><ele>955.0</ele><time>2026-05-01T13:12:22Z</time></trkpt><trkpt lat="44.606817903720106" lon="7.378811357355151"><ele>954.3333333333334</ele><time>2026-05-01T13:12:24Z</time></trkpt><trkpt lat="44.60680528948309" lon="7.378694094684472"><ele>953.6666666666667</ele><time>2026-05-01T13:12:26Z</time></trkpt><trkpt lat="44.606789290437185" lon="7.378554539834893"><ele>953.0</ele><time>2026-05-01T13:12:28Z</time></trkpt><trkpt lat="44.60679940103077" lon="7.3784601115074855"><ele>951.2</ele><time>2026-05-01T13:12:30Z</time></trkpt><trkpt lat="44.60681860416979" lon="7.378290675275661"><ele>949.4</ele><time>2026-05-01T13:12:32Z</time></trkpt><trkpt lat="44.606780914133104" lon="7.378130756654844"><ele>947.6000000000001</ele><time>2026-05-01T13:12:34Z</time></trkpt><trkpt lat="44.60674008031085" lon="7.378017871809603"><ele>945.8000000000001</ele><time>2026-05-01T13:12:34.999Z</time></trkpt><trkpt lat="44.606705836347395" lon="7.3779319421820295"><ele>944.0</ele><time>2026-05-01T13:12:35.999Z</time></trkpt><trkpt lat="44.60666357175908" lon="7.377810251240618"><ele>942.6666666666667</ele><time>2026-05-01T13:12:36.999Z</time></trkpt><trkpt lat="44.60662621811187" lon="7.377723102326258"><ele>941.3333333333334</ele><time>2026-05-01T13:12:37.999Z</time></trkpt><trkpt lat="44.60658966851995" lon="7.377646152539055"><ele>940.0</ele><time>2026-05-01T13:12:38.999Z</time></trkpt><trkpt lat="44.606535349741975" lon="7.377456713607059"><ele>938.6666666666667</ele><time>2026-05-01T13:12:40.999Z</time></trkpt><trkpt lat="44.60649292105498" lon="7.377349159743099"><ele>937.3333333333334</ele><time>2026-05-01T13:12:41.999Z</time></trkpt><trkpt lat="44.606458528315585" lon="7.377261227743127"><ele>936.0</ele><time>2026-05-01T13:12:42.999Z</time></trkpt><trkpt lat="44.60642874419716" lon="7.377174021612109"><ele>936.0</ele><time>2026-05-01T13:12:43.999Z</time></trkpt><trkpt lat="44.606417606940376" lon="7.3770691116304015"><ele>936.0</ele><time>2026-05-01T13:12:44.999Z</time></trkpt><trkpt lat="44.60640347332049" lon="7.3769717826088215"><ele>936.0</ele><time>2026-05-01T13:12:45.999Z</time></trkpt><trkpt lat="44.60641843778735" lon="7.376874502609327"><ele>936.0</ele><time>2026-05-01T13:12:47.999Z</time></trkpt><trkpt lat="44.60642956685283" lon="7.376780503742774"><ele>936.0</ele><time>2026-05-01T13:12:49.999Z</time></trkpt><trkpt lat="44.60638887721083" lon="7.376661368816578"><ele>936.0</ele><time>2026-05-01T13:12:51.999Z</time></trkpt><trkpt lat="44.60631390816727" lon="7.376573899358758"><ele>936.0</ele><time>2026-05-01T13:12:53.999Z</time></trkpt><trkpt lat="44.60634706780743" lon="7.376463272894497"><ele>935.9999999999999</ele><time>2026-05-01T13:12:56.999Z</time></trkpt><trkpt lat="44.60641268603422" lon="7.376391951582752"><ele>935.9999999999999</ele><time>2026-05-01T13:12:58Z</time></trkpt><trkpt lat="44.60645340679789" lon="7.3763012192535795"><ele>936.0</ele><time>2026-05-01T13:12:59Z</time></trkpt><trkpt lat="44.606382761452686" lon="7.376153925057144"><ele>936.0</ele><time>2026-05-01T13:13:00Z</time></trkpt><trkpt lat="44.60638614624596" lon="7.3760296345211485"><ele>935.0</ele><time>2026-05-01T13:13:01Z</time></trkpt><trkpt lat="44.60637714274448" lon="7.375906799393991"><ele>933.9999999999999</ele><time>2026-05-01T13:13:02Z</time></trkpt><trkpt lat="44.60636583485457" lon="7.375762742557629"><ele>932.9999999999999</ele><time>2026-05-01T13:13:03Z</time></trkpt><trkpt lat="44.60635671335973" lon="7.375639066172462"><ele>932.0</ele><time>2026-05-01T13:13:04Z</time></trkpt><trkpt lat="44.6063513818528" lon="7.3755025161427135"><ele>931.0</ele><time>2026-05-01T13:13:05Z</time></trkpt><trkpt lat="44.606346816067465" lon="7.375341828317359"><ele>931.0</ele><time>2026-05-01T13:13:06Z</time></trkpt><trkpt lat="44.606342511063914" lon="7.375181211062429"><ele>931.0</ele><time>2026-05-01T13:13:07Z</time></trkpt><trkpt lat="44.6063343870056" lon="7.374975641110781"><ele>931.0</ele><time>2026-05-01T13:13:08Z</time></trkpt><trkpt lat="44.606320500676645" lon="7.374778325389317"><ele>931.0</ele><time>2026-05-01T13:13:09Z</time></trkpt><trkpt lat="44.60631394688324" lon="7.3746077395934035"><ele>932.0</ele><time>2026-05-01T13:13:10Z</time></trkpt><trkpt lat="44.60630203456066" lon="7.374461519006658"><ele>932.9999999999999</ele><time>2026-05-01T13:13:11Z</time></trkpt><trkpt lat="44.60626502656607" lon="7.374326824652651"><ele>933.9999999999999</ele><time>2026-05-01T13:13:12Z</time></trkpt><trkpt lat="44.60620061932612" lon="7.374171460096199"><ele>935.0</ele><time>2026-05-01T13:13:13Z</time></trkpt><trkpt lat="44.60612063008109" lon="7.374061229429404"><ele>936.0</ele><time>2026-05-01T13:13:14Z</time></trkpt><trkpt lat="44.60603615101226" lon="7.373942604533251"><ele>933.0</ele><time>2026-05-01T13:13:15Z</time></trkpt><trkpt lat="44.60596223641065" lon="7.373838814123523"><ele>930.0</ele><time>2026-05-01T13:13:16Z</time></trkpt><trkpt lat="44.60591009159667" lon="7.373751642259494"><ele>927.0</ele><time>2026-05-01T13:13:17Z</time></trkpt><trkpt lat="44.60584140679172" lon="7.37363216334788"><ele>924.0</ele><time>2026-05-01T13:13:18Z</time></trkpt><trkpt lat="44.60606143433988" lon="7.373117061310326"><ele>926.0</ele><time>2026-05-01T13:13:19Z</time></trkpt><trkpt lat="44.60601693617406" lon="7.37297191679839"><ele>928.0</ele><time>2026-05-01T13:13:20Z</time></trkpt><trkpt lat="44.60596355864759" lon="7.372802045294038"><ele>930.0</ele><time>2026-05-01T13:13:21Z</time></trkpt><trkpt lat="44.60591771161818" lon="7.3726535561445825"><ele>932.0</ele><time>2026-05-01T13:13:22Z</time></trkpt><trkpt lat="44.60585585170082" lon="7.372506003299586"><ele>932.0</ele><time>2026-05-01T13:13:23Z</time></trkpt><trkpt lat="44.60578188074749" lon="7.372385709070835"><ele>932.0</ele><time>2026-05-01T13:13:24Z</time></trkpt><trkpt lat="44.605713855364684" lon="7.372260227894855"><ele>932.0</ele><time>2026-05-01T13:13:25Z</time></trkpt><trkpt lat="44.60565899502774" lon="7.372128164578159"><ele>932.0</ele><time>2026-05-01T13:13:26Z</time></trkpt><trkpt lat="44.60560772027712" lon="7.371983553045631"><ele>932.0</ele><time>2026-05-01T13:13:27Z</time></trkpt><trkpt lat="44.60556345930804" lon="7.371828708654619"><ele>933.5</ele><time>2026-05-01T13:13:28Z</time></trkpt><trkpt lat="44.60550988922088" lon="7.371665197777938"><ele>935.0</ele><time>2026-05-01T13:13:29Z</time></trkpt><trkpt lat="44.60546211170871" lon="7.371501639114464"><ele>936.5</ele><time>2026-05-01T13:13:30Z</time></trkpt><trkpt lat="44.60542459004159" lon="7.371348268416741"><ele>938.0</ele><time>2026-05-01T13:13:31Z</time></trkpt><trkpt lat="44.605392223119175" lon="7.371200875921511"><ele>939.0000000000001</ele><time>2026-05-01T13:13:32Z</time></trkpt><trkpt lat="44.60534971149895" lon="7.3710830688860955"><ele>940.0</ele><time>2026-05-01T13:13:33Z</time></trkpt><trkpt lat="44.60532261394328" lon="7.370990186260409"><ele>941.0</ele><time>2026-05-01T13:13:34Z</time></trkpt><trkpt lat="44.605321043866454" lon="7.370893644855177"><ele>942.0</ele><time>2026-05-01T13:13:35Z</time></trkpt><trkpt lat="44.605328384729155" lon="7.370776315205407"><ele>943.0000000000001</ele><time>2026-05-01T13:13:36Z</time></trkpt><trkpt lat="44.60533872893926" lon="7.370676763917297"><ele>944.0</ele><time>2026-05-01T13:13:37Z</time></trkpt><trkpt lat="44.605262913670146" lon="7.370578192987328"><ele>941.0000000000001</ele><time>2026-05-01T13:13:39Z</time></trkpt><trkpt lat="44.605189090709565" lon="7.3705183862656005"><ele>938.0</ele><time>2026-05-01T13:13:40Z</time></trkpt><trkpt lat="44.605129377386426" lon="7.370466857928509"><ele>935.0</ele><time>2026-05-01T13:13:41Z</time></trkpt><trkpt lat="44.60507089661106" lon="7.3703919790304875"><ele>932.0</ele><time>2026-05-01T13:13:42Z</time></trkpt><trkpt lat="44.60500142183599" lon="7.370313779294734"><ele>929.0000000000001</ele><time>2026-05-01T13:13:43Z</time></trkpt><trkpt lat="44.604958236666214" lon="7.37022238187437"><ele>926.0</ele><time>2026-05-01T13:13:44Z</time></trkpt><trkpt lat="44.60494451509841" lon="7.3701036119043035"><ele>926.0</ele><time>2026-05-01T13:13:45Z</time></trkpt><trkpt lat="44.60496347926653" lon="7.369940062279224"><ele>926.0</ele><time>2026-05-01T13:13:46Z</time></trkpt><trkpt lat="44.60502213024515" lon="7.369761532900352"><ele>926.0</ele><time>2026-05-01T13:13:47Z</time></trkpt><trkpt lat="44.60507664695899" lon="7.369589761248634"><ele>926.0</ele><time>2026-05-01T13:13:48Z</time></trkpt><trkpt lat="44.60511355974661" lon="7.369490826300442"><ele>927.75</ele><time>2026-05-01T13:13:49Z</time></trkpt><trkpt lat="44.60505118400457" lon="7.369252698234303"><ele>929.5</ele><time>2026-05-01T13:13:51Z</time></trkpt><trkpt lat="44.604993459294334" lon="7.369101972988926"><ele>931.25</ele><time>2026-05-01T13:13:52Z</time></trkpt><trkpt lat="44.604927848042486" lon="7.368993679260843"><ele>933.0</ele><time>2026-05-01T13:13:53Z</time></trkpt><trkpt lat="44.60488832554943" lon="7.368873593324173"><ele>933.8</ele><time>2026-05-01T13:13:54Z</time></trkpt><trkpt lat="44.60486539969838" lon="7.368739322881641"><ele>934.5999999999999</ele><time>2026-05-01T13:13:55Z</time></trkpt><trkpt lat="44.6048412747231" lon="7.368594734935172"><ele>935.4000000000001</ele><time>2026-05-01T13:13:56Z</time></trkpt><trkpt lat="44.60480235589351" lon="7.368445916405497"><ele>936.2</ele><time>2026-05-01T13:13:57Z</time></trkpt><trkpt lat="44.60479229010266" lon="7.368263882838969"><ele>937.0</ele><time>2026-05-01T13:13:58Z</time></trkpt><trkpt lat="44.60478509674959" lon="7.368082076982385"><ele>939.25</ele><time>2026-05-01T13:13:59Z</time></trkpt><trkpt lat="44.60476624435534" lon="7.36789622440181"><ele>941.5</ele><time>2026-05-01T13:14:00Z</time></trkpt><trkpt lat="44.60474358610155" lon="7.3676917148452565"><ele>943.75</ele><time>2026-05-01T13:14:01Z</time></trkpt><trkpt lat="44.60471684777958" lon="7.367504574901436"><ele>946.0</ele><time>2026-05-01T13:14:02Z</time></trkpt><trkpt lat="44.60471581416134" lon="7.367324715459438"><ele>948.0</ele><time>2026-05-01T13:14:03Z</time></trkpt><trkpt lat="44.60471941442571" lon="7.367141977716078"><ele>950.0</ele><time>2026-05-01T13:14:04Z</time></trkpt><trkpt lat="44.604739766032054" lon="7.36698001279165"><ele>952.0</ele><time>2026-05-01T13:14:05Z</time></trkpt><trkpt lat="44.60472879656521" lon="7.366823138804375"><ele>954.0</ele><time>2026-05-01T13:14:06Z</time></trkpt><trkpt lat="44.604687571683996" lon="7.366685491152655"><ele>954.0</ele><time>2026-05-01T13:14:07Z</time></trkpt><trkpt lat="44.6046231211346" lon="7.366558594087728"><ele>954.0000000000001</ele><time>2026-05-01T13:14:08Z</time></trkpt><trkpt lat="44.60456313117196" lon="7.36641625997491"><ele>954.0000000000001</ele><time>2026-05-01T13:14:09Z</time></trkpt><trkpt lat="44.60451023281897" lon="7.366283148672174"><ele>954.0</ele><time>2026-05-01T13:14:10Z</time></trkpt><trkpt lat="44.604511218375386" lon="7.366191540432521"><ele>954.0</ele><time>2026-05-01T13:14:11Z</time></trkpt><trkpt lat="44.60452854996801" lon="7.366068009605626"><ele>954.75</ele><time>2026-05-01T13:14:12Z</time></trkpt><trkpt lat="44.60453655505696" lon="7.365925908148956"><ele>955.5</ele><time>2026-05-01T13:14:13Z</time></trkpt><trkpt lat="44.604555876889464" lon="7.365759929247511"><ele>956.25</ele><time>2026-05-01T13:14:14Z</time></trkpt><trkpt lat="44.60455080754225" lon="7.3655944331778205"><ele>957.0</ele><time>2026-05-01T13:14:15Z</time></trkpt><trkpt lat="44.604520069881175" lon="7.365399728750511"><ele>952.0</ele><time>2026-05-01T13:14:16Z</time></trkpt><trkpt lat="44.60448741661622" lon="7.365213288281345"><ele>947.0</ele><time>2026-05-01T13:14:17Z</time></trkpt><trkpt lat="44.604462267169005" lon="7.365027576130489"><ele>942.0</ele><time>2026-05-01T13:14:18Z</time></trkpt><trkpt lat="44.60444986033379" lon="7.364856392840936"><ele>937.0</ele><time>2026-05-01T13:14:19Z</time></trkpt><trkpt lat="44.604446006011855" lon="7.364744805232953"><ele>940.8</ele><time>2026-05-01T13:14:20Z</time></trkpt><trkpt lat="44.60442059970801" lon="7.364652289516818"><ele>944.6</ele><time>2026-05-01T13:14:21Z</time></trkpt><trkpt lat="44.604368717578076" lon="7.364547444639311"><ele>948.3999999999999</ele><time>2026-05-01T13:14:22Z</time></trkpt><trkpt lat="44.60428652777495" lon="7.364423297682138"><ele>952.1999999999999</ele><time>2026-05-01T13:14:23Z</time></trkpt><trkpt lat="44.60418247230506" lon="7.364312982520961"><ele>956.0</ele><time>2026-05-01T13:14:24Z</time></trkpt><trkpt lat="44.604079281651394" lon="7.364189891145368"><ele>956.0</ele><time>2026-05-01T13:14:25Z</time></trkpt><trkpt lat="44.60397802599517" lon="7.364060109194012"><ele>956.0</ele><time>2026-05-01T13:14:26Z</time></trkpt><trkpt lat="44.60388848896177" lon="7.363974053731115"><ele>956.0</ele><time>2026-05-01T13:14:27Z</time></trkpt><trkpt lat="44.60379686993035" lon="7.363872665971092"><ele>956.0</ele><time>2026-05-01T13:14:28Z</time></trkpt><trkpt lat="44.603721190940014" lon="7.36377953896231"><ele>958.0</ele><time>2026-05-01T13:14:29Z</time></trkpt><trkpt lat="44.603649234996425" lon="7.363675089655764"><ele>959.9999999999999</ele><time>2026-05-01T13:14:30Z</time></trkpt><trkpt lat="44.60355433511429" lon="7.363599487504744"><ele>961.9999999999999</ele><time>2026-05-01T13:14:31Z</time></trkpt><trkpt lat="44.60344910931621" lon="7.363525377017295"><ele>964.0</ele><time>2026-05-01T13:14:32Z</time></trkpt><trkpt lat="44.60338872561794" lon="7.363498120091208"><ele>966.0</ele><time>2026-05-01T13:14:33Z</time></trkpt><trkpt lat="44.603257462826654" lon="7.363436120819871"><ele>966.0</ele><time>2026-05-01T13:14:34.999Z</time></trkpt><trkpt lat="44.60317116099666" lon="7.363371988879793"><ele>965.9999999999999</ele><time>2026-05-01T13:14:35.999Z</time></trkpt><trkpt lat="44.60306683107371" lon="7.363337824108156"><ele>965.9999999999999</ele><time>2026-05-01T13:14:36.999Z</time></trkpt><trkpt lat="44.603022505757444" lon="7.363225567762565"><ele>966.0</ele><time>2026-05-01T13:14:37.999Z</time></trkpt><trkpt lat="44.602954277010376" lon="7.363133191059184"><ele>966.0</ele><time>2026-05-01T13:14:38.999Z</time></trkpt><trkpt lat="44.60288129274799" lon="7.363030716942211"><ele>969.0</ele><time>2026-05-01T13:14:39.999Z</time></trkpt><trkpt lat="44.60281795517531" lon="7.362931186531085"><ele>972.0</ele><time>2026-05-01T13:14:40.999Z</time></trkpt><trkpt lat="44.60275711298887" lon="7.362795846499035"><ele>975.0</ele><time>2026-05-01T13:14:41.999Z</time></trkpt><trkpt lat="44.60269080935674" lon="7.362659927074474"><ele>978.0</ele><time>2026-05-01T13:14:42.999Z</time></trkpt><trkpt lat="44.60264408622512" lon="7.362497542942701"><ele>978.0</ele><time>2026-05-01T13:14:43.999Z</time></trkpt><trkpt lat="44.60259429103362" lon="7.362348348209886"><ele>978.0</ele><time>2026-05-01T13:14:44.999Z</time></trkpt><trkpt lat="44.60255736906344" lon="7.362205394680482"><ele>978.0</ele><time>2026-05-01T13:14:45.999Z</time></trkpt><trkpt lat="44.602544527089115" lon="7.362034892558095"><ele>978.0</ele><time>2026-05-01T13:14:46.999Z</time></trkpt><trkpt lat="44.60258011955144" lon="7.361870839119561"><ele>980.2</ele><time>2026-05-01T13:14:48.999Z</time></trkpt><trkpt lat="44.60260631740332" lon="7.361762477305394"><ele>982.4</ele><time>2026-05-01T13:14:49.999Z</time></trkpt><trkpt lat="44.60259979009261" lon="7.361625855408791"><ele>984.6000000000001</ele><time>2026-05-01T13:14:50.999Z</time></trkpt><trkpt lat="44.60257342866698" lon="7.361497666178144"><ele>986.8000000000001</ele><time>2026-05-01T13:14:51.999Z</time></trkpt><trkpt lat="44.60252348455309" lon="7.361376116162598"><ele>989.0</ele><time>2026-05-01T13:14:52.999Z</time></trkpt><trkpt lat="44.60246846994763" lon="7.361269936157131"><ele>990.5000000000001</ele><time>2026-05-01T13:14:53.999Z</time></trkpt><trkpt lat="44.60241476814667" lon="7.361137870299963"><ele>992.0</ele><time>2026-05-01T13:14:55.999Z</time></trkpt><trkpt lat="44.60237859536301" lon="7.361036239782932"><ele>993.5</ele><time>2026-05-01T13:14:56.999Z</time></trkpt><trkpt lat="44.60234595054836" lon="7.36092999857026"><ele>995.0</ele><time>2026-05-01T13:14:57.999Z</time></trkpt><trkpt lat="44.60231221114663" lon="7.360821820146452"><ele>996.5000000000001</ele><time>2026-05-01T13:14:58.999Z</time></trkpt><trkpt lat="44.60227720732456" lon="7.360715631236124"><ele>998.0</ele><time>2026-05-01T13:14:59.999Z</time></trkpt><trkpt lat="44.60222874481433" lon="7.360627180497698"><ele>998.0000000000001</ele><time>2026-05-01T13:15:00.999Z</time></trkpt><trkpt lat="44.60219637117057" lon="7.360541842071508"><ele>998.0</ele><time>2026-05-01T13:15:01.999Z</time></trkpt><trkpt lat="44.60214846663664" lon="7.3604389627300355"><ele>998.0</ele><time>2026-05-01T13:15:02.999Z</time></trkpt><trkpt lat="44.60211202127168" lon="7.360339414130515"><ele>998.0</ele><time>2026-05-01T13:15:04Z</time></trkpt><trkpt lat="44.60205995671594" lon="7.360239867486933"><ele>998.0000000000001</ele><time>2026-05-01T13:15:05Z</time></trkpt><trkpt lat="44.602017222339825" lon="7.360156540772329"><ele>998.0</ele><time>2026-05-01T13:15:06Z</time></trkpt><trkpt lat="44.60196374646539" lon="7.360054045096767"><ele>999.1666666666667</ele><time>2026-05-01T13:15:07Z</time></trkpt><trkpt lat="44.60191963566935" lon="7.359958658338156"><ele>1000.3333333333334</ele><time>2026-05-01T13:15:08Z</time></trkpt><trkpt lat="44.60187786750871" lon="7.3598482212462155"><ele>1001.5</ele><time>2026-05-01T13:15:09Z</time></trkpt><trkpt lat="44.60183576630695" lon="7.359738598323321"><ele>1002.6666666666667</ele><time>2026-05-01T13:15:10Z</time></trkpt><trkpt lat="44.60179229874967" lon="7.359636930520593"><ele>1003.8333333333334</ele><time>2026-05-01T13:15:11Z</time></trkpt><trkpt lat="44.60175049963698" lon="7.359540017340522"><ele>1005.0</ele><time>2026-05-01T13:15:12Z</time></trkpt><trkpt lat="44.60172201603927" lon="7.3594577510942125"><ele>1005.0000000000001</ele><time>2026-05-01T13:15:13Z</time></trkpt><trkpt lat="44.60172260717471" lon="7.359549726767074"><ele>1005.0</ele><time>2026-05-01T13:15:52Z</time></trkpt><trkpt lat="44.60177328948395" lon="7.35965298688558"><ele>1005.0000000000001</ele><time>2026-05-01T13:15:55Z</time></trkpt><trkpt lat="44.601787456206196" lon="7.359750329611792"><ele>1005.0000000000001</ele><time>2026-05-01T13:15:57Z</time></trkpt><trkpt lat="44.60177116286285" lon="7.3598487051578445"><ele>1005.0</ele><time>2026-05-01T13:15:59Z</time></trkpt><trkpt lat="44.60174832152608" lon="7.359934288003855"><ele>1005.0000000000001</ele><time>2026-05-01T13:16:01Z</time></trkpt><trkpt lat="44.601737574410734" lon="7.360049182424022"><ele>1005.0000000000001</ele><time>2026-05-01T13:16:03Z</time></trkpt><trkpt lat="44.60172164189526" lon="7.360138954034896"><ele>1006.1666666666666</ele><time>2026-05-01T13:16:04Z</time></trkpt><trkpt lat="44.60171041679735" lon="7.360247711432815"><ele>1007.3333333333333</ele><time>2026-05-01T13:16:05Z</time></trkpt><trkpt lat="44.601728938099114" lon="7.360365132403258"><ele>1008.5</ele><time>2026-05-01T13:16:06Z</time></trkpt><trkpt lat="44.601735338409334" lon="7.360466281005095"><ele>1009.6666666666666</ele><time>2026-05-01T13:16:07Z</time></trkpt><trkpt lat="44.601721674786724" lon="7.360596673001814"><ele>1010.8333333333333</ele><time>2026-05-01T13:16:08Z</time></trkpt><trkpt lat="44.6016970973963" lon="7.360694542727669"><ele>1012.0</ele><time>2026-05-01T13:16:09Z</time></trkpt><trkpt lat="44.601658189460906" lon="7.360847314487959"><ele>1012.0</ele><time>2026-05-01T13:16:11Z</time></trkpt><trkpt lat="44.60161795255245" lon="7.36096520678189"><ele>1012.0</ele><time>2026-05-01T13:16:13Z</time></trkpt><trkpt lat="44.601566600158165" lon="7.361096002687098"><ele>1012.0</ele><time>2026-05-01T13:16:15Z</time></trkpt><trkpt lat="44.60152260484121" lon="7.361236833763554"><ele>1012.0</ele><time>2026-05-01T13:16:17Z</time></trkpt><trkpt lat="44.60148994761898" lon="7.361393942496594"><ele>1012.0</ele><time>2026-05-01T13:16:19Z</time></trkpt><trkpt lat="44.601435761612514" lon="7.361532324627795"><ele>1012.6</ele><time>2026-05-01T13:16:20.999Z</time></trkpt><trkpt lat="44.60138429331631" lon="7.3616384529356385"><ele>1013.2</ele><time>2026-05-01T13:16:22.999Z</time></trkpt><trkpt lat="44.601337133986505" lon="7.36177137281921"><ele>1013.8</ele><time>2026-05-01T13:16:24.999Z</time></trkpt><trkpt lat="44.60127520324089" lon="7.361893904854646"><ele>1014.4</ele><time>2026-05-01T13:16:26.999Z</time></trkpt><trkpt lat="44.60119899655119" lon="7.361981983273303"><ele>1015.0</ele><time>2026-05-01T13:16:28.999Z</time></trkpt><trkpt lat="44.60110759115267" lon="7.362111325027846"><ele>1020.2</ele><time>2026-05-01T13:16:30.999Z</time></trkpt><trkpt lat="44.60102537155035" lon="7.362184156433859"><ele>1025.4</ele><time>2026-05-01T13:16:31.999Z</time></trkpt><trkpt lat="44.60092596902816" lon="7.362264250432902"><ele>1030.6</ele><time>2026-05-01T13:16:32.999Z</time></trkpt><trkpt lat="44.60082932915193" lon="7.362343100685229"><ele>1035.8</ele><time>2026-05-01T13:16:33.999Z</time></trkpt><trkpt lat="44.600742852761485" lon="7.362461638941513"><ele>1041.0</ele><time>2026-05-01T13:16:34.999Z</time></trkpt><trkpt lat="44.60069837887488" lon="7.362560168313739"><ele>1041.0</ele><time>2026-05-01T13:16:35.999Z</time></trkpt><trkpt lat="44.60061451851294" lon="7.36267347182337"><ele>1041.0</ele><time>2026-05-01T13:16:37.999Z</time></trkpt><trkpt lat="44.60055304859106" lon="7.362653981794142"><ele>1041.0</ele><time>2026-05-01T13:16:38.999Z</time></trkpt><trkpt lat="44.60050578324973" lon="7.3625904712049515"><ele>1041.0</ele><time>2026-05-01T13:16:39.999Z</time></trkpt><trkpt lat="44.60044172950046" lon="7.362506058485558"><ele>1041.0</ele><time>2026-05-01T13:16:40.999Z</time></trkpt><trkpt lat="44.60035455884188" lon="7.362470982178371"><ele>1041.0</ele><time>2026-05-01T13:16:41.999Z</time></trkpt><trkpt lat="44.600284165558676" lon="7.362431225764792"><ele>1040.3333333333333</ele><time>2026-05-01T13:16:42.999Z</time></trkpt><trkpt lat="44.60021691893402" lon="7.36239128072526"><ele>1039.6666666666667</ele><time>2026-05-01T13:16:43.999Z</time></trkpt><trkpt lat="44.60015897082504" lon="7.36233591010045"><ele>1039.0</ele><time>2026-05-01T13:16:44.999Z</time></trkpt><trkpt lat="44.60008369853994" lon="7.362285482404531"><ele>1038.3333333333335</ele><time>2026-05-01T13:16:45.999Z</time></trkpt><trkpt lat="44.60000013772723" lon="7.362222709615403"><ele>1037.6666666666667</ele><time>2026-05-01T13:16:46.999Z</time></trkpt><trkpt lat="44.59992483634074" lon="7.362187990971317"><ele>1037.0</ele><time>2026-05-01T13:16:47.999Z</time></trkpt><trkpt lat="44.59987481426282" lon="7.362133967291887"><ele>1037.0</ele><time>2026-05-01T13:16:48.999Z</time></trkpt><trkpt lat="44.59980792925373" lon="7.362105865399866"><ele>1037.0</ele><time>2026-05-01T13:16:49.999Z</time></trkpt><trkpt lat="44.59972662560637" lon="7.36203890435505"><ele>1037.0</ele><time>2026-05-01T13:16:50.999Z</time></trkpt><trkpt lat="44.599643853732694" lon="7.361954884260862"><ele>1037.0</ele><time>2026-05-01T13:16:51.999Z</time></trkpt><trkpt lat="44.5995461547009" lon="7.361887821130924"><ele>1037.0</ele><time>2026-05-01T13:16:52.999Z</time></trkpt><trkpt lat="44.59944225062291" lon="7.3618189818098205"><ele>1037.0</ele><time>2026-05-01T13:16:53.999Z</time></trkpt><trkpt lat="44.59933955712622" lon="7.361641958914993"><ele>1037.0</ele><time>2026-05-01T13:16:54.999Z</time></trkpt><trkpt lat="44.59923352531895" lon="7.36151417243543"><ele>1037.0</ele><time>2026-05-01T13:16:55.999Z</time></trkpt><trkpt lat="44.59917973251041" lon="7.3613882963586645"><ele>1037.0</ele><time>2026-05-01T13:16:56.999Z</time></trkpt><trkpt lat="44.599100714827344" lon="7.361260561835256"><ele>1043.4</ele><time>2026-05-01T13:16:57.999Z</time></trkpt><trkpt lat="44.599016504715046" lon="7.361159723222327"><ele>1049.8000000000002</ele><time>2026-05-01T13:16:58.999Z</time></trkpt><trkpt lat="44.59891853789954" lon="7.3610827665590275"><ele>1056.2</ele><time>2026-05-01T13:16:59.999Z</time></trkpt><trkpt lat="44.5988143653656" lon="7.3610115816310975"><ele>1062.6000000000001</ele><time>2026-05-01T13:17:00.999Z</time></trkpt><trkpt lat="44.59873525740778" lon="7.360941406833699"><ele>1069.0</ele><time>2026-05-01T13:17:01.999Z</time></trkpt><trkpt lat="44.598672228239295" lon="7.3609111303662935"><ele>1065.0</ele><time>2026-05-01T13:17:02.999Z</time></trkpt><trkpt lat="44.598574809517935" lon="7.360893962128908"><ele>1061.0</ele><time>2026-05-01T13:17:03.999Z</time></trkpt><trkpt lat="44.59848537378224" lon="7.360849603196634"><ele>1057.0</ele><time>2026-05-01T13:17:04.999Z</time></trkpt><trkpt lat="44.59839864612884" lon="7.360816070568165"><ele>1053.0</ele><time>2026-05-01T13:17:05.999Z</time></trkpt><trkpt lat="44.59827798252364" lon="7.360746440539042"><ele>1049.0</ele><time>2026-05-01T13:17:07.999Z</time></trkpt><trkpt lat="44.59824385358974" lon="7.360651377496164"><ele>1049.0</ele><time>2026-05-01T13:17:08.999Z</time></trkpt><trkpt lat="44.5981247104021" lon="7.36059008169718"><ele>1049.0</ele><time>2026-05-01T13:17:11Z</time></trkpt><trkpt lat="44.598016183439206" lon="7.360609471954064"><ele>1049.0</ele><time>2026-05-01T13:17:13Z</time></trkpt><trkpt lat="44.59794219420792" lon="7.36062726952519"><ele>1049.0</ele><time>2026-05-01T13:17:14Z</time></trkpt><trkpt lat="44.59786806720015" lon="7.360635370276299"><ele>1049.0</ele><time>2026-05-01T13:17:15Z</time></trkpt><trkpt lat="44.5977989528784" lon="7.360637356570066"><ele>1055.8</ele><time>2026-05-01T13:17:16Z</time></trkpt><trkpt lat="44.59777561442246" lon="7.360522435702661"><ele>1062.6000000000001</ele><time>2026-05-01T13:17:17Z</time></trkpt><trkpt lat="44.59764454561479" lon="7.360452448172755"><ele>1069.4</ele><time>2026-05-01T13:17:19Z</time></trkpt><trkpt lat="44.59754527026256" lon="7.360400818264395"><ele>1076.2</ele><time>2026-05-01T13:17:20Z</time></trkpt><trkpt lat="44.59747352170234" lon="7.360440736106259"><ele>1083.0</ele><time>2026-05-01T13:17:21Z</time></trkpt><trkpt lat="44.59735079059728" lon="7.360500621359758"><ele>1080.8</ele><time>2026-05-01T13:17:22Z</time></trkpt><trkpt lat="44.5972780235924" lon="7.360570026297701"><ele>1078.6</ele><time>2026-05-01T13:17:23Z</time></trkpt><trkpt lat="44.5971973824181" lon="7.360644446274494"><ele>1076.4</ele><time>2026-05-01T13:17:24Z</time></trkpt><trkpt lat="44.597096399141854" lon="7.360730390730914"><ele>1074.2</ele><time>2026-05-01T13:17:25Z</time></trkpt><trkpt lat="44.59700681923799" lon="7.360806228637158"><ele>1072.0</ele><time>2026-05-01T13:17:26Z</time></trkpt><trkpt lat="44.59690343754525" lon="7.360995558525493"><ele>1072.0</ele><time>2026-05-01T13:17:27Z</time></trkpt><trkpt lat="44.596821878510674" lon="7.3611946902826455"><ele>1072.0</ele><time>2026-05-01T13:17:28Z</time></trkpt><trkpt lat="44.5967709333271" lon="7.361325137419633"><ele>1072.0</ele><time>2026-05-01T13:17:29Z</time></trkpt><trkpt lat="44.59669758198418" lon="7.361430851327801"><ele>1072.0</ele><time>2026-05-01T13:17:30Z</time></trkpt><trkpt lat="44.59659778552482" lon="7.361546541298217"><ele>1068.0</ele><time>2026-05-01T13:17:31Z</time></trkpt><trkpt lat="44.59653342832511" lon="7.361637671296528"><ele>1064.0</ele><time>2026-05-01T13:17:32Z</time></trkpt><trkpt lat="44.59647136143551" lon="7.361617207932025"><ele>1060.0</ele><time>2026-05-01T13:17:33.001Z</time></trkpt><trkpt lat="44.596383935786164" lon="7.361643825896318"><ele>1056.0</ele><time>2026-05-01T13:17:34.001Z</time></trkpt><trkpt lat="44.5962993042217" lon="7.361613303799449"><ele>1052.0</ele><time>2026-05-01T13:17:35.001Z</time></trkpt><trkpt lat="44.596219353413446" lon="7.361547013476954"><ele>1048.0</ele><time>2026-05-01T13:17:36.001Z</time></trkpt><trkpt lat="44.59614358834362" lon="7.361512491146253"><ele>1048.0</ele><time>2026-05-01T13:17:37.001Z</time></trkpt><trkpt lat="44.5960796811861" lon="7.361514014968159"><ele>1048.0</ele><time>2026-05-01T13:17:38.001Z</time></trkpt><trkpt lat="44.596007845508566" lon="7.361560480989487"><ele>1048.0</ele><time>2026-05-01T13:17:39.001Z</time></trkpt><trkpt lat="44.59594396840379" lon="7.361609288046929"><ele>1048.0</ele><time>2026-05-01T13:17:40.001Z</time></trkpt><trkpt lat="44.595878337693556" lon="7.361672349318354"><ele>1048.0</ele><time>2026-05-01T13:17:41.001Z</time></trkpt><trkpt lat="44.595808751312006" lon="7.361695241878554"><ele>1048.0</ele><time>2026-05-01T13:17:43.001Z</time></trkpt><trkpt lat="44.595707243603805" lon="7.36163064246147"><ele>1048.0</ele><time>2026-05-01T13:17:45.001Z</time></trkpt><trkpt lat="44.59562634867245" lon="7.361628236290876"><ele>1048.0</ele><time>2026-05-01T13:17:47.001Z</time></trkpt><trkpt lat="44.595517281302264" lon="7.361645468843116"><ele>1048.0</ele><time>2026-05-01T13:17:49.001Z</time></trkpt><trkpt lat="44.59545384502967" lon="7.361615788309882"><ele>1048.0</ele><time>2026-05-01T13:17:50.001Z</time></trkpt><trkpt lat="44.595374148824746" lon="7.361615839218101"><ele>1048.0</ele><time>2026-05-01T13:17:51.001Z</time></trkpt><trkpt lat="44.59530654398208" lon="7.361618938454522"><ele>1048.0</ele><time>2026-05-01T13:17:52.001Z</time></trkpt><trkpt lat="44.5952425324613" lon="7.361646208596977"><ele>1052.4</ele><time>2026-05-01T13:17:53.001Z</time></trkpt><trkpt lat="44.59514679797078" lon="7.361657276677838"><ele>1056.8</ele><time>2026-05-01T13:17:55.001Z</time></trkpt><trkpt lat="44.595036754743525" lon="7.3616465058097855"><ele>1061.2</ele><time>2026-05-01T13:17:57.001Z</time></trkpt><trkpt lat="44.59493577841109" lon="7.3616862196374955"><ele>1065.6</ele><time>2026-05-01T13:17:59.001Z</time></trkpt><trkpt lat="44.59483490918457" lon="7.361781513604054"><ele>1070.0</ele><time>2026-05-01T13:18:01.001Z</time></trkpt><trkpt lat="44.5947880218236" lon="7.361898485073882"><ele>1070.0</ele><time>2026-05-01T13:18:02.001Z</time></trkpt><trkpt lat="44.59473640653285" lon="7.361998654359664"><ele>1070.0</ele><time>2026-05-01T13:18:03.001Z</time></trkpt><trkpt lat="44.594686854273256" lon="7.362087510622365"><ele>1070.0</ele><time>2026-05-01T13:18:04Z</time></trkpt><trkpt lat="44.59463091509747" lon="7.36214595381829"><ele>1070.0</ele><time>2026-05-01T13:18:05Z</time></trkpt><trkpt lat="44.594556144319405" lon="7.3621260321658415"><ele>1070.0</ele><time>2026-05-01T13:18:07Z</time></trkpt><trkpt lat="44.59455779666568" lon="7.361991806804394"><ele>1070.0</ele><time>2026-05-01T13:18:09Z</time></trkpt><trkpt lat="44.594559516289294" lon="7.361882381267218"><ele>1070.0</ele><time>2026-05-01T13:18:10Z</time></trkpt><trkpt lat="44.59451420573152" lon="7.361751001490283"><ele>1070.0</ele><time>2026-05-01T13:18:12Z</time></trkpt><trkpt lat="44.59442842168929" lon="7.361630156106722"><ele>1070.0</ele><time>2026-05-01T13:18:14Z</time></trkpt><trkpt lat="44.59434762469924" lon="7.361541838326313"><ele>1070.0</ele><time>2026-05-01T13:18:15Z</time></trkpt><trkpt lat="44.594307261521635" lon="7.36146737244002"><ele>1070.0</ele><time>2026-05-01T13:18:16Z</time></trkpt><trkpt lat="44.59429831403515" lon="7.361361133072342"><ele>1071.2</ele><time>2026-05-01T13:18:17Z</time></trkpt><trkpt lat="44.59430413274237" lon="7.361230912592928"><ele>1072.4</ele><time>2026-05-01T13:18:18Z</time></trkpt><trkpt lat="44.59431967876482" lon="7.361078996657736"><ele>1073.6</ele><time>2026-05-01T13:18:19Z</time></trkpt><trkpt lat="44.594338391362406" lon="7.360925310911437"><ele>1074.8</ele><time>2026-05-01T13:18:20Z</time></trkpt><trkpt lat="44.59436135050289" lon="7.360788426861166"><ele>1076.0</ele><time>2026-05-01T13:18:21Z</time></trkpt><trkpt lat="44.594400591029185" lon="7.360679547434552"><ele>1076.0</ele><time>2026-05-01T13:18:22Z</time></trkpt><trkpt lat="44.59442731271279" lon="7.360556032917137"><ele>1076.0</ele><time>2026-05-01T13:18:23Z</time></trkpt><trkpt lat="44.594458173334445" lon="7.360430959235263"><ele>1076.0</ele><time>2026-05-01T13:18:24Z</time></trkpt><trkpt lat="44.594479029861596" lon="7.360326127665162"><ele>1076.0</ele><time>2026-05-01T13:18:25Z</time></trkpt><trkpt lat="44.594527163892614" lon="7.360227835504407"><ele>1076.0</ele><time>2026-05-01T13:18:26Z</time></trkpt><trkpt lat="44.59459070311471" lon="7.360161699242746"><ele>1076.0</ele><time>2026-05-01T13:18:27Z</time></trkpt><trkpt lat="44.59464844371615" lon="7.360109108091599"><ele>1081.6666666666667</ele><time>2026-05-01T13:18:28Z</time></trkpt><trkpt lat="44.594725513329" lon="7.3600807989453045"><ele>1087.3333333333335</ele><time>2026-05-01T13:18:30Z</time></trkpt><trkpt lat="44.59479726708629" lon="7.360006060941806"><ele>1093.0</ele><time>2026-05-01T13:18:33Z</time></trkpt><trkpt lat="44.59486671172791" lon="7.359950617640425"><ele>1098.6666666666667</ele><time>2026-05-01T13:18:35Z</time></trkpt><trkpt lat="44.59493150970743" lon="7.359882728517582"><ele>1104.3333333333333</ele><time>2026-05-01T13:18:37Z</time></trkpt><trkpt lat="44.59498203112955" lon="7.359941656415794"><ele>1110.0</ele><time>2026-05-01T13:18:39Z</time></trkpt><trkpt lat="44.59498210325696" lon="7.360041467643825"><ele>1110.0</ele><time>2026-05-01T13:18:40Z</time></trkpt><trkpt lat="44.59496876993949" lon="7.360128798665172"><ele>1110.0</ele><time>2026-05-01T13:18:41Z</time></trkpt><trkpt lat="44.59491461713809" lon="7.360197491162212"><ele>1110.0</ele><time>2026-05-01T13:18:42Z</time></trkpt><trkpt lat="44.59484981951809" lon="7.360347180245055"><ele>1110.0</ele><time>2026-05-01T13:18:44Z</time></trkpt><trkpt lat="44.5948158670039" lon="7.360484429955644"><ele>1110.0</ele><time>2026-05-01T13:18:45Z</time></trkpt><trkpt lat="44.59480119485956" lon="7.36065930235162"><ele>1110.0</ele><time>2026-05-01T13:18:47Z</time></trkpt><trkpt lat="44.594860917975694" lon="7.360760136191861"><ele>1110.0</ele><time>2026-05-01T13:18:49Z</time></trkpt><trkpt lat="44.59495305024982" lon="7.360790137467736"><ele>1110.0</ele><time>2026-05-01T13:18:51Z</time></trkpt><trkpt lat="44.59505055115141" lon="7.3607046329215695"><ele>1110.0</ele><time>2026-05-01T13:18:53Z</time></trkpt><trkpt lat="44.595132401000896" lon="7.36056320310713"><ele>1110.0</ele><time>2026-05-01T13:18:54Z</time></trkpt><trkpt lat="44.59521802579296" lon="7.360392007744919"><ele>1110.0</ele><time>2026-05-01T13:18:55Z</time></trkpt><trkpt lat="44.59528680055196" lon="7.360227134149461"><ele>1110.0</ele><time>2026-05-01T13:18:56Z</time></trkpt><trkpt lat="44.59534075093976" lon="7.360071591916891"><ele>1110.0</ele><time>2026-05-01T13:18:57Z</time></trkpt><trkpt lat="44.59540017845585" lon="7.359936598585943"><ele>1110.0</ele><time>2026-05-01T13:18:58Z</time></trkpt><trkpt lat="44.59545168437979" lon="7.359794922728842"><ele>1116.75</ele><time>2026-05-01T13:18:59Z</time></trkpt><trkpt lat="44.59551498944794" lon="7.359611108666912"><ele>1123.5</ele><time>2026-05-01T13:19:00Z</time></trkpt><trkpt lat="44.595576127728435" lon="7.359437207617199"><ele>1130.25</ele><time>2026-05-01T13:19:01Z</time></trkpt><trkpt lat="44.595615716852265" lon="7.3592681047066"><ele>1137.0</ele><time>2026-05-01T13:19:02Z</time></trkpt><trkpt lat="44.59566108957279" lon="7.359107528640451"><ele>1137.0</ele><time>2026-05-01T13:19:03Z</time></trkpt><trkpt lat="44.59569829063277" lon="7.358969774128758"><ele>1137.0</ele><time>2026-05-01T13:19:04Z</time></trkpt><trkpt lat="44.59573811759701" lon="7.358859286784921"><ele>1137.0</ele><time>2026-05-01T13:19:05Z</time></trkpt><trkpt lat="44.59577627549603" lon="7.358736733458409"><ele>1137.0</ele><time>2026-05-01T13:19:06Z</time></trkpt><trkpt lat="44.59577701956214" lon="7.35860487213656"><ele>1137.0</ele><time>2026-05-01T13:19:07Z</time></trkpt><trkpt lat="44.59575763949881" lon="7.3584731834456"><ele>1138.5</ele><time>2026-05-01T13:19:08Z</time></trkpt><trkpt lat="44.59573090043193" lon="7.358355644827759"><ele>1140.0</ele><time>2026-05-01T13:19:09Z</time></trkpt><trkpt lat="44.595684696647176" lon="7.358246487337634"><ele>1141.5</ele><time>2026-05-01T13:19:10Z</time></trkpt><trkpt lat="44.59566592779255" lon="7.358159155413482"><ele>1143.0</ele><time>2026-05-01T13:19:11Z</time></trkpt><trkpt lat="44.59569275206719" lon="7.358007703329723"><ele>1144.5</ele><time>2026-05-01T13:19:13Z</time></trkpt><trkpt lat="44.59571619354193" lon="7.357905846429246"><ele>1146.0</ele><time>2026-05-01T13:19:14Z</time></trkpt><trkpt lat="44.595756933932144" lon="7.357811676365438"><ele>1146.0</ele><time>2026-05-01T13:19:15.001Z</time></trkpt><trkpt lat="44.59578780149301" lon="7.357710588135113"><ele>1146.0</ele><time>2026-05-01T13:19:16.001Z</time></trkpt><trkpt lat="44.59582770128455" lon="7.357614548388334"><ele>1146.0</ele><time>2026-05-01T13:19:17.001Z</time></trkpt><trkpt lat="44.59589378970691" lon="7.357531470523124"><ele>1146.0</ele><time>2026-05-01T13:19:18.001Z</time></trkpt><trkpt lat="44.59597278161134" lon="7.357462135377062"><ele>1146.0</ele><time>2026-05-01T13:19:19.001Z</time></trkpt><trkpt lat="44.59603776749039" lon="7.3573896141025275"><ele>1146.0</ele><time>2026-05-01T13:19:20.001Z</time></trkpt><trkpt lat="44.596078217003175" lon="7.357294970729326"><ele>1145.0</ele><time>2026-05-01T13:19:21.001Z</time></trkpt><trkpt lat="44.59608243417273" lon="7.357201007344734"><ele>1144.0</ele><time>2026-05-01T13:19:22.001Z</time></trkpt><trkpt lat="44.59610148090679" lon="7.3570886523064525"><ele>1143.0</ele><time>2026-05-01T13:19:23.001Z</time></trkpt><trkpt lat="44.59614103205909" lon="7.356987334648976"><ele>1142.0</ele><time>2026-05-01T13:19:24.001Z</time></trkpt><trkpt lat="44.59618726048441" lon="7.356895310411086"><ele>1141.0</ele><time>2026-05-01T13:19:25.001Z</time></trkpt><trkpt lat="44.59625630513774" lon="7.356814939192151"><ele>1140.0</ele><time>2026-05-01T13:19:26.001Z</time></trkpt><trkpt lat="44.59632704601307" lon="7.356718291165616"><ele>1143.8</ele><time>2026-05-01T13:19:27.001Z</time></trkpt><trkpt lat="44.59639296023896" lon="7.356615653504634"><ele>1147.6</ele><time>2026-05-01T13:19:28.001Z</time></trkpt><trkpt lat="44.596451115066344" lon="7.35648288377198"><ele>1151.4</ele><time>2026-05-01T13:19:29.001Z</time></trkpt><trkpt lat="44.5965151741389" lon="7.356344309090777"><ele>1155.2</ele><time>2026-05-01T13:19:30.001Z</time></trkpt><trkpt lat="44.596593226739884" lon="7.356246430754725"><ele>1159.0</ele><time>2026-05-01T13:19:31.001Z</time></trkpt><trkpt lat="44.596671948426426" lon="7.356154226747855"><ele>1160.1666666666665</ele><time>2026-05-01T13:19:32.001Z</time></trkpt><trkpt lat="44.59673623625205" lon="7.356059365777006"><ele>1161.3333333333333</ele><time>2026-05-01T13:19:33.001Z</time></trkpt><trkpt lat="44.596794469420495" lon="7.355968233889476"><ele>1162.5</ele><time>2026-05-01T13:19:34.001Z</time></trkpt><trkpt lat="44.596851619229525" lon="7.355868685388355"><ele>1163.6666666666667</ele><time>2026-05-01T13:19:35.001Z</time></trkpt><trkpt lat="44.596896950395845" lon="7.355755678749176"><ele>1164.8333333333335</ele><time>2026-05-01T13:19:36.001Z</time></trkpt><trkpt lat="44.59693269908251" lon="7.355664209765758"><ele>1166.0</ele><time>2026-05-01T13:19:37.001Z</time></trkpt><trkpt lat="44.59695116972972" lon="7.355555480076335"><ele>1168.8</ele><time>2026-05-01T13:19:38.001Z</time></trkpt><trkpt lat="44.59693861793021" lon="7.355415098000706"><ele>1171.6</ele><time>2026-05-01T13:19:39.001Z</time></trkpt><trkpt lat="44.596925111648474" lon="7.35531907962288"><ele>1174.4</ele><time>2026-05-01T13:19:40.001Z</time></trkpt><trkpt lat="44.59687439645541" lon="7.355198675820761"><ele>1177.2</ele><time>2026-05-01T13:19:41.001Z</time></trkpt><trkpt lat="44.5968165002362" lon="7.355071278398946"><ele>1180.0</ele><time>2026-05-01T13:19:42.001Z</time></trkpt><trkpt lat="44.59677696731288" lon="7.354936455271394"><ele>1180.0</ele><time>2026-05-01T13:19:43.001Z</time></trkpt><trkpt lat="44.596711877082186" lon="7.354782506576359"><ele>1180.0</ele><time>2026-05-01T13:19:44.001Z</time></trkpt><trkpt lat="44.596684372175716" lon="7.354627260940903"><ele>1180.0</ele><time>2026-05-01T13:19:45.001Z</time></trkpt><trkpt lat="44.596654937119155" lon="7.354474804369938"><ele>1180.0</ele><time>2026-05-01T13:19:46.001Z</time></trkpt><trkpt lat="44.596640365111114" lon="7.35433908303685"><ele>1182.0</ele><time>2026-05-01T13:19:47.001Z</time></trkpt><trkpt lat="44.596658042575115" lon="7.354234872942253"><ele>1184.0</ele><time>2026-05-01T13:19:48.001Z</time></trkpt><trkpt lat="44.59668264359699" lon="7.354127280566715"><ele>1186.0</ele><time>2026-05-01T13:19:49.001Z</time></trkpt><trkpt lat="44.59669913713353" lon="7.353976129614046"><ele>1188.0</ele><time>2026-05-01T13:19:50.001Z</time></trkpt><trkpt lat="44.59672708713033" lon="7.353832504075875"><ele>1190.0</ele><time>2026-05-01T13:19:51.001Z</time></trkpt><trkpt lat="44.59674634173395" lon="7.353659539450133"><ele>1192.2</ele><time>2026-05-01T13:19:52Z</time></trkpt><trkpt lat="44.596754661817876" lon="7.353509299099319"><ele>1194.4</ele><time>2026-05-01T13:19:53Z</time></trkpt><trkpt lat="44.59677556135818" lon="7.353369864973629"><ele>1196.6</ele><time>2026-05-01T13:19:54Z</time></trkpt><trkpt lat="44.596811546450446" lon="7.35325529834572"><ele>1198.8</ele><time>2026-05-01T13:19:55Z</time></trkpt><trkpt lat="44.59686023549812" lon="7.353117787527553"><ele>1201.0</ele><time>2026-05-01T13:19:56Z</time></trkpt><trkpt lat="44.59688922270992" lon="7.352991312851076"><ele>1198.8333333333333</ele><time>2026-05-01T13:19:57Z</time></trkpt><trkpt lat="44.59692376392318" lon="7.35288267045982"><ele>1196.6666666666665</ele><time>2026-05-01T13:19:58Z</time></trkpt><trkpt lat="44.596957401970904" lon="7.352772659448507"><ele>1194.5</ele><time>2026-05-01T13:19:59Z</time></trkpt><trkpt lat="44.5969851132956" lon="7.352652588812385"><ele>1192.3333333333333</ele><time>2026-05-01T13:20:00Z</time></trkpt><trkpt lat="44.59702156203921" lon="7.352539187989528"><ele>1190.1666666666667</ele><time>2026-05-01T13:20:01Z</time></trkpt><trkpt lat="44.597048114939575" lon="7.352435287398213"><ele>1188.0</ele><time>2026-05-01T13:20:02Z</time></trkpt><trkpt lat="44.59709948733054" lon="7.352341914764413"><ele>1188.0</ele><time>2026-05-01T13:20:03Z</time></trkpt><trkpt lat="44.597137888586424" lon="7.352236061690179"><ele>1188.0</ele><time>2026-05-01T13:20:04Z</time></trkpt><trkpt lat="44.5971894964794" lon="7.352132202851936"><ele>1188.0</ele><time>2026-05-01T13:20:05Z</time></trkpt><trkpt lat="44.597226230909186" lon="7.3520185345017275"><ele>1188.0</ele><time>2026-05-01T13:20:06Z</time></trkpt><trkpt lat="44.59723899866441" lon="7.351915990346519"><ele>1188.0</ele><time>2026-05-01T13:20:07Z</time></trkpt><trkpt lat="44.59725471163591" lon="7.351801598764499"><ele>1188.0</ele><time>2026-05-01T13:20:09Z</time></trkpt><trkpt lat="44.59734407503735" lon="7.351771390477345"><ele>1193.8</ele><time>2026-05-01T13:20:11Z</time></trkpt><trkpt lat="44.59742973100998" lon="7.351830540461519"><ele>1199.6</ele><time>2026-05-01T13:20:12Z</time></trkpt><trkpt lat="44.597508230755714" lon="7.351886494596746"><ele>1205.4</ele><time>2026-05-01T13:20:13Z</time></trkpt><trkpt lat="44.597604508739806" lon="7.351951591515618"><ele>1211.2</ele><time>2026-05-01T13:20:14Z</time></trkpt><trkpt lat="44.59770315950509" lon="7.351962217432135"><ele>1217.0</ele><time>2026-05-01T13:20:15Z</time></trkpt><trkpt lat="44.597805429912285" lon="7.3519310317398"><ele>1219.6</ele><time>2026-05-01T13:20:16Z</time></trkpt><trkpt lat="44.597910689143426" lon="7.351896050768091"><ele>1222.2</ele><time>2026-05-01T13:20:17Z</time></trkpt><trkpt lat="44.59801586313808" lon="7.35188936542745"><ele>1224.8</ele><time>2026-05-01T13:20:18Z</time></trkpt><trkpt lat="44.59808032458734" lon="7.3518942042492865"><ele>1227.4</ele><time>2026-05-01T13:20:19Z</time></trkpt><trkpt lat="44.598194637400844" lon="7.351933676130543"><ele>1230.0</ele><time>2026-05-01T13:20:21Z</time></trkpt><trkpt lat="44.598314943071586" lon="7.351948198612897"><ele>1230.0</ele><time>2026-05-01T13:20:23Z</time></trkpt><trkpt lat="44.5984225771022" lon="7.351940568355345"><ele>1230.0</ele><time>2026-05-01T13:20:25Z</time></trkpt><trkpt lat="44.598520290692484" lon="7.351997921799127"><ele>1230.0</ele><time>2026-05-01T13:20:27Z</time></trkpt><trkpt lat="44.59861674768229" lon="7.35203479650518"><ele>1230.0</ele><time>2026-05-01T13:20:29Z</time></trkpt><trkpt lat="44.598705282161745" lon="7.352085200376439"><ele>1230.0</ele><time>2026-05-01T13:20:31Z</time></trkpt><trkpt lat="44.59878680765155" lon="7.352035774163805"><ele>1230.0</ele><time>2026-05-01T13:20:33Z</time></trkpt><trkpt lat="44.598742811459104" lon="7.351906659227145"><ele>1230.0</ele><time>2026-05-01T13:20:36Z</time></trkpt><trkpt lat="44.59871348321263" lon="7.3518194805056085"><ele>1230.0</ele><time>2026-05-01T13:20:37Z</time></trkpt><trkpt lat="44.59865027634868" lon="7.351752185311119"><ele>1230.0</ele><time>2026-05-01T13:20:38Z</time></trkpt><trkpt lat="44.59859516286538" lon="7.351695474577604"><ele>1230.0</ele><time>2026-05-01T13:20:39Z</time></trkpt><trkpt lat="44.59852338120313" lon="7.351616300238733"><ele>1230.0</ele><time>2026-05-01T13:20:40Z</time></trkpt><trkpt lat="44.59845207851159" lon="7.35154320968816"><ele>1230.0</ele><time>2026-05-01T13:20:41Z</time></trkpt><trkpt lat="44.59838513984367" lon="7.3514697722027"><ele>1230.0</ele><time>2026-05-01T13:20:42Z</time></trkpt><trkpt lat="44.59830249023748" lon="7.35137479601008"><ele>1230.0</ele><time>2026-05-01T13:20:43Z</time></trkpt><trkpt lat="44.598216358414646" lon="7.351309057609574"><ele>1230.0</ele><time>2026-05-01T13:20:44Z</time></trkpt><trkpt lat="44.59812219101905" lon="7.3512656885815355"><ele>1230.0</ele><time>2026-05-01T13:20:45Z</time></trkpt><trkpt lat="44.59801136156347" lon="7.351217746517457"><ele>1235.2</ele><time>2026-05-01T13:20:46Z</time></trkpt><trkpt lat="44.59792615440981" lon="7.351136530189458"><ele>1240.4</ele><time>2026-05-01T13:20:47Z</time></trkpt><trkpt lat="44.597827541750156" lon="7.351098146620968"><ele>1245.6</ele><time>2026-05-01T13:20:48Z</time></trkpt><trkpt lat="44.597724677488536" lon="7.351058959051797"><ele>1250.8</ele><time>2026-05-01T13:20:49Z</time></trkpt><trkpt lat="44.597628375059564" lon="7.350985595703628"><ele>1256.0</ele><time>2026-05-01T13:20:50Z</time></trkpt><trkpt lat="44.59753377810603" lon="7.350936331572791"><ele>1256.0</ele><time>2026-05-01T13:20:51Z</time></trkpt><trkpt lat="44.597436796459235" lon="7.350882310769839"><ele>1256.0</ele><time>2026-05-01T13:20:52Z</time></trkpt><trkpt lat="44.59735950539158" lon="7.350833575541096"><ele>1256.0</ele><time>2026-05-01T13:20:53Z</time></trkpt><trkpt lat="44.59726678676756" lon="7.350798457164767"><ele>1256.0</ele><time>2026-05-01T13:20:54Z</time></trkpt><trkpt lat="44.59718273694607" lon="7.350769348757236"><ele>1256.0</ele><time>2026-05-01T13:20:55Z</time></trkpt><trkpt lat="44.59709759113295" lon="7.350735619892035"><ele>1256.8333333333335</ele><time>2026-05-01T13:20:56Z</time></trkpt><trkpt lat="44.59700147376527" lon="7.350719000005404"><ele>1257.6666666666667</ele><time>2026-05-01T13:20:57Z</time></trkpt><trkpt lat="44.59690702496895" lon="7.350700410982418"><ele>1258.5</ele><time>2026-05-01T13:20:58Z</time></trkpt><trkpt lat="44.596831191303146" lon="7.350667872411338"><ele>1259.3333333333333</ele><time>2026-05-01T13:20:59Z</time></trkpt><trkpt lat="44.59675331739393" lon="7.350662196244429"><ele>1260.1666666666665</ele><time>2026-05-01T13:21:00Z</time></trkpt><trkpt lat="44.59666579638398" lon="7.350694661049659"><ele>1261.0</ele><time>2026-05-01T13:21:02Z</time></trkpt><trkpt lat="44.59664531837403" lon="7.350850236120114"><ele>1261.0</ele><time>2026-05-01T13:21:04Z</time></trkpt><trkpt lat="44.596571132905666" lon="7.351000220409565"><ele>1261.0</ele><time>2026-05-01T13:21:06Z</time></trkpt><trkpt lat="44.596501828947154" lon="7.351090383728944"><ele>1261.0</ele><time>2026-05-01T13:21:07Z</time></trkpt><trkpt lat="44.59642839132938" lon="7.351183083504927"><ele>1261.0</ele><time>2026-05-01T13:21:08Z</time></trkpt><trkpt lat="44.5963469139601" lon="7.35128255947068"><ele>1261.0</ele><time>2026-05-01T13:21:09Z</time></trkpt><trkpt lat="44.59626578712832" lon="7.351379271434556"><ele>1261.3333333333333</ele><time>2026-05-01T13:21:10Z</time></trkpt><trkpt lat="44.59618473707674" lon="7.351451325900168"><ele>1261.6666666666665</ele><time>2026-05-01T13:21:11Z</time></trkpt><trkpt lat="44.596113427815204" lon="7.351500305455176"><ele>1262.0</ele><time>2026-05-01T13:21:12Z</time></trkpt><trkpt lat="44.596058376472804" lon="7.351564618479258"><ele>1262.3333333333333</ele><time>2026-05-01T13:21:13Z</time></trkpt><trkpt lat="44.59602345821713" lon="7.351656468684801"><ele>1262.6666666666667</ele><time>2026-05-01T13:21:14Z</time></trkpt><trkpt lat="44.59597600893836" lon="7.351721155376037"><ele>1263.0</ele><time>2026-05-01T13:21:15Z</time></trkpt><trkpt lat="44.59587409621637" lon="7.351760706944774"><ele>1263.0</ele><time>2026-05-01T13:21:17Z</time></trkpt><trkpt lat="44.59583450290402" lon="7.3516594376746625"><ele>1263.0</ele><time>2026-05-01T13:21:18Z</time></trkpt><trkpt lat="44.59577493177273" lon="7.351513926749109"><ele>1263.0</ele><time>2026-05-01T13:21:20Z</time></trkpt><trkpt lat="44.59571218934594" lon="7.351462433389169"><ele>1263.0</ele><time>2026-05-01T13:21:22.001Z</time></trkpt><trkpt lat="44.595666883823" lon="7.351367551410553"><ele>1263.0</ele><time>2026-05-01T13:21:24.001Z</time></trkpt><trkpt lat="44.5956135897307" lon="7.351278567151002"><ele>1263.0</ele><time>2026-05-01T13:21:26.001Z</time></trkpt><trkpt lat="44.59540878233827" lon="7.351097220867187"><ele>1265.3333333333333</ele><time>2026-05-01T13:21:27.001Z</time></trkpt><trkpt lat="44.59536920422935" lon="7.35100395196781"><ele>1267.6666666666667</ele><time>2026-05-01T13:21:28.001Z</time></trkpt><trkpt lat="44.59533303627577" lon="7.350897155020399"><ele>1270.0</ele><time>2026-05-01T13:21:29.001Z</time></trkpt><trkpt lat="44.59528741147893" lon="7.350795870825168"><ele>1272.3333333333335</ele><time>2026-05-01T13:21:30.001Z</time></trkpt><trkpt lat="44.595230195671576" lon="7.350687613470579"><ele>1274.6666666666667</ele><time>2026-05-01T13:21:31.001Z</time></trkpt><trkpt lat="44.59516834586268" lon="7.35057900674463"><ele>1277.0</ele><time>2026-05-01T13:21:32.001Z</time></trkpt><trkpt lat="44.59510116041142" lon="7.350453628539167"><ele>1282.2</ele><time>2026-05-01T13:21:33.001Z</time></trkpt><trkpt lat="44.595033870797636" lon="7.350346732939835"><ele>1287.4</ele><time>2026-05-01T13:21:34.001Z</time></trkpt><trkpt lat="44.594957975997296" lon="7.350261572120465"><ele>1292.6000000000001</ele><time>2026-05-01T13:21:35.001Z</time></trkpt><trkpt lat="44.59487978560233" lon="7.3502100485488"><ele>1297.8000000000002</ele><time>2026-05-01T13:21:36.001Z</time></trkpt><trkpt lat="44.59478158032473" lon="7.350178855334227"><ele>1303.0</ele><time>2026-05-01T13:21:37.001Z</time></trkpt><trkpt lat="44.59467807711577" lon="7.350148332341649"><ele>1303.0</ele><time>2026-05-01T13:21:38.001Z</time></trkpt><trkpt lat="44.59459564971705" lon="7.350126177666373"><ele>1303.0</ele><time>2026-05-01T13:21:39.001Z</time></trkpt><trkpt lat="44.59450986188843" lon="7.350109463104714"><ele>1303.0</ele><time>2026-05-01T13:21:40.001Z</time></trkpt><trkpt lat="44.59441497393492" lon="7.350082635771737"><ele>1303.0</ele><time>2026-05-01T13:21:41.001Z</time></trkpt><trkpt lat="44.59431309031974" lon="7.350043964926174"><ele>1303.0</ele><time>2026-05-01T13:21:42.001Z</time></trkpt><trkpt lat="44.59423818220631" lon="7.350017835505613"><ele>1303.6000000000001</ele><time>2026-05-01T13:21:43.001Z</time></trkpt><trkpt lat="44.59416085071087" lon="7.349979340790575"><ele>1304.2</ele><time>2026-05-01T13:21:44.001Z</time></trkpt><trkpt lat="44.594161935851034" lon="7.349810013944892"><ele>1304.8</ele><time>2026-05-01T13:21:46Z</time></trkpt><trkpt lat="44.59421646501463" lon="7.349677216550997"><ele>1305.4</ele><time>2026-05-01T13:21:47Z</time></trkpt><trkpt lat="44.59428210523565" lon="7.349547608915911"><ele>1306.0</ele><time>2026-05-01T13:21:48Z</time></trkpt><trkpt lat="44.5943972040619" lon="7.3494354169114375"><ele>1306.0</ele><time>2026-05-01T13:21:49Z</time></trkpt><trkpt lat="44.59443969611971" lon="7.349363534769666"><ele>1306.0</ele><time>2026-05-01T13:21:50Z</time></trkpt><trkpt lat="44.59450611907971" lon="7.3492840421638315"><ele>1306.0</ele><time>2026-05-01T13:21:51Z</time></trkpt><trkpt lat="44.594578963706375" lon="7.3491675468668305"><ele>1306.0</ele><time>2026-05-01T13:21:52Z</time></trkpt><trkpt lat="44.594633954440425" lon="7.349053037684878"><ele>1306.0</ele><time>2026-05-01T13:21:53Z</time></trkpt><trkpt lat="44.59467660647944" lon="7.348933899251422"><ele>1310.0</ele><time>2026-05-01T13:21:54Z</time></trkpt><trkpt lat="44.59470093025216" lon="7.348792769955317"><ele>1314.0</ele><time>2026-05-01T13:21:55Z</time></trkpt><trkpt lat="44.594746188560286" lon="7.348654729560974"><ele>1318.0</ele><time>2026-05-01T13:21:56Z</time></trkpt><trkpt lat="44.594786784214094" lon="7.348538746776768"><ele>1322.0</ele><time>2026-05-01T13:21:57Z</time></trkpt><trkpt lat="44.59481207471682" lon="7.348382780655529"><ele>1326.0</ele><time>2026-05-01T13:21:58Z</time></trkpt><trkpt lat="44.59482319212084" lon="7.348187554866131"><ele>1326.25</ele><time>2026-05-01T13:21:59Z</time></trkpt><trkpt lat="44.59482616010508" lon="7.348000310037107"><ele>1326.5</ele><time>2026-05-01T13:22:00Z</time></trkpt><trkpt lat="44.59482622189303" lon="7.347831231743607"><ele>1326.75</ele><time>2026-05-01T13:22:01Z</time></trkpt><trkpt lat="44.59484449835868" lon="7.347662290556117"><ele>1327.0</ele><time>2026-05-01T13:22:02Z</time></trkpt><trkpt lat="44.59487762390961" lon="7.347486971323722"><ele>1327.0</ele><time>2026-05-01T13:22:03Z</time></trkpt><trkpt lat="44.59489448189374" lon="7.347312732786379"><ele>1327.0</ele><time>2026-05-01T13:22:04Z</time></trkpt><trkpt lat="44.59491190193311" lon="7.347165397190499"><ele>1327.0</ele><time>2026-05-01T13:22:05Z</time></trkpt><trkpt lat="44.594914241287434" lon="7.347018900015692"><ele>1327.0</ele><time>2026-05-01T13:22:06Z</time></trkpt><trkpt lat="44.59488868302501" lon="7.34691266920139"><ele>1327.0</ele><time>2026-05-01T13:22:07Z</time></trkpt><trkpt lat="44.59488609686704" lon="7.34681823439068"><ele>1328.0</ele><time>2026-05-01T13:22:08Z</time></trkpt><trkpt lat="44.59483620966614" lon="7.346653896545788"><ele>1329.0</ele><time>2026-05-01T13:22:09Z</time></trkpt><trkpt lat="44.59484502831797" lon="7.346492460249643"><ele>1330.0</ele><time>2026-05-01T13:22:11Z</time></trkpt><trkpt lat="44.594862568025334" lon="7.346382786174811"><ele>1331.0</ele><time>2026-05-01T13:22:12Z</time></trkpt><trkpt lat="44.594888984719354" lon="7.346256931635394"><ele>1332.0</ele><time>2026-05-01T13:22:13Z</time></trkpt><trkpt lat="44.59485863598759" lon="7.346106877556145"><ele>1333.0</ele><time>2026-05-01T13:22:14Z</time></trkpt><trkpt lat="44.59475149871068" lon="7.346023312138739"><ele>1334.0</ele><time>2026-05-01T13:22:15Z</time></trkpt><trkpt lat="44.59465382735385" lon="7.345932335104536"><ele>1335.0</ele><time>2026-05-01T13:22:16Z</time></trkpt><trkpt lat="44.594659381068716" lon="7.345781604036248"><ele>1336.0</ele><time>2026-05-01T13:22:18Z</time></trkpt><trkpt lat="44.594749267627414" lon="7.345596843368572"><ele>1336.0</ele><time>2026-05-01T13:22:19Z</time></trkpt><trkpt lat="44.59480842785534" lon="7.345466991470556"><ele>1336.0</ele><time>2026-05-01T13:22:20Z</time></trkpt><trkpt lat="44.594861600872456" lon="7.345385516499348"><ele>1336.0</ele><time>2026-05-01T13:22:21Z</time></trkpt><trkpt lat="44.59489737473801" lon="7.345290674655499"><ele>1336.0</ele><time>2026-05-01T13:22:22Z</time></trkpt><trkpt lat="44.59493660133974" lon="7.345201100205703"><ele>1336.0</ele><time>2026-05-01T13:22:23Z</time></trkpt><trkpt lat="44.59497476575688" lon="7.3451216249416245"><ele>1336.0</ele><time>2026-05-01T13:22:24Z</time></trkpt><trkpt lat="44.59501687483266" lon="7.345033709029055"><ele>1336.0</ele><time>2026-05-01T13:22:25Z</time></trkpt><trkpt lat="44.59505424833185" lon="7.344943132526825"><ele>1336.0</ele><time>2026-05-01T13:22:26Z</time></trkpt><trkpt lat="44.59509589195643" lon="7.344846080746946"><ele>1336.0</ele><time>2026-05-01T13:22:27Z</time></trkpt><trkpt lat="44.59514458706994" lon="7.344761142048678"><ele>1336.0</ele><time>2026-05-01T13:22:28Z</time></trkpt><trkpt lat="44.59522994501221" lon="7.344733172166478"><ele>1336.0</ele><time>2026-05-01T13:22:30Z</time></trkpt><trkpt lat="44.59528988994488" lon="7.344682763326201"><ele>1336.0</ele><time>2026-05-01T13:22:31Z</time></trkpt><trkpt lat="44.595362380496795" lon="7.344622983223402"><ele>1340.25</ele><time>2026-05-01T13:22:32Z</time></trkpt><trkpt lat="44.59543083464199" lon="7.344565171988628"><ele>1344.5</ele><time>2026-05-01T13:22:33Z</time></trkpt><trkpt lat="44.59553170924538" lon="7.344469899218596"><ele>1348.75</ele><time>2026-05-01T13:22:34Z</time></trkpt><trkpt lat="44.59564177464055" lon="7.344354037727856"><ele>1353.0</ele><time>2026-05-01T13:22:35Z</time></trkpt><trkpt lat="44.59571059617544" lon="7.344212652892881"><ele>1353.0</ele><time>2026-05-01T13:22:36Z</time></trkpt><trkpt lat="44.59577165871866" lon="7.344046913368456"><ele>1353.0</ele><time>2026-05-01T13:22:37Z</time></trkpt><trkpt lat="44.59582701224792" lon="7.343857162725345"><ele>1353.0</ele><time>2026-05-01T13:22:38Z</time></trkpt><trkpt lat="44.59585332435562" lon="7.343655895176796"><ele>1353.0</ele><time>2026-05-01T13:22:39Z</time></trkpt><trkpt lat="44.59585288466077" lon="7.343464665487913"><ele>1352.6000000000001</ele><time>2026-05-01T13:22:40Z</time></trkpt><trkpt lat="44.595850308559456" lon="7.34330990948985"><ele>1352.2</ele><time>2026-05-01T13:22:41Z</time></trkpt><trkpt lat="44.59586330697763" lon="7.343177741673694"><ele>1351.8</ele><time>2026-05-01T13:22:42Z</time></trkpt><trkpt lat="44.59585866373712" lon="7.343084039605081"><ele>1351.4</ele><time>2026-05-01T13:22:43Z</time></trkpt><trkpt lat="44.595858594018786" lon="7.3429327794460555"><ele>1351.0</ele><time>2026-05-01T13:22:44Z</time></trkpt><trkpt lat="44.59587738811645" lon="7.342793230068233"><ele>1351.0</ele><time>2026-05-01T13:22:45Z</time></trkpt><trkpt lat="44.59587899871853" lon="7.342663502109877"><ele>1351.0</ele><time>2026-05-01T13:22:46Z</time></trkpt><trkpt lat="44.59590042840996" lon="7.342568997639969"><ele>1351.0</ele><time>2026-05-01T13:22:47Z</time></trkpt><trkpt lat="44.59591153504001" lon="7.342452055043612"><ele>1351.0</ele><time>2026-05-01T13:22:48Z</time></trkpt><trkpt lat="44.59590754623936" lon="7.342273966323212"><ele>1351.0</ele><time>2026-05-01T13:22:49Z</time></trkpt><trkpt lat="44.59588606631332" lon="7.342117841075529"><ele>1350.5</ele><time>2026-05-01T13:22:50Z</time></trkpt><trkpt lat="44.59585133880074" lon="7.341982011818106"><ele>1350.0</ele><time>2026-05-01T13:22:51Z</time></trkpt><trkpt lat="44.59583867395702" lon="7.341877253495106"><ele>1349.5</ele><time>2026-05-01T13:22:52Z</time></trkpt><trkpt lat="44.59585958370923" lon="7.341792113481096"><ele>1349.0</ele><time>2026-05-01T13:22:53Z</time></trkpt><trkpt lat="44.59590700433099" lon="7.341697001206038"><ele>1348.5</ele><time>2026-05-01T13:22:54Z</time></trkpt><trkpt lat="44.59597336925398" lon="7.341593662503306"><ele>1348.0</ele><time>2026-05-01T13:22:55Z</time></trkpt><trkpt lat="44.596046203471154" lon="7.341468907319025"><ele>1345.0</ele><time>2026-05-01T13:22:56Z</time></trkpt><trkpt lat="44.59612455310565" lon="7.3413170811121455"><ele>1342.0</ele><time>2026-05-01T13:22:57Z</time></trkpt><trkpt lat="44.596182698308134" lon="7.341183739065433"><ele>1339.0</ele><time>2026-05-01T13:22:58Z</time></trkpt><trkpt lat="44.596239552519606" lon="7.341051322473366"><ele>1336.0</ele><time>2026-05-01T13:22:59Z</time></trkpt><trkpt lat="44.596280926095886" lon="7.340923366245297"><ele>1344.75</ele><time>2026-05-01T13:23:00Z</time></trkpt><trkpt lat="44.5962810730739" lon="7.340753223421399"><ele>1353.5</ele><time>2026-05-01T13:23:01Z</time></trkpt><trkpt lat="44.596306117117344" lon="7.340590725055243"><ele>1362.25</ele><time>2026-05-01T13:23:02Z</time></trkpt><trkpt lat="44.59634974271985" lon="7.340433552188637"><ele>1371.0</ele><time>2026-05-01T13:23:03Z</time></trkpt><trkpt lat="44.59639612638468" lon="7.340278588684448"><ele>1371.1999999999998</ele><time>2026-05-01T13:23:04Z</time></trkpt><trkpt lat="44.59643329330378" lon="7.340137628738135"><ele>1371.3999999999999</ele><time>2026-05-01T13:23:05Z</time></trkpt><trkpt lat="44.59644688443202" lon="7.340002816999566"><ele>1371.6</ele><time>2026-05-01T13:23:06Z</time></trkpt><trkpt lat="44.596421106396484" lon="7.339901357186646"><ele>1371.8</ele><time>2026-05-01T13:23:07Z</time></trkpt><trkpt lat="44.5963733440856" lon="7.339793676447459"><ele>1372.0</ele><time>2026-05-01T13:23:08Z</time></trkpt><trkpt lat="44.59633466966719" lon="7.339690204843953"><ele>1373.6666666666665</ele><time>2026-05-01T13:23:09Z</time></trkpt><trkpt lat="44.596331654099906" lon="7.339574343765771"><ele>1375.3333333333333</ele><time>2026-05-01T13:23:10Z</time></trkpt><trkpt lat="44.59634115489262" lon="7.339457640956711"><ele>1377.0</ele><time>2026-05-01T13:23:11Z</time></trkpt><trkpt lat="44.596347031902596" lon="7.339344022702763"><ele>1378.6666666666667</ele><time>2026-05-01T13:23:12Z</time></trkpt><trkpt lat="44.59634089259806" lon="7.33923674641646"><ele>1380.3333333333335</ele><time>2026-05-01T13:23:13Z</time></trkpt><trkpt lat="44.59632748925075" lon="7.339134381307747"><ele>1382.0</ele><time>2026-05-01T13:23:14Z</time></trkpt><trkpt lat="44.59628908280548" lon="7.339029049545852"><ele>1382.0</ele><time>2026-05-01T13:23:15Z</time></trkpt><trkpt lat="44.59623785779123" lon="7.338915330794037"><ele>1382.0</ele><time>2026-05-01T13:23:16Z</time></trkpt><trkpt lat="44.59619815168562" lon="7.338788198414436"><ele>1382.0</ele><time>2026-05-01T13:23:17Z</time></trkpt><trkpt lat="44.59617975059012" lon="7.3386619443818315"><ele>1382.0</ele><time>2026-05-01T13:23:18Z</time></trkpt><trkpt lat="44.59617675151272" lon="7.3385386771145384"><ele>1382.0</ele><time>2026-05-01T13:23:19Z</time></trkpt><trkpt lat="44.59620471358685" lon="7.33841573494243"><ele>1383.0</ele><time>2026-05-01T13:23:20Z</time></trkpt><trkpt lat="44.596227009933" lon="7.33828993420923"><ele>1384.0</ele><time>2026-05-01T13:23:21Z</time></trkpt><trkpt lat="44.59620298422139" lon="7.338173759712121"><ele>1385.0</ele><time>2026-05-01T13:23:22Z</time></trkpt><trkpt lat="44.5961770075252" lon="7.33803702685572"><ele>1386.0</ele><time>2026-05-01T13:23:23Z</time></trkpt><trkpt lat="44.59614796689587" lon="7.337885794738126"><ele>1387.0</ele><time>2026-05-01T13:23:24Z</time></trkpt><trkpt lat="44.59613313466981" lon="7.337719715428205"><ele>1380.8</ele><time>2026-05-01T13:23:25Z</time></trkpt><trkpt lat="44.596110073353415" lon="7.337561885330241"><ele>1374.6</ele><time>2026-05-01T13:23:26Z</time></trkpt><trkpt lat="44.59608394566609" lon="7.337429517494569"><ele>1368.3999999999999</ele><time>2026-05-01T13:23:27.001Z</time></trkpt><trkpt lat="44.596057152283656" lon="7.337309211720439"><ele>1362.1999999999998</ele><time>2026-05-01T13:23:28.001Z</time></trkpt><trkpt lat="44.596040695119534" lon="7.337196853856687"><ele>1356.0</ele><time>2026-05-01T13:23:29.001Z</time></trkpt><trkpt lat="44.5960246322227" lon="7.337087935513651"><ele>1354.8</ele><time>2026-05-01T13:23:30.001Z</time></trkpt><trkpt lat="44.596021387110135" lon="7.336962744610401"><ele>1353.6</ele><time>2026-05-01T13:23:32.001Z</time></trkpt><trkpt lat="44.59603676041438" lon="7.336856695298079"><ele>1352.4</ele><time>2026-05-01T13:23:34.001Z</time></trkpt><trkpt lat="44.59603035059677" lon="7.336630953974015"><ele>1351.2</ele><time>2026-05-01T13:23:36.001Z</time></trkpt><trkpt lat="44.596089432044344" lon="7.336557101850034"><ele>1350.0</ele><time>2026-05-01T13:23:37.001Z</time></trkpt><trkpt lat="44.596111019185884" lon="7.336445394241125"><ele>1348.0</ele><time>2026-05-01T13:23:39.001Z</time></trkpt><trkpt lat="44.59613239002896" lon="7.33633928347552"><ele>1346.0</ele><time>2026-05-01T13:23:40.001Z</time></trkpt><trkpt lat="44.59617491170424" lon="7.33624231643058"><ele>1344.0</ele><time>2026-05-01T13:23:41.001Z</time></trkpt><trkpt lat="44.596365251006276" lon="7.3361614904493715"><ele>1342.0</ele><time>2026-05-01T13:23:43Z</time></trkpt><trkpt lat="44.59643588943503" lon="7.336169306213718"><ele>1340.0</ele><time>2026-05-01T13:23:44Z</time></trkpt><trkpt lat="44.59649829280449" lon="7.3361214620987205"><ele>1343.3333333333335</ele><time>2026-05-01T13:23:47Z</time></trkpt><trkpt lat="44.596573402675794" lon="7.336112671314544"><ele>1346.6666666666667</ele><time>2026-05-01T13:23:49Z</time></trkpt><trkpt lat="44.59663409303718" lon="7.336049144864019"><ele>1350.0</ele><time>2026-05-01T13:23:51Z</time></trkpt><trkpt lat="44.59668252694056" lon="7.335950940242916"><ele>1353.3333333333333</ele><time>2026-05-01T13:23:53Z</time></trkpt><trkpt lat="44.59673617248454" lon="7.335861856219852"><ele>1356.6666666666665</ele><time>2026-05-01T13:23:55Z</time></trkpt><trkpt lat="44.596812775288676" lon="7.335766325249211"><ele>1360.0</ele><time>2026-05-01T13:23:57Z</time></trkpt><trkpt lat="44.59692298296349" lon="7.33573435347389"><ele>1360.0</ele><time>2026-05-01T13:23:59Z</time></trkpt><trkpt lat="44.59700047073629" lon="7.335733393022073"><ele>1360.0</ele><time>2026-05-01T13:24:00Z</time></trkpt><trkpt lat="44.59710708039033" lon="7.335696083383166"><ele>1360.0</ele><time>2026-05-01T13:24:01Z</time></trkpt><trkpt lat="44.59721042446412" lon="7.335627403103201"><ele>1360.0</ele><time>2026-05-01T13:24:02Z</time></trkpt><trkpt lat="44.59728375934196" lon="7.335473097898844"><ele>1360.0</ele><time>2026-05-01T13:24:03Z</time></trkpt><trkpt lat="44.59736084509247" lon="7.3353599176569455"><ele>1360.8</ele><time>2026-05-01T13:24:04Z</time></trkpt><trkpt lat="44.597416326635525" lon="7.335313266433384"><ele>1361.6</ele><time>2026-05-01T13:24:05Z</time></trkpt><trkpt lat="44.59749312046664" lon="7.3352571460977005"><ele>1362.4</ele><time>2026-05-01T13:24:06Z</time></trkpt><trkpt lat="44.59762032428332" lon="7.3351782512140735"><ele>1363.2</ele><time>2026-05-01T13:24:07Z</time></trkpt><trkpt lat="44.59775724263491" lon="7.335115323374597"><ele>1364.0</ele><time>2026-05-01T13:24:08Z</time></trkpt><trkpt lat="44.5978883740034" lon="7.335046645968754"><ele>1366.25</ele><time>2026-05-01T13:24:09Z</time></trkpt><trkpt lat="44.597999180146644" lon="7.33499371157763"><ele>1368.5</ele><time>2026-05-01T13:24:10Z</time></trkpt><trkpt lat="44.598109887410324" lon="7.3349386460648365"><ele>1370.75</ele><time>2026-05-01T13:24:11Z</time></trkpt><trkpt lat="44.59820690281563" lon="7.334872830872021"><ele>1373.0</ele><time>2026-05-01T13:24:12Z</time></trkpt><trkpt lat="44.59829692033872" lon="7.3347751141174555"><ele>1371.5</ele><time>2026-05-01T13:24:13Z</time></trkpt><trkpt lat="44.59838079570078" lon="7.334674429270793"><ele>1370.0</ele><time>2026-05-01T13:24:14Z</time></trkpt><trkpt lat="44.59847429158012" lon="7.334565423593417"><ele>1368.5</ele><time>2026-05-01T13:24:15Z</time></trkpt><trkpt lat="44.59857348245111" lon="7.334444248294829"><ele>1367.0</ele><time>2026-05-01T13:24:16Z</time></trkpt><trkpt lat="44.59865636254363" lon="7.334322098668731"><ele>1367.8</ele><time>2026-05-01T13:24:17Z</time></trkpt><trkpt lat="44.59872498795484" lon="7.334221465715547"><ele>1368.6</ele><time>2026-05-01T13:24:18Z</time></trkpt><trkpt lat="44.59878197044038" lon="7.334135633916973"><ele>1369.3999999999999</ele><time>2026-05-01T13:24:19Z</time></trkpt><trkpt lat="44.598828685529845" lon="7.334031720692971"><ele>1370.1999999999998</ele><time>2026-05-01T13:24:20Z</time></trkpt><trkpt lat="44.59891071111738" lon="7.333918173193406"><ele>1371.0</ele><time>2026-05-01T13:24:21Z</time></trkpt><trkpt lat="44.59898422080455" lon="7.333777304035676"><ele>1371.0</ele><time>2026-05-01T13:24:22Z</time></trkpt><trkpt lat="44.59904341060303" lon="7.333634437319411"><ele>1371.0</ele><time>2026-05-01T13:24:23Z</time></trkpt><trkpt lat="44.59910516885742" lon="7.333495132519832"><ele>1371.0</ele><time>2026-05-01T13:24:24Z</time></trkpt><trkpt lat="44.599148517410896" lon="7.333407937938434"><ele>1371.0</ele><time>2026-05-01T13:24:25Z</time></trkpt><trkpt lat="44.59919746709769" lon="7.333321813060304"><ele>1371.0</ele><time>2026-05-01T13:24:26Z</time></trkpt><trkpt lat="44.59926664983545" lon="7.333221147154251"><ele>1371.0</ele><time>2026-05-01T13:24:27Z</time></trkpt><trkpt lat="44.59932190404447" lon="7.333161568875122"><ele>1371.0</ele><time>2026-05-01T13:24:28Z</time></trkpt><trkpt lat="44.59943574527981" lon="7.333100298947608"><ele>1371.0</ele><time>2026-05-01T13:24:30Z</time></trkpt><trkpt lat="44.59950647807961" lon="7.333039852198623"><ele>1371.0</ele><time>2026-05-01T13:24:31Z</time></trkpt><trkpt lat="44.59957183204138" lon="7.332977593813413"><ele>1371.0</ele><time>2026-05-01T13:24:32Z</time></trkpt><trkpt lat="44.59962552073815" lon="7.332912607521658"><ele>1371.0</ele><time>2026-05-01T13:24:33Z</time></trkpt><trkpt lat="44.5996896183663" lon="7.332748487737598"><ele>1374.1666666666667</ele><time>2026-05-01T13:24:35Z</time></trkpt><trkpt lat="44.599733108156606" lon="7.33266509214828"><ele>1377.3333333333333</ele><time>2026-05-01T13:24:36Z</time></trkpt><trkpt lat="44.5997821859451" lon="7.3326031410282475"><ele>1380.5</ele><time>2026-05-01T13:24:37Z</time></trkpt><trkpt lat="44.59983987833349" lon="7.33248980596245"><ele>1383.6666666666665</ele><time>2026-05-01T13:24:38Z</time></trkpt><trkpt lat="44.599885371866996" lon="7.3323709795591325"><ele>1386.8333333333333</ele><time>2026-05-01T13:24:39Z</time></trkpt><trkpt lat="44.59992377810645" lon="7.332267199352191"><ele>1390.0</ele><time>2026-05-01T13:24:40Z</time></trkpt><trkpt lat="44.59992404448318" lon="7.332138514729667"><ele>1390.0</ele><time>2026-05-01T13:24:41Z</time></trkpt><trkpt lat="44.59991231277882" lon="7.332024756120914"><ele>1390.0</ele><time>2026-05-01T13:24:42Z</time></trkpt><trkpt lat="44.599902130854545" lon="7.33192326396723"><ele>1390.0</ele><time>2026-05-01T13:24:43Z</time></trkpt><trkpt lat="44.59989177213619" lon="7.331820009595117"><ele>1390.0</ele><time>2026-05-01T13:24:44Z</time></trkpt><trkpt lat="44.599879781476396" lon="7.331709283546094"><ele>1390.0</ele><time>2026-05-01T13:24:45Z</time></trkpt><trkpt lat="44.59986904313513" lon="7.331611166289948"><ele>1390.0</ele><time>2026-05-01T13:24:46Z</time></trkpt><trkpt lat="44.59986175190834" lon="7.3315076958050325"><ele>1390.0</ele><time>2026-05-01T13:24:47Z</time></trkpt><trkpt lat="44.599859044490294" lon="7.331398293836876"><ele>1390.0</ele><time>2026-05-01T13:24:48Z</time></trkpt><trkpt lat="44.59988527206601" lon="7.331304032086199"><ele>1390.0</ele><time>2026-05-01T13:24:49Z</time></trkpt><trkpt lat="44.59992304379934" lon="7.331211753531931"><ele>1390.0</ele><time>2026-05-01T13:24:50Z</time></trkpt><trkpt lat="44.59996382969083" lon="7.331122602374607"><ele>1390.0</ele><time>2026-05-01T13:24:51Z</time></trkpt><trkpt lat="44.60000801197941" lon="7.331033673637441"><ele>1390.0</ele><time>2026-05-01T13:24:52Z</time></trkpt><trkpt lat="44.600053800279795" lon="7.330946016100663"><ele>1388.5</ele><time>2026-05-01T13:24:53Z</time></trkpt><trkpt lat="44.60009817986516" lon="7.330872876040351"><ele>1387.0</ele><time>2026-05-01T13:24:54Z</time></trkpt><trkpt lat="44.60014687942708" lon="7.330796362562968"><ele>1385.5</ele><time>2026-05-01T13:24:55Z</time></trkpt><trkpt lat="44.60020717345273" lon="7.33072696457803"><ele>1384.0</ele><time>2026-05-01T13:24:56Z</time></trkpt><trkpt lat="44.60028530121246" lon="7.330636178587821"><ele>1382.5</ele><time>2026-05-01T13:24:57Z</time></trkpt><trkpt lat="44.60035662811206" lon="7.330527265455144"><ele>1381.0</ele><time>2026-05-01T13:24:58Z</time></trkpt><trkpt lat="44.60043800544702" lon="7.330395933566249"><ele>1381.0</ele><time>2026-05-01T13:24:59Z</time></trkpt><trkpt lat="44.60051309488879" lon="7.330238185164785"><ele>1381.0</ele><time>2026-05-01T13:25:00Z</time></trkpt><trkpt lat="44.60058236877892" lon="7.330110669358111"><ele>1381.0</ele><time>2026-05-01T13:25:01Z</time></trkpt><trkpt lat="44.60064223796097" lon="7.330021814667932"><ele>1381.0</ele><time>2026-05-01T13:25:02Z</time></trkpt><trkpt lat="44.60066655527142" lon="7.32986894874236"><ele>1381.0</ele><time>2026-05-01T13:25:03Z</time></trkpt><trkpt lat="44.60068621094532" lon="7.329727472825108"><ele>1378.6</ele><time>2026-05-01T13:25:04Z</time></trkpt><trkpt lat="44.60075707850548" lon="7.329608406868459"><ele>1376.1999999999998</ele><time>2026-05-01T13:25:06Z</time></trkpt><trkpt lat="44.60083704602676" lon="7.329528007649928"><ele>1373.8000000000002</ele><time>2026-05-01T13:25:07Z</time></trkpt><trkpt lat="44.60090443086791" lon="7.3294285841356395"><ele>1371.4</ele><time>2026-05-01T13:25:08Z</time></trkpt><trkpt lat="44.600986489695195" lon="7.329306551835625"><ele>1369.0</ele><time>2026-05-01T13:25:09Z</time></trkpt><trkpt lat="44.601043105145465" lon="7.329131183881402"><ele>1369.0</ele><time>2026-05-01T13:25:10Z</time></trkpt><trkpt lat="44.60109374016325" lon="7.328969467540778"><ele>1369.0</ele><time>2026-05-01T13:25:11Z</time></trkpt><trkpt lat="44.601140633113616" lon="7.328831164264537"><ele>1369.0</ele><time>2026-05-01T13:25:12Z</time></trkpt><trkpt lat="44.60117065459968" lon="7.328733843921842"><ele>1369.0</ele><time>2026-05-01T13:25:13Z</time></trkpt><trkpt lat="44.60113728448773" lon="7.3285593877654405"><ele>1369.0</ele><time>2026-05-01T13:25:15Z</time></trkpt><trkpt lat="44.60107673954872" lon="7.32847236045862"><ele>1367.8000000000002</ele><time>2026-05-01T13:25:16Z</time></trkpt><trkpt lat="44.60103016346198" lon="7.328386008139699"><ele>1366.6000000000001</ele><time>2026-05-01T13:25:17Z</time></trkpt><trkpt lat="44.60098422012469" lon="7.328294548088952"><ele>1365.4</ele><time>2026-05-01T13:25:19Z</time></trkpt><trkpt lat="44.60091307086245" lon="7.3281609118121755"><ele>1364.2</ele><time>2026-05-01T13:25:21Z</time></trkpt><trkpt lat="44.60088935713596" lon="7.32797611328702"><ele>1363.0</ele><time>2026-05-01T13:25:23Z</time></trkpt><trkpt lat="44.60094497503661" lon="7.3277849578178476"><ele>1362.25</ele><time>2026-05-01T13:25:24Z</time></trkpt><trkpt lat="44.601024953628944" lon="7.3276030011363495"><ele>1361.5</ele><time>2026-05-01T13:25:25Z</time></trkpt><trkpt lat="44.601092693176" lon="7.32746674090189"><ele>1360.75</ele><time>2026-05-01T13:25:26Z</time></trkpt><trkpt lat="44.60118260619818" lon="7.327317173018904"><ele>1360.0</ele><time>2026-05-01T13:25:27Z</time></trkpt><trkpt lat="44.601262543415075" lon="7.327180162184176"><ele>1361.8</ele><time>2026-05-01T13:25:28Z</time></trkpt><trkpt lat="44.60132485966149" lon="7.327038609567659"><ele>1363.6</ele><time>2026-05-01T13:25:29Z</time></trkpt><trkpt lat="44.60138714182673" lon="7.326914282860715"><ele>1365.4</ele><time>2026-05-01T13:25:30Z</time></trkpt><trkpt lat="44.60143981530011" lon="7.326786668337083"><ele>1367.2</ele><time>2026-05-01T13:25:31Z</time></trkpt><trkpt lat="44.60149733166591" lon="7.326666774605055"><ele>1369.0</ele><time>2026-05-01T13:25:32Z</time></trkpt><trkpt lat="44.601582519286566" lon="7.326546687571383"><ele>1369.0</ele><time>2026-05-01T13:25:33Z</time></trkpt><trkpt lat="44.60166177110473" lon="7.326428551159216"><ele>1369.0</ele><time>2026-05-01T13:25:34Z</time></trkpt><trkpt lat="44.60173442074515" lon="7.32630265065896"><ele>1369.0</ele><time>2026-05-01T13:25:35Z</time></trkpt><trkpt lat="44.601778896017024" lon="7.326152491780871"><ele>1369.0</ele><time>2026-05-01T13:25:36Z</time></trkpt><trkpt lat="44.60180097145883" lon="7.326003559128984"><ele>1369.8000000000002</ele><time>2026-05-01T13:25:37Z</time></trkpt><trkpt lat="44.60183395580685" lon="7.32591898913286"><ele>1370.6000000000001</ele><time>2026-05-01T13:25:38Z</time></trkpt><trkpt lat="44.601904052139226" lon="7.325828699523484"><ele>1371.4</ele><time>2026-05-01T13:25:39Z</time></trkpt><trkpt lat="44.60199423532407" lon="7.3257297617608135"><ele>1372.2</ele><time>2026-05-01T13:25:40Z</time></trkpt><trkpt lat="44.60207072166951" lon="7.32562853131653"><ele>1373.0</ele><time>2026-05-01T13:25:41Z</time></trkpt><trkpt lat="44.60213201514767" lon="7.325533787960554"><ele>1373.0</ele><time>2026-05-01T13:25:42Z</time></trkpt><trkpt lat="44.602199119333235" lon="7.3254383098733795"><ele>1373.0</ele><time>2026-05-01T13:25:44Z</time></trkpt><trkpt lat="44.602161115249025" lon="7.325287644891195"><ele>1373.0</ele><time>2026-05-01T13:25:45Z</time></trkpt><trkpt lat="44.60213948510968" lon="7.3251876946990775"><ele>1373.0</ele><time>2026-05-01T13:25:46Z</time></trkpt><trkpt lat="44.60211466734091" lon="7.325093577268193"><ele>1373.0</ele><time>2026-05-01T13:25:47Z</time></trkpt><trkpt lat="44.60206852831348" lon="7.324995723871784"><ele>1373.0</ele><time>2026-05-01T13:25:48Z</time></trkpt><trkpt lat="44.60202803880177" lon="7.32489615925993"><ele>1373.0</ele><time>2026-05-01T13:25:49Z</time></trkpt><trkpt lat="44.601999525233985" lon="7.3247907307288385"><ele>1373.0</ele><time>2026-05-01T13:25:50Z</time></trkpt><trkpt lat="44.6019653572314" lon="7.324710934646428"><ele>1373.0</ele><time>2026-05-01T13:25:51Z</time></trkpt><trkpt lat="44.60198918942916" lon="7.3245499267331855"><ele>1373.0</ele><time>2026-05-01T13:25:53Z</time></trkpt><trkpt lat="44.60206775135375" lon="7.324463724777382"><ele>1373.0</ele><time>2026-05-01T13:25:54Z</time></trkpt><trkpt lat="44.60210148294649" lon="7.324339100751065"><ele>1375.3333333333335</ele><time>2026-05-01T13:25:55Z</time></trkpt><trkpt lat="44.6021251518314" lon="7.324224358126821"><ele>1377.6666666666667</ele><time>2026-05-01T13:25:56Z</time></trkpt><trkpt lat="44.60212796016838" lon="7.324105488334739"><ele>1380.0</ele><time>2026-05-01T13:25:57Z</time></trkpt><trkpt lat="44.60213544563099" lon="7.323978200035054"><ele>1382.3333333333333</ele><time>2026-05-01T13:25:58Z</time></trkpt><trkpt lat="44.602138676264474" lon="7.323872347218039"><ele>1384.6666666666665</ele><time>2026-05-01T13:25:59Z</time></trkpt><trkpt lat="44.60217297365342" lon="7.323772846984014"><ele>1387.0</ele><time>2026-05-01T13:26:00Z</time></trkpt><trkpt lat="44.602214897393296" lon="7.323628230701003"><ele>1387.3333333333333</ele><time>2026-05-01T13:26:02Z</time></trkpt><trkpt lat="44.602246326030304" lon="7.323514938635298"><ele>1387.6666666666665</ele><time>2026-05-01T13:26:03Z</time></trkpt><trkpt lat="44.602269740119574" lon="7.323428835204497"><ele>1388.0</ele><time>2026-05-01T13:26:04Z</time></trkpt><trkpt lat="44.60229254603724" lon="7.323337277879256"><ele>1388.3333333333333</ele><time>2026-05-01T13:26:05Z</time></trkpt><trkpt lat="44.60233016363461" lon="7.3231813596846465"><ele>1388.6666666666667</ele><time>2026-05-01T13:26:07Z</time></trkpt><trkpt lat="44.60235227990569" lon="7.323087929717732"><ele>1389.0</ele><time>2026-05-01T13:26:08Z</time></trkpt><trkpt lat="44.602391894903455" lon="7.322942511853326"><ele>1387.2</ele><time>2026-05-01T13:26:10Z</time></trkpt><trkpt lat="44.602414933581265" lon="7.3228539581848"><ele>1385.4</ele><time>2026-05-01T13:26:11Z</time></trkpt><trkpt lat="44.60246805620744" lon="7.322682690820308"><ele>1383.6</ele><time>2026-05-01T13:26:13Z</time></trkpt><trkpt lat="44.60249259358136" lon="7.322551723545439"><ele>1381.8</ele><time>2026-05-01T13:26:14Z</time></trkpt><trkpt lat="44.602539695792046" lon="7.322411643614706"><ele>1380.0</ele><time>2026-05-01T13:26:15Z</time></trkpt><trkpt lat="44.60259043787271" lon="7.322244145603734"><ele>1377.8</ele><time>2026-05-01T13:26:16Z</time></trkpt><trkpt lat="44.602624216951426" lon="7.322091900348688"><ele>1375.6</ele><time>2026-05-01T13:26:17Z</time></trkpt><trkpt lat="44.60262249872562" lon="7.32192189833434"><ele>1373.4</ele><time>2026-05-01T13:26:18Z</time></trkpt><trkpt lat="44.60262178509358" lon="7.3217800226777845"><ele>1371.2</ele><time>2026-05-01T13:26:19Z</time></trkpt><trkpt lat="44.60263843971982" lon="7.321692119620198"><ele>1369.0</ele><time>2026-05-01T13:26:20Z</time></trkpt><trkpt lat="44.60264747953045" lon="7.321535459640182"><ele>1369.0</ele><time>2026-05-01T13:26:22Z</time></trkpt><trkpt lat="44.60264420518498" lon="7.321444588338616"><ele>1369.0</ele><time>2026-05-01T13:26:23Z</time></trkpt><trkpt lat="44.60267832049385" lon="7.321352225608581"><ele>1369.0</ele><time>2026-05-01T13:26:24Z</time></trkpt><trkpt lat="44.602708914910124" lon="7.321235927954101"><ele>1369.0</ele><time>2026-05-01T13:26:25Z</time></trkpt><trkpt lat="44.602720256387194" lon="7.321113327339424"><ele>1369.0</ele><time>2026-05-01T13:26:26Z</time></trkpt><trkpt lat="44.60271701009055" lon="7.321016699649414"><ele>1369.0</ele><time>2026-05-01T13:26:27Z</time></trkpt><trkpt lat="44.602721017822084" lon="7.3209103359197725"><ele>1369.8333333333333</ele><time>2026-05-01T13:26:28Z</time></trkpt><trkpt lat="44.60271498061816" lon="7.320803729145262"><ele>1370.6666666666665</ele><time>2026-05-01T13:26:29Z</time></trkpt><trkpt lat="44.60268510613363" lon="7.320697975709915"><ele>1371.5</ele><time>2026-05-01T13:26:31Z</time></trkpt><trkpt lat="44.60263829997405" lon="7.320567261806066"><ele>1372.3333333333333</ele><time>2026-05-01T13:26:33Z</time></trkpt><trkpt lat="44.60260367946022" lon="7.320479535300186"><ele>1373.1666666666667</ele><time>2026-05-01T13:26:35Z</time></trkpt><trkpt lat="44.602561000298" lon="7.3204089190955415"><ele>1374.0</ele><time>2026-05-01T13:26:39Z</time></trkpt><trkpt lat="44.60249906543477" lon="7.320316694303825"><ele>1377.8000000000002</ele><time>2026-05-01T13:27:01Z</time></trkpt><trkpt lat="44.60245059582452" lon="7.320249675138374"><ele>1381.6000000000001</ele><time>2026-05-01T13:27:03Z</time></trkpt><trkpt lat="44.60236247999066" lon="7.320140261987642"><ele>1385.4</ele><time>2026-05-01T13:27:05Z</time></trkpt><trkpt lat="44.60230147981441" lon="7.319992307957516"><ele>1389.2</ele><time>2026-05-01T13:27:07Z</time></trkpt><trkpt lat="44.60225681410145" lon="7.319905487870326"><ele>1393.0</ele><time>2026-05-01T13:27:08Z</time></trkpt><trkpt lat="44.60224341145864" lon="7.319756526774485"><ele>1395.3333333333333</ele><time>2026-05-01T13:27:09Z</time></trkpt><trkpt lat="44.60221736334474" lon="7.319626559014636"><ele>1397.6666666666665</ele><time>2026-05-01T13:27:10Z</time></trkpt><trkpt lat="44.602181664335" lon="7.3195289648231645"><ele>1400.0</ele><time>2026-05-01T13:27:11Z</time></trkpt><trkpt lat="44.602155615131814" lon="7.319397193960827"><ele>1402.3333333333333</ele><time>2026-05-01T13:27:12Z</time></trkpt><trkpt lat="44.602140032685554" lon="7.319278839781005"><ele>1404.6666666666667</ele><time>2026-05-01T13:27:13Z</time></trkpt><trkpt lat="44.602136787646145" lon="7.319183104552468"><ele>1407.0</ele><time>2026-05-01T13:27:14Z</time></trkpt><trkpt lat="44.602132388969245" lon="7.3190673223776015"><ele>1407.0</ele><time>2026-05-01T13:27:15Z</time></trkpt><trkpt lat="44.60213337430332" lon="7.31896105502576"><ele>1407.0</ele><time>2026-05-01T13:27:16Z</time></trkpt><trkpt lat="44.602131871010535" lon="7.318841285395584"><ele>1407.0</ele><time>2026-05-01T13:27:17Z</time></trkpt><trkpt lat="44.602109983213644" lon="7.318724198716"><ele>1407.0</ele><time>2026-05-01T13:27:18Z</time></trkpt><trkpt lat="44.60210851638112" lon="7.318612020106116"><ele>1407.0</ele><time>2026-05-01T13:27:19Z</time></trkpt><trkpt lat="44.60210111648517" lon="7.3185234557049075"><ele>1407.0</ele><time>2026-05-01T13:27:20Z</time></trkpt><trkpt lat="44.602067705342215" lon="7.318430703923662"><ele>1407.6</ele><time>2026-05-01T13:27:22Z</time></trkpt><trkpt lat="44.602028950337555" lon="7.31831177613621"><ele>1408.1999999999998</ele><time>2026-05-01T13:27:24Z</time></trkpt><trkpt lat="44.601992333780245" lon="7.318189951396289"><ele>1408.8</ele><time>2026-05-01T13:27:26Z</time></trkpt><trkpt lat="44.60194800884322" lon="7.318034615472579"><ele>1409.4</ele><time>2026-05-01T13:27:28Z</time></trkpt><trkpt lat="44.60191200446212" lon="7.317942355279845"><ele>1410.0</ele><time>2026-05-01T13:27:29Z</time></trkpt><trkpt lat="44.60188598366208" lon="7.317814442651594"><ele>1405.75</ele><time>2026-05-01T13:27:30Z</time></trkpt><trkpt lat="44.60182846481784" lon="7.317668368572194"><ele>1401.5</ele><time>2026-05-01T13:27:31Z</time></trkpt><trkpt lat="44.60176897629497" lon="7.317539918000428"><ele>1397.25</ele><time>2026-05-01T13:27:32Z</time></trkpt><trkpt lat="44.60168947001984" lon="7.3173913631572765"><ele>1393.0</ele><time>2026-05-01T13:27:33Z</time></trkpt><trkpt lat="44.60160684035843" lon="7.317253701541701"><ele>1392.5</ele><time>2026-05-01T13:27:34Z</time></trkpt><trkpt lat="44.601528043404116" lon="7.317144578665853"><ele>1392.0</ele><time>2026-05-01T13:27:35Z</time></trkpt><trkpt lat="44.60145206055367" lon="7.317081352906933"><ele>1391.5</ele><time>2026-05-01T13:27:36Z</time></trkpt><trkpt lat="44.60137659210749" lon="7.3170278017870745"><ele>1391.0</ele><time>2026-05-01T13:27:37.999Z</time></trkpt><trkpt lat="44.601329951832206" lon="7.316951534174812"><ele>1390.5</ele><time>2026-05-01T13:27:40Z</time></trkpt><trkpt lat="44.60128956075754" lon="7.316879505234647"><ele>1390.0</ele><time>2026-05-01T13:27:42Z</time></trkpt><trkpt lat="44.60118904139854" lon="7.316825100074968"><ele>1391.5</ele><time>2026-05-01T13:28:31Z</time></trkpt><trkpt lat="44.60108667625529" lon="7.3167902568663585"><ele>1393.0</ele><time>2026-05-01T13:28:33Z</time></trkpt><trkpt lat="44.60104079443917" lon="7.316647653554119"><ele>1394.5</ele><time>2026-05-01T13:28:35Z</time></trkpt><trkpt lat="44.601045064557866" lon="7.316480142344005"><ele>1396.0</ele><time>2026-05-01T13:28:37Z</time></trkpt><trkpt lat="44.60103680242426" lon="7.316316609094184"><ele>1396.0</ele><time>2026-05-01T13:28:39Z</time></trkpt><trkpt lat="44.60097495082782" lon="7.316170227611693"><ele>1396.0</ele><time>2026-05-01T13:28:41Z</time></trkpt><trkpt lat="44.60093369340952" lon="7.316095348216099"><ele>1396.0</ele><time>2026-05-01T13:28:42Z</time></trkpt><trkpt lat="44.600855137911786" lon="7.315974278955887"><ele>1396.0</ele><time>2026-05-01T13:28:44Z</time></trkpt><trkpt lat="44.600764904543624" lon="7.315852045056148"><ele>1396.0</ele><time>2026-05-01T13:28:46Z</time></trkpt><trkpt lat="44.60067955158428" lon="7.315746362287236"><ele>1396.0</ele><time>2026-05-01T13:28:48Z</time></trkpt><trkpt lat="44.60057971857276" lon="7.315645313496333"><ele>1396.0</ele><time>2026-05-01T13:28:50Z</time></trkpt><trkpt lat="44.60051354195363" lon="7.315579181468236"><ele>1396.0</ele><time>2026-05-01T13:28:52Z</time></trkpt><trkpt lat="44.60045182210718" lon="7.315516993722352"><ele>1396.0</ele><time>2026-05-01T13:28:54Z</time></trkpt><trkpt lat="44.60038039595916" lon="7.31544183089326"><ele>1396.0</ele><time>2026-05-01T13:28:56Z</time></trkpt><trkpt lat="44.6003026131361" lon="7.315339055699979"><ele>1398.8</ele><time>2026-05-01T13:28:58Z</time></trkpt><trkpt lat="44.6002402786191" lon="7.315239457627784"><ele>1401.6</ele><time>2026-05-01T13:29:00Z</time></trkpt><trkpt lat="44.60018623200413" lon="7.315141485885334"><ele>1404.4</ele><time>2026-05-01T13:29:01Z</time></trkpt><trkpt lat="44.60009656707172" lon="7.315053659687999"><ele>1407.2</ele><time>2026-05-01T13:29:02Z</time></trkpt><trkpt lat="44.600043374369434" lon="7.31493412166911"><ele>1410.0</ele><time>2026-05-01T13:29:03Z</time></trkpt><trkpt lat="44.600009353126076" lon="7.314840686973586"><ele>1408.6</ele><time>2026-05-01T13:29:04Z</time></trkpt><trkpt lat="44.60001748505133" lon="7.314734846403183"><ele>1407.2</ele><time>2026-05-01T13:29:05Z</time></trkpt><trkpt lat="44.59997072607229" lon="7.314608961232439"><ele>1405.8000000000002</ele><time>2026-05-01T13:29:07Z</time></trkpt><trkpt lat="44.59993539202533" lon="7.314513834407989"><ele>1404.4</ele><time>2026-05-01T13:29:10Z</time></trkpt><trkpt lat="44.59985611588257" lon="7.314338293152204"><ele>1403.0</ele><time>2026-05-01T13:29:12Z</time></trkpt><trkpt lat="44.599820941132585" lon="7.314244583212822"><ele>1403.0</ele><time>2026-05-01T13:29:13Z</time></trkpt><trkpt lat="44.59981919267288" lon="7.314142014366384"><ele>1403.0</ele><time>2026-05-01T13:29:14Z</time></trkpt><trkpt lat="44.59977132293381" lon="7.313977735036056"><ele>1403.0</ele><time>2026-05-01T13:29:16Z</time></trkpt><trkpt lat="44.59975274350087" lon="7.313891327263434"><ele>1403.0</ele><time>2026-05-01T13:29:17Z</time></trkpt><trkpt lat="44.59969096746993" lon="7.313801486572169"><ele>1403.0</ele><time>2026-05-01T13:29:19Z</time></trkpt><trkpt lat="44.59965362300768" lon="7.313684474161733"><ele>1403.0</ele><time>2026-05-01T13:29:23Z</time></trkpt><trkpt lat="44.599606961769275" lon="7.313619135381842"><ele>1404.6666666666667</ele><time>2026-05-01T13:29:33.999Z</time></trkpt><trkpt lat="44.59954496399974" lon="7.313524044397937"><ele>1406.3333333333335</ele><time>2026-05-01T13:29:35.999Z</time></trkpt><trkpt lat="44.59951450749831" lon="7.3134295285020485"><ele>1408.0</ele><time>2026-05-01T13:29:36.999Z</time></trkpt><trkpt lat="44.59946024152819" lon="7.313348961526577"><ele>1409.6666666666667</ele><time>2026-05-01T13:29:37.999Z</time></trkpt><trkpt lat="44.59940664269855" lon="7.313280744289146"><ele>1411.3333333333333</ele><time>2026-05-01T13:29:38.999Z</time></trkpt><trkpt lat="44.59935185096729" lon="7.3132195896129355"><ele>1413.0</ele><time>2026-05-01T13:29:39.999Z</time></trkpt><trkpt lat="44.59929568143808" lon="7.3131654147460425"><ele>1413.8333333333333</ele><time>2026-05-01T13:29:40.999Z</time></trkpt><trkpt lat="44.5992405509484" lon="7.313118475765923"><ele>1414.6666666666667</ele><time>2026-05-01T13:29:41.999Z</time></trkpt><trkpt lat="44.59918245234459" lon="7.313080892068159"><ele>1415.5</ele><time>2026-05-01T13:29:42.999Z</time></trkpt><trkpt lat="44.59913237789581" lon="7.31301939844459"><ele>1416.3333333333335</ele><time>2026-05-01T13:29:43.999Z</time></trkpt><trkpt lat="44.59905420640496" lon="7.313019642316853"><ele>1417.1666666666667</ele><time>2026-05-01T13:29:46Z</time></trkpt><trkpt lat="44.598958513927165" lon="7.313015090709103"><ele>1418.0</ele><time>2026-05-01T13:29:57Z</time></trkpt><trkpt lat="44.598866196609926" lon="7.312998518808167"><ele>1422.0</ele><time>2026-05-01T13:29:59Z</time></trkpt><trkpt lat="44.598767353326544" lon="7.312976637210964"><ele>1426.0</ele><time>2026-05-01T13:30:01Z</time></trkpt><trkpt lat="44.59867639398311" lon="7.312965980526808"><ele>1430.0</ele><time>2026-05-01T13:30:03Z</time></trkpt><trkpt lat="44.598610063058715" lon="7.312941264344144"><ele>1434.0</ele><time>2026-05-01T13:30:05Z</time></trkpt><trkpt lat="44.59852560082301" lon="7.3129178298588835"><ele>1438.0</ele><time>2026-05-01T13:30:07Z</time></trkpt><trkpt lat="44.598467801186956" lon="7.312865539605343"><ele>1442.0</ele><time>2026-05-01T13:30:09Z</time></trkpt><trkpt lat="44.598388159865586" lon="7.312890889870896"><ele>1442.0</ele><time>2026-05-01T13:30:10Z</time></trkpt><trkpt lat="44.59827229918501" lon="7.31295839257602"><ele>1442.0</ele><time>2026-05-01T13:30:12Z</time></trkpt><trkpt lat="44.5981917368669" lon="7.3129271102961395"><ele>1442.0</ele><time>2026-05-01T13:30:14Z</time></trkpt><trkpt lat="44.59809857449996" lon="7.312868705139831"><ele>1442.0</ele><time>2026-05-01T13:30:16Z</time></trkpt><trkpt lat="44.59800031971364" lon="7.312832330095067"><ele>1442.0</ele><time>2026-05-01T13:30:18Z</time></trkpt><trkpt lat="44.597937281258524" lon="7.312803765915969"><ele>1442.0</ele><time>2026-05-01T13:30:20Z</time></trkpt><trkpt lat="44.5978727544467" lon="7.312774261453711"><ele>1442.0</ele><time>2026-05-01T13:30:22Z</time></trkpt><trkpt lat="44.59777103285451" lon="7.312793898644681"><ele>1442.0</ele><time>2026-05-01T13:30:24Z</time></trkpt><trkpt lat="44.597707562249056" lon="7.312782736384776"><ele>1442.0</ele><time>2026-05-01T13:30:25Z</time></trkpt><trkpt lat="44.59764283329115" lon="7.3127646340117245"><ele>1442.0</ele><time>2026-05-01T13:30:26Z</time></trkpt><trkpt lat="44.5975493207215" lon="7.31269611679358"><ele>1442.0</ele><time>2026-05-01T13:30:28Z</time></trkpt><trkpt lat="44.597456342431435" lon="7.312685390921486"><ele>1436.3999999999999</ele><time>2026-05-01T13:30:30Z</time></trkpt><trkpt lat="44.59735280530845" lon="7.312700441336346"><ele>1430.8</ele><time>2026-05-01T13:30:32Z</time></trkpt><trkpt lat="44.597232712558046" lon="7.312694054255075"><ele>1425.2</ele><time>2026-05-01T13:30:34Z</time></trkpt><trkpt lat="44.597143850435835" lon="7.3126612629247925"><ele>1419.6</ele><time>2026-05-01T13:30:36Z</time></trkpt><trkpt lat="44.59709806563226" lon="7.312566784622101"><ele>1414.0</ele><time>2026-05-01T13:30:39Z</time></trkpt><trkpt lat="44.59709894705668" lon="7.3124763063285645"><ele>1414.0</ele><time>2026-05-01T13:30:41Z</time></trkpt><trkpt lat="44.59707607081706" lon="7.312375245943988"><ele>1414.0</ele><time>2026-05-01T13:30:42Z</time></trkpt><trkpt lat="44.59705415995506" lon="7.312228409792033"><ele>1414.0</ele><time>2026-05-01T13:30:44Z</time></trkpt><trkpt lat="44.59700758639426" lon="7.312094728330102"><ele>1414.0</ele><time>2026-05-01T13:30:46Z</time></trkpt><trkpt lat="44.59698775621732" lon="7.311990404603217"><ele>1414.0</ele><time>2026-05-01T13:30:49Z</time></trkpt><trkpt lat="44.596947883501144" lon="7.3118763347081135"><ele>1414.6666666666665</ele><time>2026-05-01T13:31:09Z</time></trkpt><trkpt lat="44.59696406824294" lon="7.311776256763429"><ele>1415.3333333333333</ele><time>2026-05-01T13:32:08Z</time></trkpt><trkpt lat="44.59698163544226" lon="7.3116708878688526"><ele>1416.0</ele><time>2026-05-01T13:32:20Z</time></trkpt><trkpt lat="44.597002095474366" lon="7.311576065961407"><ele>1416.6666666666667</ele><time>2026-05-01T13:32:23Z</time></trkpt><trkpt lat="44.597011589904156" lon="7.3114805667947245"><ele>1417.3333333333335</ele><time>2026-05-01T13:32:25Z</time></trkpt><trkpt lat="44.59702492396884" lon="7.311365733501922"><ele>1418.0</ele><time>2026-05-01T13:32:27Z</time></trkpt><trkpt lat="44.59702713729058" lon="7.311218030661386"><ele>1418.0</ele><time>2026-05-01T13:32:29Z</time></trkpt><trkpt lat="44.597039687562116" lon="7.311129490081509"><ele>1418.0</ele><time>2026-05-01T13:32:30Z</time></trkpt><trkpt lat="44.59704212788911" lon="7.311038448968614"><ele>1418.0</ele><time>2026-05-01T13:32:31Z</time></trkpt><trkpt lat="44.59704943797774" lon="7.310879247538957"><ele>1418.0</ele><time>2026-05-01T13:32:33Z</time></trkpt><trkpt lat="44.59706827927721" lon="7.310770022563503"><ele>1418.0</ele><time>2026-05-01T13:32:35Z</time></trkpt><trkpt lat="44.59707284914537" lon="7.310675343299182"><ele>1418.0</ele><time>2026-05-01T13:32:38Z</time></trkpt><trkpt lat="44.59708704112785" lon="7.310579918145371"><ele>1418.0</ele><time>2026-05-01T13:32:41Z</time></trkpt><trkpt lat="44.597088304623064" lon="7.310487541233974"><ele>1418.0</ele><time>2026-05-01T13:32:55Z</time></trkpt><trkpt lat="44.59709084124495" lon="7.310392791679266"><ele>1418.0</ele><time>2026-05-01T13:33:01Z</time></trkpt><trkpt lat="44.597063677350036" lon="7.310497266792757"><ele>1418.0</ele><time>2026-05-01T13:36:04Z</time></trkpt><trkpt lat="44.59705504722691" lon="7.310614348412056"><ele>1418.0</ele><time>2026-05-01T13:36:06Z</time></trkpt><trkpt lat="44.597053647599786" lon="7.3107213088026155"><ele>1418.0</ele><time>2026-05-01T13:36:08Z</time></trkpt><trkpt lat="44.597055671975994" lon="7.310834517558134"><ele>1418.0</ele><time>2026-05-01T13:36:10Z</time></trkpt><trkpt lat="44.59706178797596" lon="7.310962356060187"><ele>1418.0</ele><time>2026-05-01T13:36:12Z</time></trkpt><trkpt lat="44.59706572520848" lon="7.3110741307675235"><ele>1418.0</ele><time>2026-05-01T13:36:14Z</time></trkpt><trkpt lat="44.59706379695465" lon="7.3112007448797725"><ele>1418.0</ele><time>2026-05-01T13:36:16Z</time></trkpt><trkpt lat="44.59705632826636" lon="7.311374250577516"><ele>1418.0</ele><time>2026-05-01T13:36:18Z</time></trkpt><trkpt lat="44.59703158961012" lon="7.311522005224508"><ele>1419.0</ele><time>2026-05-01T13:36:20Z</time></trkpt><trkpt lat="44.597019421057624" lon="7.311620871311269"><ele>1420.0</ele><time>2026-05-01T13:36:22Z</time></trkpt><trkpt lat="44.59698680665637" lon="7.311753098691494"><ele>1421.0</ele><time>2026-05-01T13:36:25Z</time></trkpt><trkpt lat="44.59696069413923" lon="7.311847753429764"><ele>1422.0</ele><time>2026-05-01T13:36:30Z</time></trkpt><trkpt lat="44.59694343889004" lon="7.311959379954835"><ele>1423.0</ele><time>2026-05-01T13:36:32Z</time></trkpt><trkpt lat="44.59691329461779" lon="7.31205768084629"><ele>1424.0</ele><time>2026-05-01T13:36:55Z</time></trkpt><trkpt lat="44.59687468038601" lon="7.312137115018255"><ele>1418.142857142857</ele><time>2026-05-01T13:36:58Z</time></trkpt><trkpt lat="44.59683421081246" lon="7.312206113024088"><ele>1412.2857142857142</ele><time>2026-05-01T13:37:01Z</time></trkpt><trkpt lat="44.59679133873246" lon="7.3122786654452305"><ele>1406.4285714285716</ele><time>2026-05-01T13:37:04Z</time></trkpt><trkpt lat="44.59673885660918" lon="7.312338499762943"><ele>1400.5714285714284</ele><time>2026-05-01T13:37:06Z</time></trkpt><trkpt lat="44.59668579962195" lon="7.312392076266414"><ele>1394.7142857142858</ele><time>2026-05-01T13:37:08Z</time></trkpt><trkpt lat="44.59663531306921" lon="7.312446525548915"><ele>1388.857142857143</ele><time>2026-05-01T13:37:11Z</time></trkpt><trkpt lat="44.59657856545734" lon="7.312510961774462"><ele>1383.0</ele><time>2026-05-01T13:37:14Z</time></trkpt><trkpt lat="44.59653281482878" lon="7.312594099470041"><ele>1383.0</ele><time>2026-05-01T13:37:23Z</time></trkpt><trkpt lat="44.59648056396973" lon="7.312664948690125"><ele>1383.0</ele><time>2026-05-01T13:37:38.999Z</time></trkpt></trkseg><trkseg><trkpt lat="44.59649331402965" lon="7.312554543140735"><ele>1383.0</ele><time>2026-05-01T14:12:08.939Z</time></trkpt><trkpt lat="44.59646802457465" lon="7.3126423168454195"><ele>1383.0</ele><time>2026-05-01T14:12:21.999Z</time></trkpt><trkpt lat="44.596503482050274" lon="7.31256576161821"><ele>1383.0</ele><time>2026-05-01T14:13:18.999Z</time></trkpt><trkpt lat="44.59653006411257" lon="7.312458798095083"><ele>1383.0</ele><time>2026-05-01T14:13:21.999Z</time></trkpt><trkpt lat="44.59658820086029" lon="7.312414059813235"><ele>1383.0</ele><time>2026-05-01T14:13:22.999Z</time></trkpt><trkpt lat="44.59668561750088" lon="7.31234017459254"><ele>1383.0</ele><time>2026-05-01T14:13:24.999Z</time></trkpt><trkpt lat="44.59676952683337" lon="7.312296353124508"><ele>1383.0</ele><time>2026-05-01T14:13:26.999Z</time></trkpt><trkpt lat="44.59682151051173" lon="7.312243010884115"><ele>1383.0</ele><time>2026-05-01T14:13:28.999Z</time></trkpt><trkpt lat="44.596873932733246" lon="7.312172257980129"><ele>1383.0</ele><time>2026-05-01T14:13:30.999Z</time></trkpt><trkpt lat="44.596930335307455" lon="7.312067257670032"><ele>1383.0</ele><time>2026-05-01T14:13:32.999Z</time></trkpt><trkpt lat="44.59699875354446" lon="7.312113421032395"><ele>1383.0</ele><time>2026-05-01T14:13:35.999Z</time></trkpt><trkpt lat="44.596965953481146" lon="7.312222025085393"><ele>1383.0</ele><time>2026-05-01T14:13:37.999Z</time></trkpt><trkpt lat="44.5969726027751" lon="7.3123352075115475"><ele>1383.0</ele><time>2026-05-01T14:13:39.999Z</time></trkpt><trkpt lat="44.596990313966494" lon="7.312474438550365"><ele>1383.0</ele><time>2026-05-01T14:13:41.999Z</time></trkpt><trkpt lat="44.59700168991265" lon="7.312591518878582"><ele>1383.0</ele><time>2026-05-01T14:13:43.999Z</time></trkpt><trkpt lat="44.597051367437444" lon="7.312675877470369"><ele>1383.0</ele><time>2026-05-01T14:13:45.999Z</time></trkpt><trkpt lat="44.5971402926364" lon="7.3127397376696175"><ele>1383.0</ele><time>2026-05-01T14:13:47.999Z</time></trkpt><trkpt lat="44.597234473571106" lon="7.31274920906046"><ele>1388.1666666666667</ele><time>2026-05-01T14:13:49.999Z</time></trkpt><trkpt lat="44.597336530918" lon="7.312742125982387"><ele>1393.3333333333333</ele><time>2026-05-01T14:13:51.999Z</time></trkpt><trkpt lat="44.59741031431484" lon="7.312735753168081"><ele>1398.5</ele><time>2026-05-01T14:13:53.999Z</time></trkpt><trkpt lat="44.59749630780086" lon="7.312787553253334"><ele>1403.6666666666665</ele><time>2026-05-01T14:13:55.999Z</time></trkpt><trkpt lat="44.59756761226128" lon="7.312828457522041"><ele>1408.8333333333333</ele><time>2026-05-01T14:13:57.999Z</time></trkpt><trkpt lat="44.59763684159608" lon="7.312830144512064"><ele>1414.0</ele><time>2026-05-01T14:13:59.999Z</time></trkpt><trkpt lat="44.59771832296898" lon="7.312862059926357"><ele>1414.0</ele><time>2026-05-01T14:14:01.999Z</time></trkpt><trkpt lat="44.59783192516317" lon="7.312851165765182"><ele>1414.0</ele><time>2026-05-01T14:14:03.999Z</time></trkpt><trkpt lat="44.59792752912492" lon="7.3128783244372"><ele>1414.0</ele><time>2026-05-01T14:14:05.999Z</time></trkpt><trkpt lat="44.59802896530456" lon="7.312969487646871"><ele>1414.0</ele><time>2026-05-01T14:14:07.999Z</time></trkpt><trkpt lat="44.59809108712025" lon="7.313038645157382"><ele>1414.0</ele><time>2026-05-01T14:14:09.999Z</time></trkpt><trkpt lat="44.598190341278475" lon="7.3130230411667005"><ele>1418.6666666666665</ele><time>2026-05-01T14:14:11.999Z</time></trkpt><trkpt lat="44.598274385179145" lon="7.313003979711596"><ele>1423.3333333333333</ele><time>2026-05-01T14:14:14Z</time></trkpt><trkpt lat="44.59835433937825" lon="7.3129638465666815"><ele>1428.0</ele><time>2026-05-01T14:14:16Z</time></trkpt><trkpt lat="44.59842930103407" lon="7.3129674557029904"><ele>1432.6666666666667</ele><time>2026-05-01T14:14:18Z</time></trkpt><trkpt lat="44.59851536717906" lon="7.312997169221658"><ele>1437.3333333333335</ele><time>2026-05-01T14:14:20Z</time></trkpt><trkpt lat="44.59861196028637" lon="7.313005303739687"><ele>1442.0</ele><time>2026-05-01T14:14:22Z</time></trkpt><trkpt lat="44.59871842540743" lon="7.3129958333843135"><ele>1445.1999999999998</ele><time>2026-05-01T14:14:24Z</time></trkpt><trkpt lat="44.59883325878874" lon="7.313018186812012"><ele>1448.4</ele><time>2026-05-01T14:14:26Z</time></trkpt><trkpt lat="44.59892750530482" lon="7.313026751444857"><ele>1451.6</ele><time>2026-05-01T14:14:28Z</time></trkpt><trkpt lat="44.59905353213973" lon="7.31305998880132"><ele>1454.8000000000002</ele><time>2026-05-01T14:14:30Z</time></trkpt><trkpt lat="44.599127816374384" lon="7.313069400989619"><ele>1458.0</ele><time>2026-05-01T14:14:31Z</time></trkpt><trkpt lat="44.59919059449672" lon="7.313135938838234"><ele>1450.0</ele><time>2026-05-01T14:14:32Z</time></trkpt><trkpt lat="44.599301640227495" lon="7.3132113422019795"><ele>1442.0</ele><time>2026-05-01T14:14:34Z</time></trkpt><trkpt lat="44.59934902817173" lon="7.313277621935894"><ele>1434.0</ele><time>2026-05-01T14:14:35Z</time></trkpt><trkpt lat="44.599402793276425" lon="7.313367849506318"><ele>1426.0</ele><time>2026-05-01T14:14:37Z</time></trkpt><trkpt lat="44.59948136905736" lon="7.313467078088967"><ele>1418.0</ele><time>2026-05-01T14:14:39Z</time></trkpt><trkpt lat="44.59954641318733" lon="7.313528400269735"><ele>1417.1666666666667</ele><time>2026-05-01T14:14:41Z</time></trkpt><trkpt lat="44.59957920900516" lon="7.313621416129791"><ele>1416.3333333333335</ele><time>2026-05-01T14:14:43Z</time></trkpt><trkpt lat="44.59961819500892" lon="7.313703868885113"><ele>1415.5</ele><time>2026-05-01T14:14:45Z</time></trkpt><trkpt lat="44.59965749350886" lon="7.313782886306443"><ele>1414.6666666666667</ele><time>2026-05-01T14:14:47Z</time></trkpt><trkpt lat="44.59970535216611" lon="7.313875070840391"><ele>1413.8333333333333</ele><time>2026-05-01T14:14:51Z</time></trkpt><trkpt lat="44.599748028718764" lon="7.313983730754122"><ele>1413.0</ele><time>2026-05-01T14:14:54Z</time></trkpt><trkpt lat="44.599786836520984" lon="7.314060323060811"><ele>1411.0</ele><time>2026-05-01T14:14:56Z</time></trkpt><trkpt lat="44.59979802157802" lon="7.3141545810023185"><ele>1409.0</ele><time>2026-05-01T14:14:59Z</time></trkpt><trkpt lat="44.599813127093896" lon="7.3142753252154"><ele>1407.0</ele><time>2026-05-01T14:17:05Z</time></trkpt><trkpt lat="44.59983741837637" lon="7.314386280753732"><ele>1405.0</ele><time>2026-05-01T14:17:07Z</time></trkpt><trkpt lat="44.5998807579494" lon="7.314498094125938"><ele>1403.0</ele><time>2026-05-01T14:17:09Z</time></trkpt><trkpt lat="44.59994944103572" lon="7.314649977652055"><ele>1404.1666666666667</ele><time>2026-05-01T14:17:11Z</time></trkpt><trkpt lat="44.59998127761291" lon="7.314743774041616"><ele>1405.3333333333335</ele><time>2026-05-01T14:17:11.999Z</time></trkpt><trkpt lat="44.60000668773119" lon="7.3148308646585685"><ele>1406.5</ele><time>2026-05-01T14:17:12.999Z</time></trkpt><trkpt lat="44.600068930319225" lon="7.3149771369630665"><ele>1407.6666666666667</ele><time>2026-05-01T14:17:14.999Z</time></trkpt><trkpt lat="44.60012828857405" lon="7.315112574199552"><ele>1408.8333333333333</ele><time>2026-05-01T14:17:16.999Z</time></trkpt><trkpt lat="44.6001702215434" lon="7.3151967908139035"><ele>1410.0</ele><time>2026-05-01T14:17:17.999Z</time></trkpt><trkpt lat="44.60024372442052" lon="7.31532288957544"><ele>1410.0</ele><time>2026-05-01T14:17:19.999Z</time></trkpt><trkpt lat="44.600285045571084" lon="7.31538962612902"><ele>1410.0</ele><time>2026-05-01T14:17:20.999Z</time></trkpt><trkpt lat="44.60037395481687" lon="7.315487642785656"><ele>1410.0</ele><time>2026-05-01T14:17:22.999Z</time></trkpt><trkpt lat="44.60046086763835" lon="7.315585103049482"><ele>1410.0</ele><time>2026-05-01T14:17:24.999Z</time></trkpt><trkpt lat="44.60052979619349" lon="7.31565572750017"><ele>1410.0</ele><time>2026-05-01T14:17:26.999Z</time></trkpt><trkpt lat="44.60059395242303" lon="7.315709044818442"><ele>1410.0</ele><time>2026-05-01T14:17:28.999Z</time></trkpt><trkpt lat="44.60064350586225" lon="7.315773699982124"><ele>1407.6666666666667</ele><time>2026-05-01T14:17:30.999Z</time></trkpt><trkpt lat="44.60070517755407" lon="7.315850190830363"><ele>1405.3333333333333</ele><time>2026-05-01T14:17:32.999Z</time></trkpt><trkpt lat="44.600766334052786" lon="7.315920489393235"><ele>1403.0</ele><time>2026-05-01T14:17:34.999Z</time></trkpt><trkpt lat="44.60082131969359" lon="7.315989862552696"><ele>1400.6666666666665</ele><time>2026-05-01T14:17:36.999Z</time></trkpt><trkpt lat="44.600873432588514" lon="7.316076490502715"><ele>1398.3333333333333</ele><time>2026-05-01T14:17:38.999Z</time></trkpt><trkpt lat="44.60093005897618" lon="7.316158938479154"><ele>1396.0</ele><time>2026-05-01T14:17:40.999Z</time></trkpt><trkpt lat="44.60097862230384" lon="7.316238628256714"><ele>1396.0</ele><time>2026-05-01T14:17:42.999Z</time></trkpt><trkpt lat="44.60103204769604" lon="7.316322351704819"><ele>1396.0</ele><time>2026-05-01T14:17:44.999Z</time></trkpt><trkpt lat="44.60104840128155" lon="7.3164350195053744"><ele>1396.0</ele><time>2026-05-01T14:17:46.999Z</time></trkpt><trkpt lat="44.601062184859245" lon="7.316554210015325"><ele>1396.0</ele><time>2026-05-01T14:17:48.999Z</time></trkpt><trkpt lat="44.60105406683665" lon="7.3166739633072355"><ele>1396.0</ele><time>2026-05-01T14:17:50.999Z</time></trkpt><trkpt lat="44.60109499146759" lon="7.316763858835005"><ele>1396.0</ele><time>2026-05-01T14:17:52.999Z</time></trkpt><trkpt lat="44.601172653470854" lon="7.316803069997558"><ele>1395.0</ele><time>2026-05-01T14:17:54.999Z</time></trkpt><trkpt lat="44.601245613178634" lon="7.31682343542154"><ele>1394.0</ele><time>2026-05-01T14:17:56.999Z</time></trkpt><trkpt lat="44.60131104069707" lon="7.316818060820435"><ele>1393.0</ele><time>2026-05-01T14:17:59.999Z</time></trkpt><trkpt lat="44.60141890943637" lon="7.3168381104721885"><ele>1392.0</ele><time>2026-05-01T14:18:09.999Z</time></trkpt><trkpt lat="44.601501617784415" lon="7.316855661519688"><ele>1391.0</ele><time>2026-05-01T14:18:11.999Z</time></trkpt><trkpt lat="44.601597276128366" lon="7.316884264141444"><ele>1390.0</ele><time>2026-05-01T14:18:13.999Z</time></trkpt><trkpt lat="44.601664490670544" lon="7.316933093570937"><ele>1390.0</ele><time>2026-05-01T14:18:15.999Z</time></trkpt><trkpt lat="44.60172460310244" lon="7.317024871079097"><ele>1390.0</ele><time>2026-05-01T14:18:17.999Z</time></trkpt><trkpt lat="44.60180323327667" lon="7.317110458722161"><ele>1390.0</ele><time>2026-05-01T14:18:19.999Z</time></trkpt><trkpt lat="44.601885115837575" lon="7.317204034766943"><ele>1390.0</ele><time>2026-05-01T14:18:21.999Z</time></trkpt><trkpt lat="44.60196551778739" lon="7.317283294939157"><ele>1390.0</ele><time>2026-05-01T14:18:23.999Z</time></trkpt><trkpt lat="44.60205158172024" lon="7.317347492285362"><ele>1392.3333333333333</ele><time>2026-05-01T14:18:26Z</time></trkpt><trkpt lat="44.60210891051134" lon="7.317420661069181"><ele>1394.6666666666665</ele><time>2026-05-01T14:18:28Z</time></trkpt><trkpt lat="44.60216112221763" lon="7.3174782300433305"><ele>1397.0</ele><time>2026-05-01T14:18:45Z</time></trkpt><trkpt lat="44.602221466921826" lon="7.317554569186392"><ele>1399.3333333333333</ele><time>2026-05-01T14:18:47Z</time></trkpt><trkpt lat="44.60228593331001" lon="7.317591027005497"><ele>1401.6666666666667</ele><time>2026-05-01T14:18:49Z</time></trkpt><trkpt lat="44.60235613417873" lon="7.317688385019207"><ele>1404.0</ele><time>2026-05-01T14:18:51Z</time></trkpt><trkpt lat="44.60241908273948" lon="7.317781662129102"><ele>1404.0</ele><time>2026-05-01T14:18:53Z</time></trkpt><trkpt lat="44.60247460048615" lon="7.317877702932663"><ele>1404.0</ele><time>2026-05-01T14:19:11Z</time></trkpt><trkpt lat="44.602535200715614" lon="7.317960766199879"><ele>1404.0</ele><time>2026-05-01T14:19:13Z</time></trkpt><trkpt lat="44.602595246758526" lon="7.318051205608983"><ele>1404.0</ele><time>2026-05-01T14:19:15Z</time></trkpt><trkpt lat="44.60265514604359" lon="7.318154557856998"><ele>1404.0</ele><time>2026-05-01T14:19:17Z</time></trkpt><trkpt lat="44.60271998298373" lon="7.318266190752955"><ele>1405.2</ele><time>2026-05-01T14:19:19Z</time></trkpt><trkpt lat="44.602764432212396" lon="7.318390875789798"><ele>1406.4</ele><time>2026-05-01T14:19:21Z</time></trkpt><trkpt lat="44.602798121449936" lon="7.3185337360600995"><ele>1407.6</ele><time>2026-05-01T14:19:22.999Z</time></trkpt><trkpt lat="44.602879887780766" lon="7.31863697214499"><ele>1408.8</ele><time>2026-05-01T14:19:24.999Z</time></trkpt><trkpt lat="44.60293578862824" lon="7.318711602475667"><ele>1410.0</ele><time>2026-05-01T14:19:26.999Z</time></trkpt><trkpt lat="44.602992974324074" lon="7.318769306827138"><ele>1410.0</ele><time>2026-05-01T14:19:47.999Z</time></trkpt><trkpt lat="44.60306234340673" lon="7.318864010871517"><ele>1410.0</ele><time>2026-05-01T14:19:49.999Z</time></trkpt><trkpt lat="44.60311075334239" lon="7.318983074232747"><ele>1410.0</ele><time>2026-05-01T14:19:51.999Z</time></trkpt><trkpt lat="44.60317530852993" lon="7.319049073503371"><ele>1410.0</ele><time>2026-05-01T14:19:53.999Z</time></trkpt><trkpt lat="44.6032305830143" lon="7.319110975055451"><ele>1410.0</ele><time>2026-05-01T14:19:55.999Z</time></trkpt><trkpt lat="44.60326408025883" lon="7.319205330322999"><ele>1410.0</ele><time>2026-05-01T14:19:57.999Z</time></trkpt><trkpt lat="44.603307578182864" lon="7.319322463812586"><ele>1410.1666666666667</ele><time>2026-05-01T14:19:59.999Z</time></trkpt><trkpt lat="44.60336159689677" lon="7.319379989999876"><ele>1410.3333333333333</ele><time>2026-05-01T14:20:02.999Z</time></trkpt><trkpt lat="44.60343667476003" lon="7.319459008557295"><ele>1410.5</ele><time>2026-05-01T14:20:05.999Z</time></trkpt><trkpt lat="44.603500149121125" lon="7.319552310999436"><ele>1410.6666666666665</ele><time>2026-05-01T14:20:07.999Z</time></trkpt><trkpt lat="44.60355070092268" lon="7.319670118731444"><ele>1410.8333333333333</ele><time>2026-05-01T14:20:09.999Z</time></trkpt><trkpt lat="44.60360913720069" lon="7.319728170935348"><ele>1411.0</ele><time>2026-05-01T14:20:11.999Z</time></trkpt><trkpt lat="44.603686089421394" lon="7.319756027560629"><ele>1411.0000000000002</ele><time>2026-05-01T14:20:13.999Z</time></trkpt><trkpt lat="44.60375956173233" lon="7.319789247026163"><ele>1411.0</ele><time>2026-05-01T14:20:15.999Z</time></trkpt><trkpt lat="44.60383373769679" lon="7.319835881476564"><ele>1411.0</ele><time>2026-05-01T14:20:17.999Z</time></trkpt><trkpt lat="44.60391552926607" lon="7.319853284372105"><ele>1411.0</ele><time>2026-05-01T14:20:19.999Z</time></trkpt><trkpt lat="44.60396470074528" lon="7.319915050283336"><ele>1411.0</ele><time>2026-05-01T14:20:21.999Z</time></trkpt><trkpt lat="44.60400381509373" lon="7.319996074204124"><ele>1411.0000000000002</ele><time>2026-05-01T14:20:23.999Z</time></trkpt><trkpt lat="44.60402391082004" lon="7.320080573016221"><ele>1411.0</ele><time>2026-05-01T14:20:27.999Z</time></trkpt><trkpt lat="44.60399263735389" lon="7.319996975537943"><ele>1411.0</ele><time>2026-05-01T14:21:21.999Z</time></trkpt><trkpt lat="44.6039545092397" lon="7.319924627554926"><ele>1411.0</ele><time>2026-05-01T14:21:24.999Z</time></trkpt><trkpt lat="44.6039090473837" lon="7.31986153114523"><ele>1411.0</ele><time>2026-05-01T14:21:26.999Z</time></trkpt><trkpt lat="44.603840453754955" lon="7.319845019891446"><ele>1411.0</ele><time>2026-05-01T14:21:28.999Z</time></trkpt><trkpt lat="44.60375876890402" lon="7.319813364871326"><ele>1411.0</ele><time>2026-05-01T14:21:30.999Z</time></trkpt><trkpt lat="44.60366057925302" lon="7.3197525741319"><ele>1411.0</ele><time>2026-05-01T14:21:32.999Z</time></trkpt><trkpt lat="44.60356536920476" lon="7.319707850607414"><ele>1413.1666666666665</ele><time>2026-05-01T14:21:34.999Z</time></trkpt><trkpt lat="44.60351622564543" lon="7.319608072963769"><ele>1415.3333333333333</ele><time>2026-05-01T14:21:36.999Z</time></trkpt><trkpt lat="44.60346667908242" lon="7.319511881704583"><ele>1417.5</ele><time>2026-05-01T14:21:38.999Z</time></trkpt><trkpt lat="44.6033899656487" lon="7.319411968279649"><ele>1419.6666666666667</ele><time>2026-05-01T14:21:40.999Z</time></trkpt><trkpt lat="44.60331999268186" lon="7.319324149759424"><ele>1421.8333333333335</ele><time>2026-05-01T14:21:42.999Z</time></trkpt><trkpt lat="44.60327498673653" lon="7.319249310706908"><ele>1424.0</ele><time>2026-05-01T14:21:44.999Z</time></trkpt><trkpt lat="44.60324182166882" lon="7.31915143712724"><ele>1424.0</ele><time>2026-05-01T14:21:46.999Z</time></trkpt><trkpt lat="44.6031873732504" lon="7.3190611303494855"><ele>1424.0</ele><time>2026-05-01T14:21:48.999Z</time></trkpt><trkpt lat="44.60312264504311" lon="7.318992470752134"><ele>1424.0</ele><time>2026-05-01T14:21:50.999Z</time></trkpt><trkpt lat="44.60306539593401" lon="7.31890853041494"><ele>1424.0</ele><time>2026-05-01T14:21:52.999Z</time></trkpt><trkpt lat="44.60302376071778" lon="7.31882120050128"><ele>1424.0</ele><time>2026-05-01T14:21:54.999Z</time></trkpt><trkpt lat="44.60297146384196" lon="7.31873502644526"><ele>1424.0</ele><time>2026-05-01T14:21:56.999Z</time></trkpt><trkpt lat="44.602893164684794" lon="7.31867641039847"><ele>1421.6666666666667</ele><time>2026-05-01T14:21:58.999Z</time></trkpt><trkpt lat="44.60282364698164" lon="7.31857744088446"><ele>1419.3333333333335</ele><time>2026-05-01T14:22:01.999Z</time></trkpt><trkpt lat="44.60278291131014" lon="7.318499655848908"><ele>1417.0</ele><time>2026-05-01T14:22:03.999Z</time></trkpt><trkpt lat="44.60276166974531" lon="7.318408515351126"><ele>1414.6666666666667</ele><time>2026-05-01T14:22:05.999Z</time></trkpt><trkpt lat="44.60272950639932" lon="7.318319672788722"><ele>1412.3333333333333</ele><time>2026-05-01T14:22:07.999Z</time></trkpt><trkpt lat="44.60268247657672" lon="7.318227923482223"><ele>1410.0</ele><time>2026-05-01T14:22:09.999Z</time></trkpt><trkpt lat="44.60264653439529" lon="7.318144135512494"><ele>1408.8</ele><time>2026-05-01T14:22:11.999Z</time></trkpt><trkpt lat="44.60259172381848" lon="7.318058704139258"><ele>1407.6</ele><time>2026-05-01T14:22:14.999Z</time></trkpt><trkpt lat="44.602476295196155" lon="7.317915124645158"><ele>1406.4</ele><time>2026-05-01T14:22:17.999Z</time></trkpt><trkpt lat="44.60241770428527" lon="7.317814766397654"><ele>1405.2</ele><time>2026-05-01T14:22:19.999Z</time></trkpt><trkpt lat="44.602365596532046" lon="7.317750224962303"><ele>1404.0</ele><time>2026-05-01T14:22:21.999Z</time></trkpt><trkpt lat="44.60229510003175" lon="7.317669419181233"><ele>1404.0000000000002</ele><time>2026-05-01T14:22:24.999Z</time></trkpt><trkpt lat="44.60224207980492" lon="7.317599651353123"><ele>1404.0</ele><time>2026-05-01T14:22:26.999Z</time></trkpt><trkpt lat="44.60218367583716" lon="7.317529931785714"><ele>1404.0</ele><time>2026-05-01T14:22:29.999Z</time></trkpt><trkpt lat="44.602116824373894" lon="7.317492894388787"><ele>1404.0</ele><time>2026-05-01T14:22:32.999Z</time></trkpt><trkpt lat="44.60205584823189" lon="7.317441707460552"><ele>1404.0</ele><time>2026-05-01T14:22:35.999Z</time></trkpt><trkpt lat="44.602005117675255" lon="7.317373182081967"><ele>1404.0000000000002</ele><time>2026-05-01T14:22:36.999Z</time></trkpt><trkpt lat="44.60195615523977" lon="7.317292898716539"><ele>1404.0</ele><time>2026-05-01T14:22:39Z</time></trkpt><trkpt lat="44.60181276949982" lon="7.317187830681854"><ele>1401.6666666666667</ele><time>2026-05-01T14:22:42Z</time></trkpt><trkpt lat="44.60176249725238" lon="7.317114504806466"><ele>1399.3333333333333</ele><time>2026-05-01T14:22:44Z</time></trkpt><trkpt lat="44.60170844872375" lon="7.317065098532532"><ele>1397.0</ele><time>2026-05-01T14:22:46Z</time></trkpt><trkpt lat="44.601644230619904" lon="7.316992608284695"><ele>1394.6666666666665</ele><time>2026-05-01T14:22:48Z</time></trkpt><trkpt lat="44.60159785135037" lon="7.316920736387795"><ele>1392.3333333333333</ele><time>2026-05-01T14:22:50Z</time></trkpt><trkpt lat="44.60151394503737" lon="7.316868876240142"><ele>1390.0</ele><time>2026-05-01T14:22:52Z</time></trkpt><trkpt lat="44.60142034338127" lon="7.316858488225004"><ele>1390.0</ele><time>2026-05-01T14:22:54Z</time></trkpt><trkpt lat="44.60131753750505" lon="7.316846477707806"><ele>1390.0</ele><time>2026-05-01T14:22:56Z</time></trkpt><trkpt lat="44.601270370479696" lon="7.316906146544148"><ele>1390.0</ele><time>2026-05-01T14:24:00.999Z</time></trkpt><trkpt lat="44.60130908495635" lon="7.3169856314489925"><ele>1390.0</ele><time>2026-05-01T14:24:01.999Z</time></trkpt><trkpt lat="44.60137465618055" lon="7.317057072166992"><ele>1390.0</ele><time>2026-05-01T14:24:02.999Z</time></trkpt><trkpt lat="44.6014207534021" lon="7.31711892174435"><ele>1390.0</ele><time>2026-05-01T14:24:03.999Z</time></trkpt><trkpt lat="44.601500435565534" lon="7.317206661221215"><ele>1390.6</ele><time>2026-05-01T14:24:05.999Z</time></trkpt><trkpt lat="44.60158755666729" lon="7.317300753765076"><ele>1391.2</ele><time>2026-05-01T14:24:07.999Z</time></trkpt><trkpt lat="44.60167537485546" lon="7.317437553199423"><ele>1391.8000000000002</ele><time>2026-05-01T14:24:09.999Z</time></trkpt><trkpt lat="44.60172666399685" lon="7.317521680409157"><ele>1392.4</ele><time>2026-05-01T14:24:10.999Z</time></trkpt><trkpt lat="44.60178121384696" lon="7.317612684148128"><ele>1393.0</ele><time>2026-05-01T14:24:11.999Z</time></trkpt><trkpt lat="44.60182274666556" lon="7.3177493023085916"><ele>1393.0</ele><time>2026-05-01T14:24:12.999Z</time></trkpt><trkpt lat="44.60186905538366" lon="7.317868368878399"><ele>1393.0</ele><time>2026-05-01T14:24:13.999Z</time></trkpt><trkpt lat="44.6019113837213" lon="7.317996705721184"><ele>1393.0</ele><time>2026-05-01T14:24:14.999Z</time></trkpt><trkpt lat="44.601943624270106" lon="7.318101324213344"><ele>1393.0</ele><time>2026-05-01T14:24:15.999Z</time></trkpt><trkpt lat="44.60198533096381" lon="7.318246875757986"><ele>1393.0</ele><time>2026-05-01T14:24:18Z</time></trkpt><trkpt lat="44.6020216484309" lon="7.318381366194789"><ele>1395.8000000000002</ele><time>2026-05-01T14:24:20Z</time></trkpt><trkpt lat="44.602043835214914" lon="7.318474111484646"><ele>1398.6</ele><time>2026-05-01T14:24:21Z</time></trkpt><trkpt lat="44.60207511342516" lon="7.318650987616243"><ele>1401.4</ele><time>2026-05-01T14:24:23Z</time></trkpt><trkpt lat="44.60208302113968" lon="7.318743228896939"><ele>1404.1999999999998</ele><time>2026-05-01T14:24:24Z</time></trkpt><trkpt lat="44.602084384805245" lon="7.318896600285912"><ele>1407.0</ele><time>2026-05-01T14:24:26Z</time></trkpt><trkpt lat="44.60208245554826" lon="7.319050366697093"><ele>1407.0</ele><time>2026-05-01T14:24:28Z</time></trkpt><trkpt lat="44.60210416643181" lon="7.319219470456869"><ele>1407.0</ele><time>2026-05-01T14:24:30Z</time></trkpt><trkpt lat="44.60210459277584" lon="7.3193861074625906"><ele>1407.0</ele><time>2026-05-01T14:24:32Z</time></trkpt><trkpt lat="44.60211446231435" lon="7.319482112664699"><ele>1407.0</ele><time>2026-05-01T14:24:33Z</time></trkpt><trkpt lat="44.6021454544186" lon="7.319571584839369"><ele>1407.0</ele><time>2026-05-01T14:24:34Z</time></trkpt><trkpt lat="44.60217919358276" lon="7.319660276223212"><ele>1405.0</ele><time>2026-05-01T14:24:35Z</time></trkpt><trkpt lat="44.60218853372132" lon="7.319761042976782"><ele>1403.0</ele><time>2026-05-01T14:24:36Z</time></trkpt><trkpt lat="44.602220585328524" lon="7.319858709642709"><ele>1401.0</ele><time>2026-05-01T14:24:37Z</time></trkpt><trkpt lat="44.6022389537607" lon="7.319955000260153"><ele>1399.0</ele><time>2026-05-01T14:24:38Z</time></trkpt><trkpt lat="44.602276018007316" lon="7.320033390448199"><ele>1397.0</ele><time>2026-05-01T14:24:39Z</time></trkpt><trkpt lat="44.60232387486865" lon="7.320101578183117"><ele>1395.0</ele><time>2026-05-01T14:24:40Z</time></trkpt><trkpt lat="44.602365034965956" lon="7.320171750123466"><ele>1393.0</ele><time>2026-05-01T14:24:41Z</time></trkpt><trkpt lat="44.602410303499596" lon="7.320234938038119"><ele>1393.0</ele><time>2026-05-01T14:24:42Z</time></trkpt><trkpt lat="44.60249862978965" lon="7.320350561666043"><ele>1393.0</ele><time>2026-05-01T14:24:44.001Z</time></trkpt><trkpt lat="44.602544857645775" lon="7.3204260484302806"><ele>1393.0</ele><time>2026-05-01T14:24:45.001Z</time></trkpt><trkpt lat="44.60261593782099" lon="7.320516726091776"><ele>1393.0</ele><time>2026-05-01T14:24:47.001Z</time></trkpt><trkpt lat="44.60266169426019" lon="7.320617759368425"><ele>1393.0</ele><time>2026-05-01T14:24:50.001Z</time></trkpt><trkpt lat="44.602688736490045" lon="7.320752276836606"><ele>1389.2</ele><time>2026-05-01T14:24:52.001Z</time></trkpt><trkpt lat="44.60268055021586" lon="7.3208835320955306"><ele>1385.4</ele><time>2026-05-01T14:24:54.001Z</time></trkpt><trkpt lat="44.60267835553219" lon="7.320983550059507"><ele>1381.6000000000001</ele><time>2026-05-01T14:24:55.001Z</time></trkpt><trkpt lat="44.602656140507015" lon="7.321163378553831"><ele>1377.8000000000002</ele><time>2026-05-01T14:24:57.001Z</time></trkpt><trkpt lat="44.602640716786105" lon="7.321292402104273"><ele>1374.0</ele><time>2026-05-01T14:24:59.001Z</time></trkpt><trkpt lat="44.602621995816065" lon="7.321461109997719"><ele>1373.1666666666667</ele><time>2026-05-01T14:25:02.001Z</time></trkpt><trkpt lat="44.60261096044915" lon="7.321561174242339"><ele>1372.3333333333333</ele><time>2026-05-01T14:25:03.001Z</time></trkpt><trkpt lat="44.60259716024128" lon="7.3216863089830655"><ele>1371.5</ele><time>2026-05-01T14:25:04.001Z</time></trkpt><trkpt lat="44.60258873759394" lon="7.3217887966541415"><ele>1370.6666666666665</ele><time>2026-05-01T14:25:05.001Z</time></trkpt><trkpt lat="44.60258407206762" lon="7.3218856055067745"><ele>1369.8333333333333</ele><time>2026-05-01T14:25:06.001Z</time></trkpt><trkpt lat="44.602579239549115" lon="7.321997146763867"><ele>1369.0</ele><time>2026-05-01T14:25:07.001Z</time></trkpt><trkpt lat="44.60257062799998" lon="7.32209915361698"><ele>1369.0</ele><time>2026-05-01T14:25:08.001Z</time></trkpt><trkpt lat="44.60255545994494" lon="7.322204647664885"><ele>1369.0</ele><time>2026-05-01T14:25:09.001Z</time></trkpt><trkpt lat="44.602526625912425" lon="7.3223356065543515"><ele>1369.0</ele><time>2026-05-01T14:25:10Z</time></trkpt><trkpt lat="44.602490064522826" lon="7.3224734297188485"><ele>1369.0</ele><time>2026-05-01T14:25:11Z</time></trkpt><trkpt lat="44.602452477407844" lon="7.322611228639159"><ele>1369.0</ele><time>2026-05-01T14:25:12Z</time></trkpt><trkpt lat="44.60241415358519" lon="7.32274444665915"><ele>1371.2</ele><time>2026-05-01T14:25:13Z</time></trkpt><trkpt lat="44.60237477603299" lon="7.32287873052941"><ele>1373.4</ele><time>2026-05-01T14:25:14Z</time></trkpt><trkpt lat="44.60233716237503" lon="7.323005479845213"><ele>1375.6</ele><time>2026-05-01T14:25:15Z</time></trkpt><trkpt lat="44.602319166158765" lon="7.3231398218385255"><ele>1377.8</ele><time>2026-05-01T14:25:16Z</time></trkpt><trkpt lat="44.60227822671336" lon="7.323265775207776"><ele>1380.0</ele><time>2026-05-01T14:25:17Z</time></trkpt><trkpt lat="44.602244879732616" lon="7.323393881493155"><ele>1381.1666666666667</ele><time>2026-05-01T14:25:18Z</time></trkpt><trkpt lat="44.60222556618561" lon="7.323521811959743"><ele>1382.3333333333333</ele><time>2026-05-01T14:25:19Z</time></trkpt><trkpt lat="44.602176286586875" lon="7.323637575401304"><ele>1383.5</ele><time>2026-05-01T14:25:20Z</time></trkpt><trkpt lat="44.60214687622368" lon="7.323739329762149"><ele>1384.6666666666665</ele><time>2026-05-01T14:25:21Z</time></trkpt><trkpt lat="44.60212153205671" lon="7.3238351628922285"><ele>1385.8333333333333</ele><time>2026-05-01T14:25:22Z</time></trkpt><trkpt lat="44.60210062653577" lon="7.3239229457360695"><ele>1387.0</ele><time>2026-05-01T14:25:23Z</time></trkpt><trkpt lat="44.602085525099035" lon="7.324042966119331"><ele>1387.0</ele><time>2026-05-01T14:25:24Z</time></trkpt><trkpt lat="44.602091027265494" lon="7.324149468728217"><ele>1387.0</ele><time>2026-05-01T14:25:25Z</time></trkpt><trkpt lat="44.60209442276066" lon="7.324249636046541"><ele>1387.0</ele><time>2026-05-01T14:25:26Z</time></trkpt><trkpt lat="44.602059252214445" lon="7.324400315367878"><ele>1387.0</ele><time>2026-05-01T14:25:28Z</time></trkpt><trkpt lat="44.60199024170837" lon="7.324529022366376"><ele>1387.0</ele><time>2026-05-01T14:25:30Z</time></trkpt><trkpt lat="44.601951402434054" lon="7.3246003245376174"><ele>1387.0</ele><time>2026-05-01T14:25:31Z</time></trkpt><trkpt lat="44.60191619645805" lon="7.324734723202373"><ele>1384.6666666666665</ele><time>2026-05-01T14:25:33Z</time></trkpt><trkpt lat="44.6019938177251" lon="7.324824265332881"><ele>1382.3333333333333</ele><time>2026-05-01T14:25:34Z</time></trkpt><trkpt lat="44.602038737707126" lon="7.3249334719674275"><ele>1380.0</ele><time>2026-05-01T14:25:36Z</time></trkpt><trkpt lat="44.602085457058834" lon="7.325032111396027"><ele>1377.6666666666667</ele><time>2026-05-01T14:25:38Z</time></trkpt><trkpt lat="44.602110770003684" lon="7.325134084463566"><ele>1375.3333333333335</ele><time>2026-05-01T14:25:40Z</time></trkpt><trkpt lat="44.60211797677376" lon="7.325238051737511"><ele>1373.0</ele><time>2026-05-01T14:25:42Z</time></trkpt><trkpt lat="44.60215738964161" lon="7.32535458814324"><ele>1373.0</ele><time>2026-05-01T14:25:44Z</time></trkpt><trkpt lat="44.602169861056815" lon="7.3254717388297435"><ele>1373.0</ele><time>2026-05-01T14:25:46Z</time></trkpt><trkpt lat="44.60207200712978" lon="7.325628804456148"><ele>1373.0</ele><time>2026-05-01T14:25:48Z</time></trkpt><trkpt lat="44.602001586814715" lon="7.325712608454812"><ele>1373.0</ele><time>2026-05-01T14:25:49Z</time></trkpt><trkpt lat="44.60191179107265" lon="7.325764603110565"><ele>1373.0</ele><time>2026-05-01T14:25:50Z</time></trkpt><trkpt lat="44.60185140917943" lon="7.32583288840172"><ele>1372.3333333333335</ele><time>2026-05-01T14:25:51Z</time></trkpt><trkpt lat="44.60179684673981" lon="7.325899133552057"><ele>1371.6666666666667</ele><time>2026-05-01T14:25:52Z</time></trkpt><trkpt lat="44.601756008978406" lon="7.325969433812248"><ele>1371.0</ele><time>2026-05-01T14:25:53Z</time></trkpt><trkpt lat="44.601730876961646" lon="7.326090155839823"><ele>1370.3333333333333</ele><time>2026-05-01T14:25:54Z</time></trkpt><trkpt lat="44.601717612791134" lon="7.326199269339926"><ele>1369.6666666666665</ele><time>2026-05-01T14:25:55Z</time></trkpt><trkpt lat="44.60168226582924" lon="7.3263158589337785"><ele>1369.0</ele><time>2026-05-01T14:25:56Z</time></trkpt><trkpt lat="44.601618753032525" lon="7.326405710546039"><ele>1369.0</ele><time>2026-05-01T14:25:57Z</time></trkpt><trkpt lat="44.60154088821353" lon="7.326515158530868"><ele>1369.0</ele><time>2026-05-01T14:25:58Z</time></trkpt><trkpt lat="44.601474667819" lon="7.32661799588577"><ele>1369.0</ele><time>2026-05-01T14:25:59Z</time></trkpt><trkpt lat="44.60141395248081" lon="7.326718122043513"><ele>1369.0</ele><time>2026-05-01T14:26:00Z</time></trkpt><trkpt lat="44.60135612801714" lon="7.3268289441739025"><ele>1369.0</ele><time>2026-05-01T14:26:01Z</time></trkpt><trkpt lat="44.6012998489851" lon="7.326960270976175"><ele>1369.0</ele><time>2026-05-01T14:26:02Z</time></trkpt><trkpt lat="44.60124516402219" lon="7.327088972582609"><ele>1369.0</ele><time>2026-05-01T14:26:03Z</time></trkpt><trkpt lat="44.601181259301484" lon="7.327214006571825"><ele>1369.0</ele><time>2026-05-01T14:26:04Z</time></trkpt><trkpt lat="44.60111835237255" lon="7.32731020148449"><ele>1369.0</ele><time>2026-05-01T14:26:05Z</time></trkpt><trkpt lat="44.60106720765222" lon="7.327399313750311"><ele>1369.0</ele><time>2026-05-01T14:26:06Z</time></trkpt><trkpt lat="44.601011928233106" lon="7.327506863055878"><ele>1367.8000000000002</ele><time>2026-05-01T14:26:07Z</time></trkpt><trkpt lat="44.60095182103889" lon="7.327632481230843"><ele>1366.6000000000001</ele><time>2026-05-01T14:26:08Z</time></trkpt><trkpt lat="44.60089493996344" lon="7.327767793619267"><ele>1365.4</ele><time>2026-05-01T14:26:09Z</time></trkpt><trkpt lat="44.60084991441541" lon="7.327903500828286"><ele>1364.2</ele><time>2026-05-01T14:26:10Z</time></trkpt><trkpt lat="44.60082665789122" lon="7.328034546881905"><ele>1363.0</ele><time>2026-05-01T14:26:11Z</time></trkpt><trkpt lat="44.600847060776566" lon="7.328141863927006"><ele>1363.0</ele><time>2026-05-01T14:26:12Z</time></trkpt><trkpt lat="44.600854952268335" lon="7.328237473056685"><ele>1363.0</ele><time>2026-05-01T14:26:13Z</time></trkpt><trkpt lat="44.600927177984694" lon="7.32830334823423"><ele>1363.0</ele><time>2026-05-01T14:26:14Z</time></trkpt><trkpt lat="44.60097833640392" lon="7.328404308056239"><ele>1363.0</ele><time>2026-05-01T14:26:15Z</time></trkpt><trkpt lat="44.60103344971457" lon="7.328508097604244"><ele>1363.0</ele><time>2026-05-01T14:26:16Z</time></trkpt><trkpt lat="44.601068039128826" lon="7.328610489092265"><ele>1363.0</ele><time>2026-05-01T14:26:17Z</time></trkpt><trkpt lat="44.601122347620205" lon="7.328707819979379"><ele>1363.0</ele><time>2026-05-01T14:26:18Z</time></trkpt><trkpt lat="44.60112947837042" lon="7.328810498996651"><ele>1363.0</ele><time>2026-05-01T14:26:19Z</time></trkpt><trkpt lat="44.60107594041418" lon="7.328907109694644"><ele>1363.0</ele><time>2026-05-01T14:26:20Z</time></trkpt><trkpt lat="44.601049759963836" lon="7.329037953312557"><ele>1363.0</ele><time>2026-05-01T14:26:21Z</time></trkpt><trkpt lat="44.60099602833862" lon="7.329182793784338"><ele>1363.0</ele><time>2026-05-01T14:26:22Z</time></trkpt><trkpt lat="44.60094499048937" lon="7.329330124134855"><ele>1364.0</ele><time>2026-05-01T14:26:23Z</time></trkpt><trkpt lat="44.60087606097342" lon="7.329419495113765"><ele>1365.0</ele><time>2026-05-01T14:26:24Z</time></trkpt><trkpt lat="44.600813810663865" lon="7.329504191880206"><ele>1366.0</ele><time>2026-05-01T14:26:25Z</time></trkpt><trkpt lat="44.60074922291845" lon="7.329561131407603"><ele>1367.0</ele><time>2026-05-01T14:26:26Z</time></trkpt><trkpt lat="44.600696973414536" lon="7.329622241222311"><ele>1368.0</ele><time>2026-05-01T14:26:27Z</time></trkpt><trkpt lat="44.600643420317354" lon="7.329696204757624"><ele>1369.0</ele><time>2026-05-01T14:26:28Z</time></trkpt><trkpt lat="44.6006295786393" lon="7.329819752850764"><ele>1372.0</ele><time>2026-05-01T14:26:29Z</time></trkpt><trkpt lat="44.600615825182466" lon="7.329968706168644"><ele>1375.0</ele><time>2026-05-01T14:26:30Z</time></trkpt><trkpt lat="44.60057559407914" lon="7.330115025115906"><ele>1378.0</ele><time>2026-05-01T14:26:31Z</time></trkpt><trkpt lat="44.60048593782827" lon="7.330234572937894"><ele>1381.0</ele><time>2026-05-01T14:26:32Z</time></trkpt><trkpt lat="44.600416919397574" lon="7.330365856557306"><ele>1381.0</ele><time>2026-05-01T14:26:33Z</time></trkpt><trkpt lat="44.60034962061077" lon="7.330487674282608"><ele>1381.0</ele><time>2026-05-01T14:26:34Z</time></trkpt><trkpt lat="44.60027446394304" lon="7.330588548004219"><ele>1381.0</ele><time>2026-05-01T14:26:35Z</time></trkpt><trkpt lat="44.600192211913615" lon="7.330683793214413"><ele>1381.0</ele><time>2026-05-01T14:26:36Z</time></trkpt><trkpt lat="44.60011772577281" lon="7.330781385093919"><ele>1381.0</ele><time>2026-05-01T14:26:37Z</time></trkpt><trkpt lat="44.60006127120315" lon="7.330885025318254"><ele>1380.1666666666665</ele><time>2026-05-01T14:26:38Z</time></trkpt><trkpt lat="44.59999798368555" lon="7.33097207513617"><ele>1379.3333333333333</ele><time>2026-05-01T14:26:39Z</time></trkpt><trkpt lat="44.59995704841568" lon="7.3310914746446265"><ele>1378.5</ele><time>2026-05-01T14:26:40Z</time></trkpt><trkpt lat="44.59989929741895" lon="7.331190095544618"><ele>1377.6666666666667</ele><time>2026-05-01T14:26:41Z</time></trkpt><trkpt lat="44.599858765514256" lon="7.331299650679989"><ele>1376.8333333333335</ele><time>2026-05-01T14:26:42Z</time></trkpt><trkpt lat="44.59982544238206" lon="7.331403271880637"><ele>1376.0</ele><time>2026-05-01T14:26:43Z</time></trkpt><trkpt lat="44.59982768207257" lon="7.331519718252481"><ele>1378.8</ele><time>2026-05-01T14:26:44Z</time></trkpt><trkpt lat="44.599825167596784" lon="7.331642791880377"><ele>1381.6</ele><time>2026-05-01T14:26:45Z</time></trkpt><trkpt lat="44.59986326756669" lon="7.331803030704577"><ele>1384.4</ele><time>2026-05-01T14:26:46Z</time></trkpt><trkpt lat="44.599877521293294" lon="7.331975858644791"><ele>1387.2</ele><time>2026-05-01T14:26:47Z</time></trkpt><trkpt lat="44.59988205045393" lon="7.33212357828337"><ele>1390.0</ele><time>2026-05-01T14:26:48Z</time></trkpt><trkpt lat="44.5998909880818" lon="7.332242922408737"><ele>1390.1666666666665</ele><time>2026-05-01T14:26:49Z</time></trkpt><trkpt lat="44.59988500944993" lon="7.332354737700604"><ele>1390.3333333333333</ele><time>2026-05-01T14:26:50.001Z</time></trkpt><trkpt lat="44.599835351075036" lon="7.332459500697369"><ele>1390.5</ele><time>2026-05-01T14:26:51.001Z</time></trkpt><trkpt lat="44.59977479797926" lon="7.332548374321639"><ele>1390.6666666666667</ele><time>2026-05-01T14:26:52.001Z</time></trkpt><trkpt lat="44.599724698620655" lon="7.332618561905653"><ele>1390.8333333333335</ele><time>2026-05-01T14:26:53.001Z</time></trkpt><trkpt lat="44.59967670205993" lon="7.332692041514204"><ele>1391.0</ele><time>2026-05-01T14:26:54.001Z</time></trkpt><trkpt lat="44.59963859287793" lon="7.33276730400855"><ele>1391.0</ele><time>2026-05-01T14:26:55.001Z</time></trkpt><trkpt lat="44.599621128908815" lon="7.332876804301879"><ele>1391.0</ele><time>2026-05-01T14:26:56.001Z</time></trkpt><trkpt lat="44.59956370980078" lon="7.332959991795261"><ele>1391.0</ele><time>2026-05-01T14:26:57.001Z</time></trkpt><trkpt lat="44.59949240681352" lon="7.332997012826703"><ele>1391.0</ele><time>2026-05-01T14:26:58.001Z</time></trkpt><trkpt lat="44.59940536611014" lon="7.333070583530002"><ele>1391.0</ele><time>2026-05-01T14:26:59.001Z</time></trkpt><trkpt lat="44.5993068542429" lon="7.3331277826793375"><ele>1391.0</ele><time>2026-05-01T14:27:00.001Z</time></trkpt><trkpt lat="44.59923469232161" lon="7.33319360128964"><ele>1387.6666666666667</ele><time>2026-05-01T14:27:01.001Z</time></trkpt><trkpt lat="44.59916875829318" lon="7.333294524571577"><ele>1384.3333333333335</ele><time>2026-05-01T14:27:02.001Z</time></trkpt><trkpt lat="44.599107479870604" lon="7.333407999364054"><ele>1381.0</ele><time>2026-05-01T14:27:03.001Z</time></trkpt><trkpt lat="44.59907686215063" lon="7.333496203116703"><ele>1377.6666666666667</ele><time>2026-05-01T14:27:04.001Z</time></trkpt><trkpt lat="44.59903741029113" lon="7.333572721527512"><ele>1374.3333333333333</ele><time>2026-05-01T14:27:05.001Z</time></trkpt><trkpt lat="44.59900636008259" lon="7.333675916537334"><ele>1371.0</ele><time>2026-05-01T14:27:06.001Z</time></trkpt><trkpt lat="44.59895027818989" lon="7.333767338318157"><ele>1371.0</ele><time>2026-05-01T14:27:07Z</time></trkpt><trkpt lat="44.59891102153231" lon="7.333858202468105"><ele>1371.0</ele><time>2026-05-01T14:27:08Z</time></trkpt><trkpt lat="44.598863731014156" lon="7.333942423584211"><ele>1371.0</ele><time>2026-05-01T14:27:09Z</time></trkpt><trkpt lat="44.59881058624384" lon="7.334022791468984"><ele>1371.0</ele><time>2026-05-01T14:27:10Z</time></trkpt><trkpt lat="44.59876182747868" lon="7.334093796923322"><ele>1371.0</ele><time>2026-05-01T14:27:11Z</time></trkpt><trkpt lat="44.598718916082916" lon="7.334161954641341"><ele>1371.0</ele><time>2026-05-01T14:27:12Z</time></trkpt><trkpt lat="44.598669533285566" lon="7.334234974191195"><ele>1371.0</ele><time>2026-05-01T14:27:13Z</time></trkpt><trkpt lat="44.59860231338019" lon="7.334308512194609"><ele>1371.4</ele><time>2026-05-01T14:27:14Z</time></trkpt><trkpt lat="44.59849759717929" lon="7.334415562781766"><ele>1371.8</ele><time>2026-05-01T14:27:15Z</time></trkpt><trkpt lat="44.59840887646187" lon="7.334522218122897"><ele>1372.2</ele><time>2026-05-01T14:27:16Z</time></trkpt><trkpt lat="44.59833815806988" lon="7.334613300442093"><ele>1372.6000000000001</ele><time>2026-05-01T14:27:17Z</time></trkpt><trkpt lat="44.59828147689547" lon="7.334686469248087"><ele>1373.0</ele><time>2026-05-01T14:27:18Z</time></trkpt><trkpt lat="44.59823066020217" lon="7.33475393447717"><ele>1373.0</ele><time>2026-05-01T14:27:19Z</time></trkpt><trkpt lat="44.59816764876382" lon="7.3348233159996585"><ele>1373.0</ele><time>2026-05-01T14:27:20Z</time></trkpt><trkpt lat="44.59809902202065" lon="7.334890009667515"><ele>1373.0</ele><time>2026-05-01T14:27:21Z</time></trkpt><trkpt lat="44.59802914986442" lon="7.334935237376391"><ele>1373.0</ele><time>2026-05-01T14:27:22Z</time></trkpt><trkpt lat="44.59794372691873" lon="7.334953980332282"><ele>1373.0</ele><time>2026-05-01T14:27:23Z</time></trkpt><trkpt lat="44.59784409608242" lon="7.3350064038074265"><ele>1373.0</ele><time>2026-05-01T14:27:24Z</time></trkpt><trkpt lat="44.59773237474542" lon="7.3350670699194795"><ele>1371.2</ele><time>2026-05-01T14:27:25Z</time></trkpt><trkpt lat="44.5976171077402" lon="7.335130808852173"><ele>1369.4</ele><time>2026-05-01T14:27:26Z</time></trkpt><trkpt lat="44.597520948881794" lon="7.335200872734811"><ele>1367.6000000000001</ele><time>2026-05-01T14:27:27Z</time></trkpt><trkpt lat="44.59744143642379" lon="7.335245358011136"><ele>1365.8000000000002</ele><time>2026-05-01T14:27:28Z</time></trkpt><trkpt lat="44.59737784679321" lon="7.335289370434079"><ele>1364.0</ele><time>2026-05-01T14:27:29Z</time></trkpt><trkpt lat="44.597324225781215" lon="7.335342606610255"><ele>1364.0</ele><time>2026-05-01T14:27:30Z</time></trkpt><trkpt lat="44.59727596937978" lon="7.3354134125696895"><ele>1364.0</ele><time>2026-05-01T14:27:31Z</time></trkpt><trkpt lat="44.59720985553473" lon="7.3354894474077925"><ele>1364.0</ele><time>2026-05-01T14:27:32Z</time></trkpt><trkpt lat="44.59713528377242" lon="7.3355859344628565"><ele>1364.0</ele><time>2026-05-01T14:27:33Z</time></trkpt><trkpt lat="44.59706692310891" lon="7.3356621823741595"><ele>1364.0</ele><time>2026-05-01T14:27:34Z</time></trkpt><trkpt lat="44.59697441026685" lon="7.335742686033315"><ele>1363.2</ele><time>2026-05-01T14:27:35Z</time></trkpt><trkpt lat="44.596877836250464" lon="7.33578059572535"><ele>1362.4</ele><time>2026-05-01T14:27:36Z</time></trkpt><trkpt lat="44.59677846304946" lon="7.335871658990212"><ele>1361.6</ele><time>2026-05-01T14:27:38Z</time></trkpt><trkpt lat="44.5967222492846" lon="7.335944680521065"><ele>1360.8</ele><time>2026-05-01T14:27:39Z</time></trkpt><trkpt lat="44.59664814892753" lon="7.335992503203608"><ele>1360.0</ele><time>2026-05-01T14:27:40Z</time></trkpt><trkpt lat="44.596572219763736" lon="7.336048184620486"><ele>1360.0</ele><time>2026-05-01T14:27:41Z</time></trkpt><trkpt lat="44.59649288142359" lon="7.336101181950609"><ele>1360.0</ele><time>2026-05-01T14:27:42Z</time></trkpt><trkpt lat="44.59640326645374" lon="7.336126358048579"><ele>1360.0</ele><time>2026-05-01T14:27:43Z</time></trkpt><trkpt lat="44.59628045017771" lon="7.336130836258593"><ele>1360.0</ele><time>2026-05-01T14:27:44Z</time></trkpt><trkpt lat="44.59618078472148" lon="7.336186163385062"><ele>1360.0</ele><time>2026-05-01T14:27:45Z</time></trkpt><trkpt lat="44.59609616071506" lon="7.336290511450733"><ele>1358.0</ele><time>2026-05-01T14:27:46Z</time></trkpt><trkpt lat="44.59606023295015" lon="7.336397712965774"><ele>1356.0</ele><time>2026-05-01T14:27:47Z</time></trkpt><trkpt lat="44.59602992398985" lon="7.336550404051341"><ele>1354.0</ele><time>2026-05-01T14:27:49Z</time></trkpt><trkpt lat="44.595974330243806" lon="7.3366475442061665"><ele>1352.0</ele><time>2026-05-01T14:27:51Z</time></trkpt><trkpt lat="44.59590341053253" lon="7.336673232113815"><ele>1350.0</ele><time>2026-05-01T14:27:54Z</time></trkpt><trkpt lat="44.59582218871978" lon="7.336753077081569"><ele>1350.0</ele><time>2026-05-01T14:27:55Z</time></trkpt><trkpt lat="44.59576918966574" lon="7.336842299239428"><ele>1350.0</ele><time>2026-05-01T14:27:58Z</time></trkpt><trkpt lat="44.59576118718252" lon="7.336941364427104"><ele>1350.0</ele><time>2026-05-01T14:27:59Z</time></trkpt><trkpt lat="44.59567611849495" lon="7.33717123378906"><ele>1350.0</ele><time>2026-05-01T14:28:00Z</time></trkpt><trkpt lat="44.595655979513616" lon="7.337359873855296"><ele>1350.5</ele><time>2026-05-01T14:28:01Z</time></trkpt><trkpt lat="44.59564183828594" lon="7.337477311991274"><ele>1351.0</ele><time>2026-05-01T14:28:02Z</time></trkpt><trkpt lat="44.59560042728085" lon="7.3376244793172525"><ele>1351.5</ele><time>2026-05-01T14:28:04Z</time></trkpt><trkpt lat="44.59560124577855" lon="7.337720842340654"><ele>1352.0</ele><time>2026-05-01T14:28:05Z</time></trkpt><trkpt lat="44.59553889083513" lon="7.338109345040859"><ele>1352.0</ele><time>2026-05-01T14:28:06Z</time></trkpt><trkpt lat="44.59557899908937" lon="7.338367178840636"><ele>1352.0</ele><time>2026-05-01T14:28:07Z</time></trkpt><trkpt lat="44.59564397351574" lon="7.338595494918187"><ele>1352.0</ele><time>2026-05-01T14:28:08Z</time></trkpt><trkpt lat="44.5956937352214" lon="7.338713712076846"><ele>1352.0</ele><time>2026-05-01T14:28:09Z</time></trkpt><trkpt lat="44.59573379767515" lon="7.338834854689472"><ele>1352.0</ele><time>2026-05-01T14:28:10Z</time></trkpt><trkpt lat="44.59572493612939" lon="7.3389235933740515"><ele>1352.0</ele><time>2026-05-01T14:28:11Z</time></trkpt><trkpt lat="44.59572742311148" lon="7.339015398832196"><ele>1352.0</ele><time>2026-05-01T14:28:12Z</time></trkpt><trkpt lat="44.59573319784008" lon="7.339129492141481"><ele>1352.0</ele><time>2026-05-01T14:28:13Z</time></trkpt><trkpt lat="44.59578954822248" lon="7.339218744187333"><ele>1352.0</ele><time>2026-05-01T14:28:14Z</time></trkpt><trkpt lat="44.595839070545324" lon="7.339283290505853"><ele>1349.75</ele><time>2026-05-01T14:28:15Z</time></trkpt><trkpt lat="44.59593658155044" lon="7.339375455468898"><ele>1347.5</ele><time>2026-05-01T14:28:17Z</time></trkpt><trkpt lat="44.59602409159296" lon="7.339473022422779"><ele>1345.25</ele><time>2026-05-01T14:28:19Z</time></trkpt><trkpt lat="44.59610421703979" lon="7.339574121701823"><ele>1343.0</ele><time>2026-05-01T14:28:21Z</time></trkpt><trkpt lat="44.59617473666717" lon="7.339700450425093"><ele>1350.25</ele><time>2026-05-01T14:28:23Z</time></trkpt><trkpt lat="44.596202698348065" lon="7.339805505456425"><ele>1357.5</ele><time>2026-05-01T14:28:24Z</time></trkpt><trkpt lat="44.596228341243474" lon="7.33989960539591"><ele>1364.75</ele><time>2026-05-01T14:28:25Z</time></trkpt><trkpt lat="44.59646381441291" lon="7.340029920498854"><ele>1372.0</ele><time>2026-05-01T14:28:26Z</time></trkpt><trkpt lat="44.596481057762425" lon="7.340150248415894"><ele>1372.0</ele><time>2026-05-01T14:28:27Z</time></trkpt><trkpt lat="44.59646095441516" lon="7.340299234750056"><ele>1372.0</ele><time>2026-05-01T14:28:28Z</time></trkpt><trkpt lat="44.596399879819785" lon="7.340446102541342"><ele>1372.0</ele><time>2026-05-01T14:28:29Z</time></trkpt><trkpt lat="44.59634527054513" lon="7.340588957409657"><ele>1372.0</ele><time>2026-05-01T14:28:30Z</time></trkpt><trkpt lat="44.59631030442752" lon="7.340722961730829"><ele>1372.0</ele><time>2026-05-01T14:28:31Z</time></trkpt><trkpt lat="44.596299237330626" lon="7.340851256072686"><ele>1371.8</ele><time>2026-05-01T14:28:32Z</time></trkpt><trkpt lat="44.59630026215359" lon="7.34097467400399"><ele>1371.6</ele><time>2026-05-01T14:28:33Z</time></trkpt><trkpt lat="44.596292934422486" lon="7.341110200593534"><ele>1371.3999999999999</ele><time>2026-05-01T14:28:34Z</time></trkpt><trkpt lat="44.59624671877933" lon="7.341227291448658"><ele>1371.1999999999998</ele><time>2026-05-01T14:28:35Z</time></trkpt><trkpt lat="44.596183040229405" lon="7.341348710117357"><ele>1371.0</ele><time>2026-05-01T14:28:36Z</time></trkpt><trkpt lat="44.59613045408766" lon="7.34146268746777"><ele>1367.1666666666667</ele><time>2026-05-01T14:28:37Z</time></trkpt><trkpt lat="44.596084906226736" lon="7.341558552507263"><ele>1363.3333333333333</ele><time>2026-05-01T14:28:38Z</time></trkpt><trkpt lat="44.59603714565514" lon="7.341652665367353"><ele>1359.5</ele><time>2026-05-01T14:28:39Z</time></trkpt><trkpt lat="44.59598431614839" lon="7.341741414478431"><ele>1355.6666666666665</ele><time>2026-05-01T14:28:40Z</time></trkpt><trkpt lat="44.59593237346249" lon="7.341811874208237"><ele>1351.8333333333333</ele><time>2026-05-01T14:28:41Z</time></trkpt><trkpt lat="44.59589216934843" lon="7.3418868340196495"><ele>1348.0</ele><time>2026-05-01T14:28:42Z</time></trkpt><trkpt lat="44.59588316927568" lon="7.342099723772939"><ele>1348.75</ele><time>2026-05-01T14:28:44Z</time></trkpt><trkpt lat="44.59590521638986" lon="7.342251206802817"><ele>1349.5</ele><time>2026-05-01T14:28:45Z</time></trkpt><trkpt lat="44.595922334757354" lon="7.3424361284048745"><ele>1350.25</ele><time>2026-05-01T14:28:46Z</time></trkpt><trkpt lat="44.59592797562395" lon="7.342599886515427"><ele>1351.0</ele><time>2026-05-01T14:28:47Z</time></trkpt><trkpt lat="44.59592194587097" lon="7.342743541361153"><ele>1351.0</ele><time>2026-05-01T14:28:48Z</time></trkpt><trkpt lat="44.59589834426143" lon="7.342891431658261"><ele>1351.0</ele><time>2026-05-01T14:28:49Z</time></trkpt><trkpt lat="44.59587292201188" lon="7.343038350091496"><ele>1351.0</ele><time>2026-05-01T14:28:50Z</time></trkpt><trkpt lat="44.59585341179369" lon="7.343188147725608"><ele>1351.0</ele><time>2026-05-01T14:28:51Z</time></trkpt><trkpt lat="44.59583859521817" lon="7.3433116009543715"><ele>1351.0</ele><time>2026-05-01T14:28:52Z</time></trkpt><trkpt lat="44.595838849501654" lon="7.343484501939004"><ele>1350.8</ele><time>2026-05-01T14:28:54Z</time></trkpt><trkpt lat="44.59584249494059" lon="7.343583386747723"><ele>1350.6</ele><time>2026-05-01T14:28:55Z</time></trkpt><trkpt lat="44.595804329735586" lon="7.343771854255784"><ele>1350.4</ele><time>2026-05-01T14:28:57Z</time></trkpt><trkpt lat="44.59580200467574" lon="7.343874511456598"><ele>1350.2</ele><time>2026-05-01T14:28:58Z</time></trkpt><trkpt lat="44.59578359485704" lon="7.343996710025487"><ele>1350.0</ele><time>2026-05-01T14:28:59Z</time></trkpt><trkpt lat="44.59574860649508" lon="7.3441277941828425"><ele>1350.6</ele><time>2026-05-01T14:29:00Z</time></trkpt><trkpt lat="44.59570748599528" lon="7.3442653253295"><ele>1351.2</ele><time>2026-05-01T14:29:01Z</time></trkpt><trkpt lat="44.5956536361062" lon="7.344423600853605"><ele>1351.8000000000002</ele><time>2026-05-01T14:29:02Z</time></trkpt><trkpt lat="44.595619956757034" lon="7.344534788755431"><ele>1352.4</ele><time>2026-05-01T14:29:03Z</time></trkpt><trkpt lat="44.595575302825644" lon="7.344612933057084"><ele>1353.0</ele><time>2026-05-01T14:29:04Z</time></trkpt><trkpt lat="44.59550053819886" lon="7.344715531196183"><ele>1354.3333333333333</ele><time>2026-05-01T14:29:05Z</time></trkpt><trkpt lat="44.59541339575885" lon="7.344795487527064"><ele>1355.6666666666667</ele><time>2026-05-01T14:29:06Z</time></trkpt><trkpt lat="44.59533287049428" lon="7.344854985066016"><ele>1357.0</ele><time>2026-05-01T14:29:07Z</time></trkpt><trkpt lat="44.59524934152467" lon="7.344903540251902"><ele>1358.3333333333335</ele><time>2026-05-01T14:29:08Z</time></trkpt><trkpt lat="44.59517465045117" lon="7.344929468089719"><ele>1359.6666666666667</ele><time>2026-05-01T14:29:09Z</time></trkpt><trkpt lat="44.59509985702513" lon="7.344960699454706"><ele>1361.0</ele><time>2026-05-01T14:29:11Z</time></trkpt><trkpt lat="44.59505850357854" lon="7.345106698058327"><ele>1356.8333333333335</ele><time>2026-05-01T14:29:13Z</time></trkpt><trkpt lat="44.59501972376034" lon="7.345255499504848"><ele>1352.6666666666667</ele><time>2026-05-01T14:29:15Z</time></trkpt><trkpt lat="44.594978112363506" lon="7.345321918533599"><ele>1348.5</ele><time>2026-05-01T14:29:16Z</time></trkpt><trkpt lat="44.59494078576538" lon="7.345397624384303"><ele>1344.3333333333333</ele><time>2026-05-01T14:29:17Z</time></trkpt><trkpt lat="44.5948847286531" lon="7.345563889330053"><ele>1340.1666666666665</ele><time>2026-05-01T14:29:19Z</time></trkpt><trkpt lat="44.594852976928905" lon="7.345655358797847"><ele>1336.0</ele><time>2026-05-01T14:29:20Z</time></trkpt><trkpt lat="44.594814599048846" lon="7.345750877707806"><ele>1336.0</ele><time>2026-05-01T14:29:21Z</time></trkpt><trkpt lat="44.594775334892574" lon="7.34583314867073"><ele>1336.0</ele><time>2026-05-01T14:29:22Z</time></trkpt><trkpt lat="44.59475199749951" lon="7.3459156988903604"><ele>1336.0</ele><time>2026-05-01T14:29:23Z</time></trkpt><trkpt lat="44.59475924244555" lon="7.346028547433713"><ele>1336.0</ele><time>2026-05-01T14:29:24Z</time></trkpt><trkpt lat="44.59478788507439" lon="7.34613330415325"><ele>1336.0</ele><time>2026-05-01T14:29:25Z</time></trkpt><trkpt lat="44.5948509510313" lon="7.346246797873227"><ele>1336.0</ele><time>2026-05-01T14:29:26Z</time></trkpt><trkpt lat="44.5949127216663" lon="7.346382406593641"><ele>1335.1999999999998</ele><time>2026-05-01T14:29:27Z</time></trkpt><trkpt lat="44.59495862738409" lon="7.346527985864072"><ele>1334.3999999999999</ele><time>2026-05-01T14:29:28Z</time></trkpt><trkpt lat="44.59494684124862" lon="7.3466838333442634"><ele>1333.6</ele><time>2026-05-01T14:29:29Z</time></trkpt><trkpt lat="44.594916824717494" lon="7.346806667617665"><ele>1332.8</ele><time>2026-05-01T14:29:30Z</time></trkpt><trkpt lat="44.594882383305354" lon="7.346919645481159"><ele>1332.0</ele><time>2026-05-01T14:29:31Z</time></trkpt><trkpt lat="44.594883029614635" lon="7.347036121526199"><ele>1332.0</ele><time>2026-05-01T14:29:32Z</time></trkpt><trkpt lat="44.594892049267784" lon="7.347172458719355"><ele>1332.0</ele><time>2026-05-01T14:29:33Z</time></trkpt><trkpt lat="44.59490374612153" lon="7.347328036222335"><ele>1332.0</ele><time>2026-05-01T14:29:34Z</time></trkpt><trkpt lat="44.59489947561611" lon="7.347453797123684"><ele>1332.0</ele><time>2026-05-01T14:29:35Z</time></trkpt><trkpt lat="44.594882608687655" lon="7.3475657746366005"><ele>1332.0</ele><time>2026-05-01T14:29:36Z</time></trkpt><trkpt lat="44.59484872059126" lon="7.347716435742313"><ele>1331.1666666666667</ele><time>2026-05-01T14:29:37Z</time></trkpt><trkpt lat="44.59483151845177" lon="7.347867529195182"><ele>1330.3333333333333</ele><time>2026-05-01T14:29:38Z</time></trkpt><trkpt lat="44.59481595656023" lon="7.3479875820219345"><ele>1329.5</ele><time>2026-05-01T14:29:39Z</time></trkpt><trkpt lat="44.59480753099734" lon="7.34809349350104"><ele>1328.6666666666665</ele><time>2026-05-01T14:29:40Z</time></trkpt><trkpt lat="44.59480591103268" lon="7.348191355311517"><ele>1327.8333333333333</ele><time>2026-05-01T14:29:41Z</time></trkpt><trkpt lat="44.59480370770629" lon="7.348290399640595"><ele>1327.0</ele><time>2026-05-01T14:29:42Z</time></trkpt><trkpt lat="44.59478846566365" lon="7.34845244715045"><ele>1326.8333333333333</ele><time>2026-05-01T14:29:44Z</time></trkpt><trkpt lat="44.59477620454212" lon="7.348564222825186"><ele>1326.6666666666665</ele><time>2026-05-01T14:29:46Z</time></trkpt><trkpt lat="44.59476153091391" lon="7.34865688939083"><ele>1326.5</ele><time>2026-05-01T14:29:49Z</time></trkpt><trkpt lat="44.59473765452079" lon="7.348766528234335"><ele>1326.3333333333333</ele><time>2026-05-01T14:29:52Z</time></trkpt><trkpt lat="44.594709767438005" lon="7.348874595576756"><ele>1326.1666666666667</ele><time>2026-05-01T14:29:54Z</time></trkpt><trkpt lat="44.59467272788467" lon="7.349013094002266"><ele>1326.0</ele><time>2026-05-01T14:29:56Z</time></trkpt><trkpt lat="44.59465607155704" lon="7.349100788472167"><ele>1324.8333333333333</ele><time>2026-05-01T14:29:57Z</time></trkpt><trkpt lat="44.594604427089465" lon="7.349256314127117"><ele>1323.6666666666667</ele><time>2026-05-01T14:29:59Z</time></trkpt><trkpt lat="44.59456103620957" lon="7.349331126702842"><ele>1322.5</ele><time>2026-05-01T14:30:00Z</time></trkpt><trkpt lat="44.594508465072394" lon="7.349393172962896"><ele>1321.3333333333335</ele><time>2026-05-01T14:30:01Z</time></trkpt><trkpt lat="44.59444497185844" lon="7.349435177892034"><ele>1320.1666666666667</ele><time>2026-05-01T14:30:02Z</time></trkpt><trkpt lat="44.59437216144493" lon="7.3495465987695425"><ele>1319.0</ele><time>2026-05-01T14:30:04Z</time></trkpt><trkpt lat="44.594327654909954" lon="7.349630243401329"><ele>1315.5</ele><time>2026-05-01T14:30:05Z</time></trkpt><trkpt lat="44.59427512349434" lon="7.349709493644061"><ele>1312.0</ele><time>2026-05-01T14:30:06Z</time></trkpt><trkpt lat="44.594237866434824" lon="7.349789104805595"><ele>1308.5</ele><time>2026-05-01T14:30:07Z</time></trkpt><trkpt lat="44.59421822408367" lon="7.349914610576769"><ele>1305.0</ele><time>2026-05-01T14:30:09Z</time></trkpt><trkpt lat="44.59425184642344" lon="7.349990147685758"><ele>1301.5</ele><time>2026-05-01T14:30:10Z</time></trkpt><trkpt lat="44.59431847126215" lon="7.350064289690642"><ele>1298.0</ele><time>2026-05-01T14:30:11Z</time></trkpt><trkpt lat="44.59439532032522" lon="7.350103811448569"><ele>1298.0</ele><time>2026-05-01T14:30:12Z</time></trkpt><trkpt lat="44.59447978706285" lon="7.350134452633456"><ele>1298.0</ele><time>2026-05-01T14:30:13Z</time></trkpt><trkpt lat="44.59456403715335" lon="7.350184315387156"><ele>1298.0</ele><time>2026-05-01T14:30:14Z</time></trkpt><trkpt lat="44.59464683076445" lon="7.350220296875187"><ele>1298.0</ele><time>2026-05-01T14:30:15Z</time></trkpt><trkpt lat="44.59470934345394" lon="7.350242845582052"><ele>1298.0</ele><time>2026-05-01T14:30:16Z</time></trkpt><trkpt lat="44.594814375847896" lon="7.350243749189559"><ele>1298.0</ele><time>2026-05-01T14:30:18Z</time></trkpt><trkpt lat="44.59493691999833" lon="7.3503013845107805"><ele>1298.8333333333335</ele><time>2026-05-01T14:30:20Z</time></trkpt><trkpt lat="44.595007831255096" lon="7.350331052965191"><ele>1299.6666666666667</ele><time>2026-05-01T14:30:21Z</time></trkpt><trkpt lat="44.595063488385165" lon="7.350396408400917"><ele>1300.5</ele><time>2026-05-01T14:30:22Z</time></trkpt><trkpt lat="44.5951269007788" lon="7.35044043051905"><ele>1301.3333333333333</ele><time>2026-05-01T14:30:23Z</time></trkpt><trkpt lat="44.595197025909336" lon="7.35058880932246"><ele>1302.1666666666665</ele><time>2026-05-01T14:30:25Z</time></trkpt><trkpt lat="44.59524502699335" lon="7.350654985988755"><ele>1303.0</ele><time>2026-05-01T14:30:26Z</time></trkpt><trkpt lat="44.59529206131807" lon="7.350713860056594"><ele>1299.6666666666665</ele><time>2026-05-01T14:30:27Z</time></trkpt><trkpt lat="44.59533846183058" lon="7.350789089263847"><ele>1296.3333333333333</ele><time>2026-05-01T14:30:28Z</time></trkpt><trkpt lat="44.5953772431688" lon="7.350884912303943"><ele>1293.0</ele><time>2026-05-01T14:30:29Z</time></trkpt><trkpt lat="44.59541740420719" lon="7.350979051124903"><ele>1289.6666666666667</ele><time>2026-05-01T14:30:30Z</time></trkpt><trkpt lat="44.59546429429019" lon="7.3511137923411685"><ele>1286.3333333333335</ele><time>2026-05-01T14:30:32Z</time></trkpt><trkpt lat="44.59555239211823" lon="7.351204727933453"><ele>1283.0</ele><time>2026-05-01T14:30:34Z</time></trkpt><trkpt lat="44.595634257129554" lon="7.351313874801077"><ele>1279.0</ele><time>2026-05-01T14:30:36Z</time></trkpt><trkpt lat="44.59571356024909" lon="7.3514298143187675"><ele>1275.0</ele><time>2026-05-01T14:30:38Z</time></trkpt><trkpt lat="44.595800472266404" lon="7.35154564709126"><ele>1271.0</ele><time>2026-05-01T14:30:40Z</time></trkpt><trkpt lat="44.595856532086984" lon="7.351674584358394"><ele>1267.0</ele><time>2026-05-01T14:30:42Z</time></trkpt><trkpt lat="44.59592768343272" lon="7.351699875307381"><ele>1263.0</ele><time>2026-05-01T14:30:44Z</time></trkpt><trkpt lat="44.59598325901603" lon="7.3516438392129855"><ele>1263.0</ele><time>2026-05-01T14:30:46Z</time></trkpt><trkpt lat="44.59602387229801" lon="7.351562992332242"><ele>1263.0</ele><time>2026-05-01T14:30:48Z</time></trkpt><trkpt lat="44.59608578161979" lon="7.351474983042567"><ele>1263.0</ele><time>2026-05-01T14:30:50Z</time></trkpt><trkpt lat="44.59612178032461" lon="7.3513473186551535"><ele>1263.0</ele><time>2026-05-01T14:30:52Z</time></trkpt><trkpt lat="44.596198219107706" lon="7.351240963110645"><ele>1263.0</ele><time>2026-05-01T14:30:54Z</time></trkpt><trkpt lat="44.59627157471581" lon="7.351197745715668"><ele>1263.0</ele><time>2026-05-01T14:30:55Z</time></trkpt><trkpt lat="44.596334994505625" lon="7.351143098917883"><ele>1262.7142857142856</ele><time>2026-05-01T14:30:56Z</time></trkpt><trkpt lat="44.596405813594664" lon="7.351077980937431"><ele>1262.4285714285713</ele><time>2026-05-01T14:30:57Z</time></trkpt><trkpt lat="44.596464333640505" lon="7.351004256847391"><ele>1262.142857142857</ele><time>2026-05-01T14:30:58Z</time></trkpt><trkpt lat="44.59651971702954" lon="7.350947138329171"><ele>1261.8571428571427</ele><time>2026-05-01T14:30:59Z</time></trkpt><trkpt lat="44.5965707865311" lon="7.3508875404996745"><ele>1261.5714285714284</ele><time>2026-05-01T14:31:00Z</time></trkpt><trkpt lat="44.596619241714095" lon="7.350817983525724"><ele>1261.2857142857142</ele><time>2026-05-01T14:31:01Z</time></trkpt><trkpt lat="44.596678806401236" lon="7.350774690908948"><ele>1261.0</ele><time>2026-05-01T14:31:02Z</time></trkpt><trkpt lat="44.59674948943836" lon="7.3506963323278525"><ele>1261.0</ele><time>2026-05-01T14:31:04Z</time></trkpt><trkpt lat="44.59680807325482" lon="7.350615007856661"><ele>1261.0</ele><time>2026-05-01T14:31:06Z</time></trkpt><trkpt lat="44.59686024665988" lon="7.350666223419583"><ele>1261.0</ele><time>2026-05-01T14:31:08Z</time></trkpt><trkpt lat="44.59697285422124" lon="7.350687018206939"><ele>1261.0</ele><time>2026-05-01T14:31:10Z</time></trkpt><trkpt lat="44.59704518378881" lon="7.350709493032749"><ele>1261.0</ele><time>2026-05-01T14:31:11Z</time></trkpt><trkpt lat="44.59712878648229" lon="7.35073926905249"><ele>1261.0</ele><time>2026-05-01T14:31:13Z</time></trkpt><trkpt lat="44.59723841983857" lon="7.350765379804582"><ele>1259.75</ele><time>2026-05-01T14:31:15Z</time></trkpt><trkpt lat="44.59730829064435" lon="7.350813383783979"><ele>1258.5</ele><time>2026-05-01T14:31:16Z</time></trkpt><trkpt lat="44.59742990899343" lon="7.350873059244924"><ele>1257.25</ele><time>2026-05-01T14:31:18Z</time></trkpt><trkpt lat="44.59752688501049" lon="7.350966699074921"><ele>1256.0</ele><time>2026-05-01T14:31:20Z</time></trkpt><trkpt lat="44.597645621419595" lon="7.351028269674328"><ele>1256.0</ele><time>2026-05-01T14:31:22Z</time></trkpt><trkpt lat="44.59770822762521" lon="7.351062495338017"><ele>1256.0</ele><time>2026-05-01T14:31:23Z</time></trkpt><trkpt lat="44.59778096094944" lon="7.351095861846407"><ele>1256.0</ele><time>2026-05-01T14:31:24Z</time></trkpt><trkpt lat="44.59787649160495" lon="7.35117521325213"><ele>1256.0</ele><time>2026-05-01T14:31:26Z</time></trkpt><trkpt lat="44.59799543359271" lon="7.351222969564528"><ele>1256.0</ele><time>2026-05-01T14:31:28Z</time></trkpt><trkpt lat="44.59805418949981" lon="7.351257156851559"><ele>1256.0</ele><time>2026-05-01T14:31:29Z</time></trkpt><trkpt lat="44.598161010118005" lon="7.3513270670678255"><ele>1249.5</ele><time>2026-05-01T14:31:31Z</time></trkpt><trkpt lat="44.59824777463073" lon="7.351407076085332"><ele>1243.0</ele><time>2026-05-01T14:31:34Z</time></trkpt><trkpt lat="44.59839792310041" lon="7.351494806512245"><ele>1236.5</ele><time>2026-05-01T14:31:36Z</time></trkpt><trkpt lat="44.598495822558505" lon="7.351585034774421"><ele>1230.0</ele><time>2026-05-01T14:31:38Z</time></trkpt><trkpt lat="44.5985875210471" lon="7.351669163463945"><ele>1230.0</ele><time>2026-05-01T14:31:40Z</time></trkpt><trkpt lat="44.59867943243142" lon="7.3517773893059895"><ele>1230.0</ele><time>2026-05-01T14:31:42Z</time></trkpt><trkpt lat="44.598738116763435" lon="7.351907886596266"><ele>1230.0</ele><time>2026-05-01T14:31:44Z</time></trkpt><trkpt lat="44.59878771475772" lon="7.3520394773135385"><ele>1230.0</ele><time>2026-05-01T14:31:46Z</time></trkpt><trkpt lat="44.59871082752046" lon="7.352120848180398"><ele>1230.0</ele><time>2026-05-01T14:31:48Z</time></trkpt><trkpt lat="44.598633319880975" lon="7.3521027226156574"><ele>1230.0</ele><time>2026-05-01T14:31:49Z</time></trkpt><trkpt lat="44.59855276983943" lon="7.352081758729561"><ele>1230.0</ele><time>2026-05-01T14:31:50Z</time></trkpt><trkpt lat="44.598457813038365" lon="7.352036725744407"><ele>1230.0</ele><time>2026-05-01T14:31:52Z</time></trkpt><trkpt lat="44.59840314427603" lon="7.3519744338761805"><ele>1230.0</ele><time>2026-05-01T14:31:55Z</time></trkpt><trkpt lat="44.598315615612684" lon="7.351972538301452"><ele>1230.0</ele><time>2026-05-01T14:31:57Z</time></trkpt><trkpt lat="44.59819840375832" lon="7.351972081621798"><ele>1230.0</ele><time>2026-05-01T14:31:59Z</time></trkpt><trkpt lat="44.59810181561624" lon="7.351948814450896"><ele>1230.0</ele><time>2026-05-01T14:32:01Z</time></trkpt><trkpt lat="44.59801361430183" lon="7.351918499044607"><ele>1230.0</ele><time>2026-05-01T14:32:03Z</time></trkpt><trkpt lat="44.59789627400468" lon="7.351938209696998"><ele>1230.0</ele><time>2026-05-01T14:32:05Z</time></trkpt><trkpt lat="44.5978268635072" lon="7.351962058784175"><ele>1230.0</ele><time>2026-05-01T14:32:06Z</time></trkpt><trkpt lat="44.59770860726207" lon="7.35199558391759"><ele>1227.4</ele><time>2026-05-01T14:32:08Z</time></trkpt><trkpt lat="44.597603391268585" lon="7.352030088918024"><ele>1224.8</ele><time>2026-05-01T14:32:10Z</time></trkpt><trkpt lat="44.59750328601305" lon="7.352000919299404"><ele>1222.2</ele><time>2026-05-01T14:32:12Z</time></trkpt><trkpt lat="44.59744522362658" lon="7.351965121902667"><ele>1219.6</ele><time>2026-05-01T14:32:13Z</time></trkpt><trkpt lat="44.59738209495543" lon="7.351934575640609"><ele>1217.0</ele><time>2026-05-01T14:32:14Z</time></trkpt><trkpt lat="44.597269954873575" lon="7.351927326777295"><ele>1217.0</ele><time>2026-05-01T14:32:16Z</time></trkpt><trkpt lat="44.597200890120526" lon="7.352042555890489"><ele>1217.0</ele><time>2026-05-01T14:32:18Z</time></trkpt><trkpt lat="44.597201422376344" lon="7.352224564026443"><ele>1217.0</ele><time>2026-05-01T14:32:20Z</time></trkpt><trkpt lat="44.59719465526241" lon="7.352317796327134"><ele>1217.0</ele><time>2026-05-01T14:32:21Z</time></trkpt><trkpt lat="44.597148542887254" lon="7.352420684814975"><ele>1217.0</ele><time>2026-05-01T14:32:22Z</time></trkpt><trkpt lat="44.5971171855625" lon="7.352532745080887"><ele>1217.2857142857142</ele><time>2026-05-01T14:32:23Z</time></trkpt><trkpt lat="44.59709070601619" lon="7.352621008654035"><ele>1217.5714285714287</ele><time>2026-05-01T14:32:24Z</time></trkpt><trkpt lat="44.59705208016009" lon="7.352708271997288"><ele>1217.857142857143</ele><time>2026-05-01T14:32:25Z</time></trkpt><trkpt lat="44.59702247043679" lon="7.352818159588959"><ele>1218.142857142857</ele><time>2026-05-01T14:32:26Z</time></trkpt><trkpt lat="44.59700332912021" lon="7.3529165396870395"><ele>1218.4285714285713</ele><time>2026-05-01T14:32:27Z</time></trkpt><trkpt lat="44.59698858570897" lon="7.353004563384465"><ele>1218.7142857142858</ele><time>2026-05-01T14:32:28Z</time></trkpt><trkpt lat="44.59696679530309" lon="7.353101861468948"><ele>1219.0</ele><time>2026-05-01T14:32:29Z</time></trkpt><trkpt lat="44.5969295579946" lon="7.3531972759543045"><ele>1215.4</ele><time>2026-05-01T14:32:30Z</time></trkpt><trkpt lat="44.596891856317704" lon="7.353317655324523"><ele>1211.8000000000002</ele><time>2026-05-01T14:32:31Z</time></trkpt><trkpt lat="44.596855628643546" lon="7.353426373185779"><ele>1208.1999999999998</ele><time>2026-05-01T14:32:32Z</time></trkpt><trkpt lat="44.59683382068952" lon="7.3535564038114885"><ele>1204.6</ele><time>2026-05-01T14:32:33Z</time></trkpt><trkpt lat="44.596823328835335" lon="7.353719822049856"><ele>1201.0</ele><time>2026-05-01T14:32:34Z</time></trkpt><trkpt lat="44.59680989990247" lon="7.3538499725538236"><ele>1199.1666666666665</ele><time>2026-05-01T14:32:35Z</time></trkpt><trkpt lat="44.59680241407916" lon="7.353962713285416"><ele>1197.3333333333333</ele><time>2026-05-01T14:32:36Z</time></trkpt><trkpt lat="44.59679719571393" lon="7.354065400853015"><ele>1195.5</ele><time>2026-05-01T14:32:37Z</time></trkpt><trkpt lat="44.59678488216828" lon="7.3541840202615925"><ele>1193.6666666666667</ele><time>2026-05-01T14:32:38Z</time></trkpt><trkpt lat="44.596752376810635" lon="7.3542974732515916"><ele>1191.8333333333335</ele><time>2026-05-01T14:32:39Z</time></trkpt><trkpt lat="44.59670378039601" lon="7.354399565175795"><ele>1190.0</ele><time>2026-05-01T14:32:40Z</time></trkpt><trkpt lat="44.59667196514929" lon="7.35448068942675"><ele>1190.0</ele><time>2026-05-01T14:32:41Z</time></trkpt><trkpt lat="44.5966651957552" lon="7.354592242953332"><ele>1190.0</ele><time>2026-05-01T14:32:42Z</time></trkpt><trkpt lat="44.59665395006152" lon="7.35471632685089"><ele>1190.0</ele><time>2026-05-01T14:32:43Z</time></trkpt><trkpt lat="44.59665697143602" lon="7.354822314725283"><ele>1190.0</ele><time>2026-05-01T14:32:44Z</time></trkpt><trkpt lat="44.596674028150254" lon="7.354921449142245"><ele>1190.0</ele><time>2026-05-01T14:32:45Z</time></trkpt><trkpt lat="44.596724154611" lon="7.355032385777313"><ele>1190.0</ele><time>2026-05-01T14:32:46Z</time></trkpt><trkpt lat="44.59674497908714" lon="7.355134030345665"><ele>1188.3333333333335</ele><time>2026-05-01T14:32:47Z</time></trkpt><trkpt lat="44.59676896985952" lon="7.3552247747266755"><ele>1186.6666666666667</ele><time>2026-05-01T14:32:48Z</time></trkpt><trkpt lat="44.59680017027427" lon="7.355314741722501"><ele>1185.0</ele><time>2026-05-01T14:32:49Z</time></trkpt><trkpt lat="44.59685237245489" lon="7.355481037682158"><ele>1183.3333333333333</ele><time>2026-05-01T14:32:51Z</time></trkpt><trkpt lat="44.59688671073602" lon="7.355565392519543"><ele>1181.6666666666665</ele><time>2026-05-01T14:32:52Z</time></trkpt><trkpt lat="44.59691193064354" lon="7.3556664490057875"><ele>1180.0</ele><time>2026-05-01T14:32:53Z</time></trkpt><trkpt lat="44.59691546339691" lon="7.355770178245018"><ele>1177.2</ele><time>2026-05-01T14:32:54Z</time></trkpt><trkpt lat="44.59690354547898" lon="7.355865073103723"><ele>1174.4</ele><time>2026-05-01T14:32:55Z</time></trkpt><trkpt lat="44.596840991166644" lon="7.356027476933092"><ele>1171.6</ele><time>2026-05-01T14:32:57Z</time></trkpt><trkpt lat="44.59680722461252" lon="7.356122458517598"><ele>1168.8</ele><time>2026-05-01T14:32:58Z</time></trkpt><trkpt lat="44.59674058152523" lon="7.356197178148118"><ele>1166.0</ele><time>2026-05-01T14:33:00Z</time></trkpt><trkpt lat="44.5966525289229" lon="7.3562646748888145"><ele>1166.0000000000002</ele><time>2026-05-01T14:33:03Z</time></trkpt><trkpt lat="44.59659390614454" lon="7.356330494845867"><ele>1166.0</ele><time>2026-05-01T14:33:04.999Z</time></trkpt><trkpt lat="44.596536901420414" lon="7.356399030070759"><ele>1166.0</ele><time>2026-05-01T14:33:08Z</time></trkpt><trkpt lat="44.59648448210538" lon="7.356460477508851"><ele>1166.0</ele><time>2026-05-01T14:33:12Z</time></trkpt><trkpt lat="44.5964474661802" lon="7.356538452705479"><ele>1166.0</ele><time>2026-05-01T14:33:16Z</time></trkpt><trkpt lat="44.59640790674884" lon="7.356639159659922"><ele>1166.0000000000002</ele><time>2026-05-01T14:33:18Z</time></trkpt><trkpt lat="44.59636941853741" lon="7.356717258134373"><ele>1166.0</ele><time>2026-05-01T14:33:19Z</time></trkpt><trkpt lat="44.59631782177475" lon="7.356814044889666"><ele>1164.6</ele><time>2026-05-01T14:33:20Z</time></trkpt><trkpt lat="44.59625063641835" lon="7.356904844443415"><ele>1163.1999999999998</ele><time>2026-05-01T14:33:21Z</time></trkpt><trkpt lat="44.5961969712908" lon="7.356971416645061"><ele>1161.8000000000002</ele><time>2026-05-01T14:33:22Z</time></trkpt><trkpt lat="44.59612751055333" lon="7.357116829168307"><ele>1160.4</ele><time>2026-05-01T14:33:24Z</time></trkpt><trkpt lat="44.596095875338186" lon="7.357206260136317"><ele>1159.0</ele><time>2026-05-01T14:33:25Z</time></trkpt><trkpt lat="44.59606518964096" lon="7.357361543458361"><ele>1156.8333333333333</ele><time>2026-05-01T14:33:27Z</time></trkpt><trkpt lat="44.596028999478634" lon="7.357501244980603"><ele>1154.6666666666665</ele><time>2026-05-01T14:33:29Z</time></trkpt><trkpt lat="44.59598161417301" lon="7.357572912537782"><ele>1152.5</ele><time>2026-05-01T14:33:30Z</time></trkpt><trkpt lat="44.59591669354787" lon="7.357628944365359"><ele>1150.3333333333333</ele><time>2026-05-01T14:33:31Z</time></trkpt><trkpt lat="44.59585950356544" lon="7.357678244783983"><ele>1148.1666666666667</ele><time>2026-05-01T14:33:32Z</time></trkpt><trkpt lat="44.59579429901091" lon="7.357826015544784"><ele>1146.0</ele><time>2026-05-01T14:33:34Z</time></trkpt><trkpt lat="44.59576946260681" lon="7.357915770138658"><ele>1146.0</ele><time>2026-05-01T14:33:35Z</time></trkpt><trkpt lat="44.59574689053813" lon="7.357999976432892"><ele>1146.0</ele><time>2026-05-01T14:33:36Z</time></trkpt><trkpt lat="44.59571877427467" lon="7.358082781505495"><ele>1146.0</ele><time>2026-05-01T14:33:37Z</time></trkpt><trkpt lat="44.5956951537158" lon="7.358171569654089"><ele>1146.0</ele><time>2026-05-01T14:33:38Z</time></trkpt><trkpt lat="44.595680818698305" lon="7.358258438652646"><ele>1146.0</ele><time>2026-05-01T14:33:39Z</time></trkpt><trkpt lat="44.59572362415447" lon="7.358427651460978"><ele>1146.0</ele><time>2026-05-01T14:33:41Z</time></trkpt><trkpt lat="44.59574942370378" lon="7.35853707688325"><ele>1146.0</ele><time>2026-05-01T14:33:42Z</time></trkpt><trkpt lat="44.59576658978094" lon="7.358640776716097"><ele>1146.0</ele><time>2026-05-01T14:33:43Z</time></trkpt><trkpt lat="44.595774900399746" lon="7.358738735450025"><ele>1146.0</ele><time>2026-05-01T14:33:44Z</time></trkpt><trkpt lat="44.59576699672891" lon="7.358828324025626"><ele>1146.0</ele><time>2026-05-01T14:33:45Z</time></trkpt><trkpt lat="44.59573710557896" lon="7.358916347892765"><ele>1146.0</ele><time>2026-05-01T14:33:46Z</time></trkpt><trkpt lat="44.59570433573061" lon="7.359006342603582"><ele>1146.0</ele><time>2026-05-01T14:33:47Z</time></trkpt><trkpt lat="44.59565962263475" lon="7.359165602913278"><ele>1144.5</ele><time>2026-05-01T14:33:49Z</time></trkpt><trkpt lat="44.595613983514546" lon="7.359329930946569"><ele>1143.0</ele><time>2026-05-01T14:33:51Z</time></trkpt><trkpt lat="44.59557555581909" lon="7.359420734573055"><ele>1141.5</ele><time>2026-05-01T14:33:52Z</time></trkpt><trkpt lat="44.59554781370364" lon="7.359518650843291"><ele>1140.0</ele><time>2026-05-01T14:33:53Z</time></trkpt><trkpt lat="44.59552238827176" lon="7.359625299517734"><ele>1138.5</ele><time>2026-05-01T14:33:54Z</time></trkpt><trkpt lat="44.59548881187347" lon="7.359734759281426"><ele>1137.0</ele><time>2026-05-01T14:33:55Z</time></trkpt><trkpt lat="44.595450987731795" lon="7.359838120848919"><ele>1135.0</ele><time>2026-05-01T14:33:56Z</time></trkpt><trkpt lat="44.5954176789885" lon="7.359929923256937"><ele>1133.0</ele><time>2026-05-01T14:33:57Z</time></trkpt><trkpt lat="44.59535369576245" lon="7.360068297132385"><ele>1131.0</ele><time>2026-05-01T14:33:59Z</time></trkpt><trkpt lat="44.59528648919271" lon="7.360203022852643"><ele>1129.0</ele><time>2026-05-01T14:34:01Z</time></trkpt><trkpt lat="44.595255300681714" lon="7.360282329968093"><ele>1127.0</ele><time>2026-05-01T14:34:02Z</time></trkpt><trkpt lat="44.59522401786022" lon="7.360364328851054"><ele>1125.0</ele><time>2026-05-01T14:34:03Z</time></trkpt><trkpt lat="44.59516724265147" lon="7.3604923850788575"><ele>1122.0</ele><time>2026-05-01T14:34:05Z</time></trkpt><trkpt lat="44.595082894435656" lon="7.360612519313181"><ele>1119.0</ele><time>2026-05-01T14:34:07Z</time></trkpt><trkpt lat="44.59497879420403" lon="7.360704396853805"><ele>1116.0</ele><time>2026-05-01T14:34:09Z</time></trkpt><trkpt lat="44.59487310711172" lon="7.360709852452485"><ele>1113.0</ele><time>2026-05-01T14:34:11Z</time></trkpt><trkpt lat="44.594820879766736" lon="7.360602272529926"><ele>1110.0</ele><time>2026-05-01T14:34:13Z</time></trkpt><trkpt lat="44.59484067548029" lon="7.360496045210973"><ele>1110.0</ele><time>2026-05-01T14:34:15Z</time></trkpt><trkpt lat="44.594865673986426" lon="7.360274775516469"><ele>1110.0</ele><time>2026-05-01T14:34:18Z</time></trkpt><trkpt lat="44.59491913215577" lon="7.360144151730516"><ele>1110.0</ele><time>2026-05-01T14:34:20Z</time></trkpt><trkpt lat="44.595002930769354" lon="7.3600521298890635"><ele>1110.0</ele><time>2026-05-01T14:34:22Z</time></trkpt><trkpt lat="44.59499407923444" lon="7.359956687165347"><ele>1110.0</ele><time>2026-05-01T14:34:24Z</time></trkpt><trkpt lat="44.594929928913224" lon="7.359949284385897"><ele>1110.0</ele><time>2026-05-01T14:34:25Z</time></trkpt><trkpt lat="44.594833273134924" lon="7.360027044775996"><ele>1110.0</ele><time>2026-05-01T14:34:27Z</time></trkpt><trkpt lat="44.59477384906132" lon="7.360110992998644"><ele>1110.0</ele><time>2026-05-01T14:34:28Z</time></trkpt><trkpt lat="44.594722967396116" lon="7.360170197447839"><ele>1110.0</ele><time>2026-05-01T14:34:29Z</time></trkpt><trkpt lat="44.59459998710822" lon="7.360247443676465"><ele>1110.0</ele><time>2026-05-01T14:34:31Z</time></trkpt><trkpt lat="44.59453755408106" lon="7.360294194046169"><ele>1103.2</ele><time>2026-05-01T14:34:32Z</time></trkpt><trkpt lat="44.59444947046584" lon="7.360411944534915"><ele>1096.4</ele><time>2026-05-01T14:34:34Z</time></trkpt><trkpt lat="44.59442116211377" lon="7.360537432475417"><ele>1089.6</ele><time>2026-05-01T14:34:36Z</time></trkpt><trkpt lat="44.59439585546976" lon="7.360656274953697"><ele>1082.8</ele><time>2026-05-01T14:34:38Z</time></trkpt><trkpt lat="44.594367807404545" lon="7.360740571257086"><ele>1076.0</ele><time>2026-05-01T14:34:39Z</time></trkpt><trkpt lat="44.59431744003873" lon="7.3609025795267895"><ele>1076.0</ele><time>2026-05-01T14:34:41Z</time></trkpt><trkpt lat="44.594299936735716" lon="7.360996615229022"><ele>1076.0</ele><time>2026-05-01T14:34:42Z</time></trkpt><trkpt lat="44.594285289149546" lon="7.361134273728029"><ele>1076.0</ele><time>2026-05-01T14:34:43Z</time></trkpt><trkpt lat="44.5942714438929" lon="7.361267851373217"><ele>1076.0</ele><time>2026-05-01T14:34:44Z</time></trkpt><trkpt lat="44.59426701951679" lon="7.361366694699278"><ele>1076.0</ele><time>2026-05-01T14:34:45Z</time></trkpt><trkpt lat="44.594303686064656" lon="7.361517611542217"><ele>1076.0</ele><time>2026-05-01T14:34:47Z</time></trkpt><trkpt lat="44.59433904551093" lon="7.3616006483836545"><ele>1076.0</ele><time>2026-05-01T14:34:48Z</time></trkpt><trkpt lat="44.59439013067015" lon="7.361657230628472"><ele>1076.0</ele><time>2026-05-01T14:34:49Z</time></trkpt><trkpt lat="44.59447997659389" lon="7.361780279723527"><ele>1076.0</ele><time>2026-05-01T14:34:51Z</time></trkpt><trkpt lat="44.59452638529809" lon="7.361845775081824"><ele>1076.0</ele><time>2026-05-01T14:34:52Z</time></trkpt><trkpt lat="44.59454739543976" lon="7.361998196289918"><ele>1076.0</ele><time>2026-05-01T14:34:54Z</time></trkpt><trkpt lat="44.59451986865335" lon="7.362113970460426"><ele>1075.0</ele><time>2026-05-01T14:34:56Z</time></trkpt><trkpt lat="44.594558851393835" lon="7.362204121760343"><ele>1074.0</ele><time>2026-05-01T14:34:59Z</time></trkpt><trkpt lat="44.59464504869791" lon="7.362115242005714"><ele>1073.0</ele><time>2026-05-01T14:35:01.999Z</time></trkpt><trkpt lat="44.59469788003991" lon="7.362018407805594"><ele>1072.0</ele><time>2026-05-01T14:35:03.999Z</time></trkpt><trkpt lat="44.59474321372417" lon="7.361935076934127"><ele>1071.0</ele><time>2026-05-01T14:35:04.999Z</time></trkpt><trkpt lat="44.59479499491709" lon="7.361838689137607"><ele>1070.0</ele><time>2026-05-01T14:35:05.999Z</time></trkpt><trkpt lat="44.59484658230684" lon="7.361756277408926"><ele>1070.0</ele><time>2026-05-01T14:35:06.999Z</time></trkpt><trkpt lat="44.59491990670071" lon="7.361691004849241"><ele>1070.0</ele><time>2026-05-01T14:35:07.999Z</time></trkpt><trkpt lat="44.594997091060186" lon="7.361662816949172"><ele>1070.0</ele><time>2026-05-01T14:35:08.999Z</time></trkpt><trkpt lat="44.59507438319847" lon="7.361659604778039"><ele>1070.0</ele><time>2026-05-01T14:35:09.999Z</time></trkpt><trkpt lat="44.59514518962443" lon="7.36166257896607"><ele>1070.0</ele><time>2026-05-01T14:35:10.999Z</time></trkpt><trkpt lat="44.59523809305947" lon="7.361678954492424"><ele>1070.0</ele><time>2026-05-01T14:35:12.999Z</time></trkpt><trkpt lat="44.595309685460165" lon="7.3616533009387535"><ele>1066.3333333333335</ele><time>2026-05-01T14:35:15Z</time></trkpt><trkpt lat="44.59539264057676" lon="7.361620438658613"><ele>1062.6666666666667</ele><time>2026-05-01T14:35:17Z</time></trkpt><trkpt lat="44.59546479092889" lon="7.361657197325962"><ele>1059.0</ele><time>2026-05-01T14:35:19Z</time></trkpt><trkpt lat="44.59555871947155" lon="7.361665048798295"><ele>1055.3333333333333</ele><time>2026-05-01T14:35:21Z</time></trkpt><trkpt lat="44.59560585708613" lon="7.361592411494072"><ele>1051.6666666666665</ele><time>2026-05-01T14:35:23Z</time></trkpt><trkpt lat="44.595688336820274" lon="7.361582490043394"><ele>1048.0</ele><time>2026-05-01T14:35:27Z</time></trkpt><trkpt lat="44.59576695330501" lon="7.3616121830617915"><ele>1048.0</ele><time>2026-05-01T14:35:29Z</time></trkpt><trkpt lat="44.59586358749996" lon="7.361645469441114"><ele>1048.0</ele><time>2026-05-01T14:35:31Z</time></trkpt><trkpt lat="44.59596660683958" lon="7.361584532482246"><ele>1048.0</ele><time>2026-05-01T14:35:33Z</time></trkpt><trkpt lat="44.596021244064126" lon="7.361516288313741"><ele>1048.0</ele><time>2026-05-01T14:35:34Z</time></trkpt><trkpt lat="44.596087446764614" lon="7.361485739443624"><ele>1048.0</ele><time>2026-05-01T14:35:35Z</time></trkpt><trkpt lat="44.596176377990524" lon="7.361501288747656"><ele>1048.0</ele><time>2026-05-01T14:35:36Z</time></trkpt><trkpt lat="44.59627298371413" lon="7.361522980447763"><ele>1045.6666666666665</ele><time>2026-05-01T14:35:37Z</time></trkpt><trkpt lat="44.5963659293542" lon="7.361548242164201"><ele>1043.3333333333333</ele><time>2026-05-01T14:35:38Z</time></trkpt><trkpt lat="44.5964454512085" lon="7.361571598809123"><ele>1041.0</ele><time>2026-05-01T14:35:39Z</time></trkpt><trkpt lat="44.59656067227068" lon="7.361559416527946"><ele>1038.6666666666667</ele><time>2026-05-01T14:35:41Z</time></trkpt><trkpt lat="44.596624990127026" lon="7.361520066112765"><ele>1036.3333333333335</ele><time>2026-05-01T14:35:42Z</time></trkpt><trkpt lat="44.59667795334928" lon="7.361458208519076"><ele>1034.0</ele><time>2026-05-01T14:35:43Z</time></trkpt><trkpt lat="44.59673398195996" lon="7.3614123751561715"><ele>1035.6666666666667</ele><time>2026-05-01T14:35:44Z</time></trkpt><trkpt lat="44.59678623051829" lon="7.361352738533689"><ele>1037.3333333333335</ele><time>2026-05-01T14:35:45Z</time></trkpt><trkpt lat="44.59686251777106" lon="7.361205558878578"><ele>1039.0</ele><time>2026-05-01T14:35:47Z</time></trkpt><trkpt lat="44.59691494534157" lon="7.361124322612131"><ele>1040.6666666666667</ele><time>2026-05-01T14:35:48Z</time></trkpt><trkpt lat="44.596953408408346" lon="7.361033586205018"><ele>1042.3333333333333</ele><time>2026-05-01T14:35:49Z</time></trkpt><trkpt lat="44.59699694239317" lon="7.360956658955689"><ele>1044.0</ele><time>2026-05-01T14:35:50Z</time></trkpt><trkpt lat="44.59704850672918" lon="7.360885361983717"><ele>1044.0</ele><time>2026-05-01T14:35:51Z</time></trkpt><trkpt lat="44.59711973702014" lon="7.360838404807335"><ele>1044.0</ele><time>2026-05-01T14:35:52Z</time></trkpt><trkpt lat="44.597185070870665" lon="7.360770297430138"><ele>1044.0</ele><time>2026-05-01T14:35:53Z</time></trkpt><trkpt lat="44.59725430096626" lon="7.360682667217736"><ele>1044.0</ele><time>2026-05-01T14:35:54Z</time></trkpt><trkpt lat="44.597305525233" lon="7.360620078299254"><ele>1044.0</ele><time>2026-05-01T14:35:55Z</time></trkpt><trkpt lat="44.59736592263051" lon="7.360583851509546"><ele>1044.0</ele><time>2026-05-01T14:35:56Z</time></trkpt><trkpt lat="44.597501710073296" lon="7.360528469595555"><ele>1044.0</ele><time>2026-05-01T14:35:58Z</time></trkpt><trkpt lat="44.597574916334466" lon="7.3605338846431465"><ele>1044.0</ele><time>2026-05-01T14:35:59Z</time></trkpt><trkpt lat="44.597649329812526" lon="7.360560092935856"><ele>1044.0</ele><time>2026-05-01T14:36:00Z</time></trkpt><trkpt lat="44.597713293064075" lon="7.3605997708791815"><ele>1044.0</ele><time>2026-05-01T14:36:01Z</time></trkpt><trkpt lat="44.59777189709381" lon="7.36067444232694"><ele>1044.0</ele><time>2026-05-01T14:36:02Z</time></trkpt><trkpt lat="44.597877408986825" lon="7.360721146103541"><ele>1044.0</ele><time>2026-05-01T14:36:04Z</time></trkpt><trkpt lat="44.597960467648136" lon="7.3607323056185185"><ele>1044.8333333333333</ele><time>2026-05-01T14:36:05Z</time></trkpt><trkpt lat="44.598042267261526" lon="7.3607192693012715"><ele>1045.6666666666667</ele><time>2026-05-01T14:36:06Z</time></trkpt><trkpt lat="44.59811204340039" lon="7.360686454456903"><ele>1046.5</ele><time>2026-05-01T14:36:07Z</time></trkpt><trkpt lat="44.59821217851148" lon="7.3606833863767696"><ele>1047.3333333333335</ele><time>2026-05-01T14:36:09Z</time></trkpt><trkpt lat="44.59826807505409" lon="7.360804088978257"><ele>1048.1666666666667</ele><time>2026-05-01T14:36:11Z</time></trkpt><trkpt lat="44.59831960462333" lon="7.360896368954999"><ele>1049.0</ele><time>2026-05-01T14:36:12Z</time></trkpt><trkpt lat="44.59838226700379" lon="7.360938714188993"><ele>1049.0</ele><time>2026-05-01T14:36:13Z</time></trkpt><trkpt lat="44.598475574263865" lon="7.361000860108611"><ele>1049.0</ele><time>2026-05-01T14:36:14Z</time></trkpt><trkpt lat="44.5985556282887" lon="7.361077870701522"><ele>1049.0</ele><time>2026-05-01T14:36:15Z</time></trkpt><trkpt lat="44.59868736388628" lon="7.361109491122163"><ele>1049.0</ele><time>2026-05-01T14:36:17Z</time></trkpt><trkpt lat="44.59876868853027" lon="7.361132288267855"><ele>1049.0</ele><time>2026-05-01T14:36:18Z</time></trkpt><trkpt lat="44.59886524216522" lon="7.361141744335801"><ele>1046.6000000000001</ele><time>2026-05-01T14:36:19Z</time></trkpt><trkpt lat="44.59895544851876" lon="7.361136695853533"><ele>1044.2</ele><time>2026-05-01T14:36:20Z</time></trkpt><trkpt lat="44.599034772745505" lon="7.361165093410551"><ele>1041.8000000000002</ele><time>2026-05-01T14:36:21Z</time></trkpt><trkpt lat="44.59911285036003" lon="7.361227055993046"><ele>1039.4</ele><time>2026-05-01T14:36:22Z</time></trkpt><trkpt lat="44.59918151141994" lon="7.361336456297752"><ele>1037.0</ele><time>2026-05-01T14:36:23Z</time></trkpt><trkpt lat="44.59926069753973" lon="7.361478488403491"><ele>1037.0</ele><time>2026-05-01T14:36:24Z</time></trkpt><trkpt lat="44.59936302718881" lon="7.3616052494149615"><ele>1037.0</ele><time>2026-05-01T14:36:25Z</time></trkpt><trkpt lat="44.59948946762158" lon="7.361733480734754"><ele>1037.0</ele><time>2026-05-01T14:36:26Z</time></trkpt><trkpt lat="44.599625986520685" lon="7.36187658520417"><ele>1037.0</ele><time>2026-05-01T14:36:27Z</time></trkpt><trkpt lat="44.599740870438666" lon="7.362024894709938"><ele>1037.0</ele><time>2026-05-01T14:36:28Z</time></trkpt><trkpt lat="44.59981922363604" lon="7.362144107960217"><ele>1037.0</ele><time>2026-05-01T14:36:29Z</time></trkpt><trkpt lat="44.599889317121296" lon="7.362244138221752"><ele>1037.0</ele><time>2026-05-01T14:36:30Z</time></trkpt><trkpt lat="44.599952860500224" lon="7.362302664416794"><ele>1037.0</ele><time>2026-05-01T14:36:31Z</time></trkpt><trkpt lat="44.60002073607476" lon="7.362300588335928"><ele>1037.0</ele><time>2026-05-01T14:36:32Z</time></trkpt><trkpt lat="44.60011981876556" lon="7.362252031715191"><ele>1037.0</ele><time>2026-05-01T14:36:33Z</time></trkpt><trkpt lat="44.600207958932074" lon="7.362227137345363"><ele>1037.0</ele><time>2026-05-01T14:36:34Z</time></trkpt><trkpt lat="44.60027303208996" lon="7.362315552281068"><ele>1037.0</ele><time>2026-05-01T14:36:35Z</time></trkpt><trkpt lat="44.60033572124026" lon="7.362421403056478"><ele>1037.0</ele><time>2026-05-01T14:36:36Z</time></trkpt><trkpt lat="44.60040163036436" lon="7.3624999954518335"><ele>1037.6666666666667</ele><time>2026-05-01T14:36:37Z</time></trkpt><trkpt lat="44.60047488014189" lon="7.3625273323094405"><ele>1038.3333333333335</ele><time>2026-05-01T14:36:38Z</time></trkpt><trkpt lat="44.60055853999324" lon="7.362559128515634"><ele>1039.0</ele><time>2026-05-01T14:36:39Z</time></trkpt><trkpt lat="44.60065396949402" lon="7.362636904607022"><ele>1039.6666666666667</ele><time>2026-05-01T14:36:41Z</time></trkpt><trkpt lat="44.60071780734374" lon="7.362620744830224"><ele>1040.3333333333333</ele><time>2026-05-01T14:36:43Z</time></trkpt><trkpt lat="44.6007667744611" lon="7.362532059417012"><ele>1041.0</ele><time>2026-05-01T14:36:44Z</time></trkpt><trkpt lat="44.60080280976459" lon="7.362381870625645"><ele>1041.0</ele><time>2026-05-01T14:36:45Z</time></trkpt><trkpt lat="44.60085758381738" lon="7.362278970010607"><ele>1041.0</ele><time>2026-05-01T14:36:46Z</time></trkpt><trkpt lat="44.60092856956332" lon="7.362209059048741"><ele>1041.0</ele><time>2026-05-01T14:36:47Z</time></trkpt><trkpt lat="44.60100859218245" lon="7.362136783848745"><ele>1041.0</ele><time>2026-05-01T14:36:48Z</time></trkpt><trkpt lat="44.60109317787665" lon="7.3620567408317985"><ele>1041.0</ele><time>2026-05-01T14:36:49Z</time></trkpt><trkpt lat="44.601150504201435" lon="7.362001643225919"><ele>1041.0</ele><time>2026-05-01T14:36:50Z</time></trkpt><trkpt lat="44.60119323840524" lon="7.361904138159019"><ele>1035.8</ele><time>2026-05-01T14:36:52Z</time></trkpt><trkpt lat="44.601258457269424" lon="7.361848719017177"><ele>1030.6</ele><time>2026-05-01T14:36:54Z</time></trkpt><trkpt lat="44.60132250933618" lon="7.36174788075265"><ele>1025.4</ele><time>2026-05-01T14:36:56Z</time></trkpt><trkpt lat="44.60135565674956" lon="7.361619901496394"><ele>1020.2</ele><time>2026-05-01T14:36:57.999Z</time></trkpt><trkpt lat="44.60140765516491" lon="7.361507314752685"><ele>1015.0</ele><time>2026-05-01T14:36:59.999Z</time></trkpt><trkpt lat="44.60145279561755" lon="7.361389661115316"><ele>1014.4</ele><time>2026-05-01T14:37:01.999Z</time></trkpt><trkpt lat="44.60147162543002" lon="7.361257104200411"><ele>1013.8</ele><time>2026-05-01T14:37:03.999Z</time></trkpt><trkpt lat="44.60148886710275" lon="7.36110796764245"><ele>1013.2</ele><time>2026-05-01T14:37:05.999Z</time></trkpt><trkpt lat="44.60152964398692" lon="7.360985511243408"><ele>1012.6</ele><time>2026-05-01T14:37:07.999Z</time></trkpt><trkpt lat="44.60158881799691" lon="7.36085675548038"><ele>1012.0</ele><time>2026-05-01T14:37:09.999Z</time></trkpt><trkpt lat="44.60163161466508" lon="7.360736960573313"><ele>1011.9999999999999</ele><time>2026-05-01T14:37:11.999Z</time></trkpt><trkpt lat="44.6016776590403" lon="7.360631163962774"><ele>1012.0</ele><time>2026-05-01T14:37:13.999Z</time></trkpt><trkpt lat="44.6016965832756" lon="7.3604720626053"><ele>1012.0</ele><time>2026-05-01T14:37:15.999Z</time></trkpt><trkpt lat="44.60169825889557" lon="7.360374164065513"><ele>1012.0</ele><time>2026-05-01T14:37:16.999Z</time></trkpt><trkpt lat="44.60168778892644" lon="7.360271580348479"><ele>1011.9999999999999</ele><time>2026-05-01T14:37:17.999Z</time></trkpt><trkpt lat="44.601681839340706" lon="7.360168337067805"><ele>1012.0</ele><time>2026-05-01T14:37:18.999Z</time></trkpt><trkpt lat="44.6017202205419" lon="7.360014835749114"><ele>1011.9999999999999</ele><time>2026-05-01T14:37:21Z</time></trkpt><trkpt lat="44.60176192127451" lon="7.359860273062378"><ele>1012.0</ele><time>2026-05-01T14:37:23Z</time></trkpt><trkpt lat="44.60178694532299" lon="7.359712214453752"><ele>1012.0</ele><time>2026-05-01T14:37:25Z</time></trkpt><trkpt lat="44.60177247045574" lon="7.359620259662583"><ele>1012.0</ele><time>2026-05-01T14:37:26Z</time></trkpt><trkpt lat="44.60175160542381" lon="7.359534627751387"><ele>1011.9999999999999</ele><time>2026-05-01T14:37:27Z</time></trkpt><trkpt lat="44.60172538897501" lon="7.3594359131515334"><ele>1012.0</ele><time>2026-05-01T14:37:30Z</time></trkpt><trkpt lat="44.601769857068476" lon="7.359373041514349"><ele>1011.0000000000001</ele><time>2026-05-01T14:38:47Z</time></trkpt><trkpt lat="44.60185088622582" lon="7.359361637407385"><ele>1010.0</ele><time>2026-05-01T14:38:51Z</time></trkpt><trkpt lat="44.60193121215846" lon="7.359354971003508"><ele>1009.0000000000001</ele><time>2026-05-01T14:38:54Z</time></trkpt><trkpt lat="44.60200207933061" lon="7.359347698168915"><ele>1008.0000000000001</ele><time>2026-05-01T14:38:56Z</time></trkpt><trkpt lat="44.602071157147876" lon="7.359345750496714"><ele>1007.0</ele><time>2026-05-01T14:38:58Z</time></trkpt><trkpt lat="44.602136328615934" lon="7.359340802024802"><ele>1006.0000000000001</ele><time>2026-05-01T14:39:00.999Z</time></trkpt><trkpt lat="44.60219751563964" lon="7.359313342851138"><ele>1005.0000000000001</ele><time>2026-05-01T14:39:02.999Z</time></trkpt><trkpt lat="44.602263430645785" lon="7.359337658516819"><ele>999.5</ele><time>2026-05-01T14:39:05.999Z</time></trkpt><trkpt lat="44.602324176796934" lon="7.359404100496992"><ele>994.0</ele><time>2026-05-01T14:39:07.999Z</time></trkpt><trkpt lat="44.6024077114035" lon="7.3594581632276554"><ele>988.5</ele><time>2026-05-01T14:39:09.999Z</time></trkpt><trkpt lat="44.602498978452765" lon="7.3594950460955415"><ele>983.0</ele><time>2026-05-01T14:39:11.999Z</time></trkpt><trkpt lat="44.6025633346982" lon="7.35952887431303"><ele>977.5</ele><time>2026-05-01T14:39:13.999Z</time></trkpt><trkpt lat="44.60263914521258" lon="7.359568342076702"><ele>972.0</ele><time>2026-05-01T14:39:15.999Z</time></trkpt><trkpt lat="44.602713998707934" lon="7.359636821964219"><ele>972.0</ele><time>2026-05-01T14:39:17.999Z</time></trkpt><trkpt lat="44.60278026109604" lon="7.359700228989144"><ele>972.0</ele><time>2026-05-01T14:39:19.999Z</time></trkpt><trkpt lat="44.602841612979425" lon="7.35975796424382"><ele>972.0</ele><time>2026-05-01T14:39:21.999Z</time></trkpt><trkpt lat="44.602912768143625" lon="7.359829765216074"><ele>972.0</ele><time>2026-05-01T14:39:23.999Z</time></trkpt><trkpt lat="44.6029824013961" lon="7.359861783787947"><ele>972.0</ele><time>2026-05-01T14:39:27Z</time></trkpt><trkpt lat="44.603061131215014" lon="7.3598871790859235"><ele>972.0</ele><time>2026-05-01T14:39:29Z</time></trkpt><trkpt lat="44.60314045642874" lon="7.359903717352126"><ele>973.2857142857142</ele><time>2026-05-01T14:39:32Z</time></trkpt><trkpt lat="44.60321010522603" lon="7.359892178791746"><ele>974.5714285714287</ele><time>2026-05-01T14:39:34Z</time></trkpt><trkpt lat="44.60327577190138" lon="7.359895214296257"><ele>975.8571428571429</ele><time>2026-05-01T14:39:36Z</time></trkpt><trkpt lat="44.603361818328295" lon="7.359923772293464"><ele>977.1428571428571</ele><time>2026-05-01T14:39:40Z</time></trkpt><trkpt lat="44.603431234779144" lon="7.3599109054948535"><ele>978.4285714285713</ele><time>2026-05-01T14:39:43Z</time></trkpt><trkpt lat="44.603498164315624" lon="7.359887970989468"><ele>979.7142857142858</ele><time>2026-05-01T14:39:45Z</time></trkpt><trkpt lat="44.60357267661363" lon="7.359917733097111"><ele>981.0</ele><time>2026-05-01T14:39:47Z</time></trkpt><trkpt lat="44.60364275382689" lon="7.3599440280219115"><ele>976.8333333333334</ele><time>2026-05-01T14:39:50Z</time></trkpt><trkpt lat="44.60371441504951" lon="7.359969060134828"><ele>972.6666666666667</ele><time>2026-05-01T14:39:52Z</time></trkpt><trkpt lat="44.60379509031833" lon="7.3599751856692865"><ele>968.5</ele><time>2026-05-01T14:39:54Z</time></trkpt><trkpt lat="44.60387210706155" lon="7.35999283716856"><ele>964.3333333333334</ele><time>2026-05-01T14:39:56Z</time></trkpt><trkpt lat="44.6039357539309" lon="7.359956753396523"><ele>960.1666666666667</ele><time>2026-05-01T14:39:59Z</time></trkpt><trkpt lat="44.60402034594574" lon="7.359961347224192"><ele>956.0</ele><time>2026-05-01T14:40:02Z</time></trkpt><trkpt lat="44.60409316883065" lon="7.359984487948206"><ele>956.0000000000001</ele><time>2026-05-01T14:40:03Z</time></trkpt><trkpt lat="44.60417221882801" lon="7.360047906818758"><ele>956.0</ele><time>2026-05-01T14:40:05Z</time></trkpt><trkpt lat="44.604259486045045" lon="7.360067245774131"><ele>956.0</ele><time>2026-05-01T14:40:07Z</time></trkpt><trkpt lat="44.60434550323058" lon="7.360098207301005"><ele>956.0</ele><time>2026-05-01T14:40:09Z</time></trkpt><trkpt lat="44.604421892252816" lon="7.360084167041835"><ele>956.0000000000001</ele><time>2026-05-01T14:40:11Z</time></trkpt><trkpt lat="44.60449790149729" lon="7.36007075516522"><ele>956.0</ele><time>2026-05-01T14:40:13Z</time></trkpt><trkpt lat="44.604589896062535" lon="7.360067795871897"><ele>952.8333333333334</ele><time>2026-05-01T14:40:15Z</time></trkpt><trkpt lat="44.60467719317252" lon="7.36006735351132"><ele>949.6666666666667</ele><time>2026-05-01T14:40:17Z</time></trkpt><trkpt lat="44.6047514722811" lon="7.3600409635073625"><ele>946.5</ele><time>2026-05-01T14:40:19Z</time></trkpt><trkpt lat="44.60484112639928" lon="7.360037455400025"><ele>943.3333333333333</ele><time>2026-05-01T14:40:21Z</time></trkpt><trkpt lat="44.60490781112629" lon="7.360043350534674"><ele>940.1666666666666</ele><time>2026-05-01T14:40:23Z</time></trkpt><trkpt lat="44.60501547462614" lon="7.360040680176749"><ele>937.0</ele><time>2026-05-01T14:40:25Z</time></trkpt><trkpt lat="44.60511936237998" lon="7.360055785364802"><ele>936.9999999999999</ele><time>2026-05-01T14:40:27Z</time></trkpt><trkpt lat="44.60520480366505" lon="7.3600848199111075"><ele>937.0</ele><time>2026-05-01T14:40:29Z</time></trkpt><trkpt lat="44.60529204673172" lon="7.360094509063964"><ele>937.0</ele><time>2026-05-01T14:40:31Z</time></trkpt><trkpt lat="44.605363465158874" lon="7.36010168580335"><ele>937.0</ele><time>2026-05-01T14:40:33Z</time></trkpt><trkpt lat="44.605441761897985" lon="7.3601113300433525"><ele>936.9999999999999</ele><time>2026-05-01T14:40:45Z</time></trkpt><trkpt lat="44.605400386297575" lon="7.36002905950263"><ele>937.0</ele><time>2026-05-01T14:40:49Z</time></trkpt><trkpt lat="44.60527086700324" lon="7.359956899950929"><ele>936.9999999999999</ele><time>2026-05-01T14:40:51Z</time></trkpt><trkpt lat="44.60519880929001" lon="7.3599422523695175"><ele>937.0</ele><time>2026-05-01T14:40:52Z</time></trkpt><trkpt lat="44.60512679634451" lon="7.359934896292764"><ele>937.0</ele><time>2026-05-01T14:40:53Z</time></trkpt><trkpt lat="44.605014646981815" lon="7.359924613743454"><ele>937.0</ele><time>2026-05-01T14:40:54.999Z</time></trkpt><trkpt lat="44.604951668990566" lon="7.3599059395255555"><ele>936.9999999999999</ele><time>2026-05-01T14:40:55.999Z</time></trkpt><trkpt lat="44.60485758414761" lon="7.359854526658502"><ele>937.0</ele><time>2026-05-01T14:40:57.999Z</time></trkpt><trkpt lat="44.60474786410639" lon="7.359799464202921"><ele>936.9999999999999</ele><time>2026-05-01T14:40:59.999Z</time></trkpt><trkpt lat="44.60468003725755" lon="7.359801774193149"><ele>937.0</ele><time>2026-05-01T14:41:00.999Z</time></trkpt><trkpt lat="44.60460863012085" lon="7.3598144297989325"><ele>937.0</ele><time>2026-05-01T14:41:01.999Z</time></trkpt><trkpt lat="44.604542316227715" lon="7.359817695310824"><ele>937.0</ele><time>2026-05-01T14:41:02.999Z</time></trkpt><trkpt lat="44.60447821631704" lon="7.3597899563047875"><ele>936.9999999999999</ele><time>2026-05-01T14:41:03.999Z</time></trkpt><trkpt lat="44.604376274819266" lon="7.359704842144966"><ele>937.0</ele><time>2026-05-01T14:41:05.999Z</time></trkpt><trkpt lat="44.604327662712116" lon="7.359639098800804"><ele>933.0</ele><time>2026-05-01T14:41:06.999Z</time></trkpt><trkpt lat="44.60422099913416" lon="7.359533564555815"><ele>929.0</ele><time>2026-05-01T14:41:08.999Z</time></trkpt><trkpt lat="44.60412914568111" lon="7.359488266221651"><ele>925.0</ele><time>2026-05-01T14:41:10.999Z</time></trkpt><trkpt lat="44.604067107215705" lon="7.359472446309396"><ele>921.0</ele><time>2026-05-01T14:41:12.999Z</time></trkpt><trkpt lat="44.60398547798744" lon="7.35940390730757"><ele>917.0</ele><time>2026-05-01T14:41:14.999Z</time></trkpt><trkpt lat="44.60389664005178" lon="7.359265309103366"><ele>917.0</ele><time>2026-05-01T14:41:16.999Z</time></trkpt><trkpt lat="44.603828449228196" lon="7.359130780501168"><ele>917.0</ele><time>2026-05-01T14:41:17.999Z</time></trkpt><trkpt lat="44.60376098779497" lon="7.359061448923006"><ele>917.0</ele><time>2026-05-01T14:41:19.999Z</time></trkpt><trkpt lat="44.60367729136004" lon="7.359020324372571"><ele>917.0</ele><time>2026-05-01T14:41:21.999Z</time></trkpt><trkpt lat="44.6035742516406" lon="7.358978815576676"><ele>917.0</ele><time>2026-05-01T14:41:25.999Z</time></trkpt><trkpt lat="44.60348390345471" lon="7.358973295443295"><ele>913.4000000000001</ele><time>2026-05-01T14:41:27.999Z</time></trkpt><trkpt lat="44.60337098304565" lon="7.358972738978405"><ele>909.8000000000001</ele><time>2026-05-01T14:41:29.999Z</time></trkpt><trkpt lat="44.6032719419742" lon="7.358946534570809"><ele>906.2</ele><time>2026-05-01T14:41:32Z</time></trkpt><trkpt lat="44.60318847453728" lon="7.358876280873858"><ele>902.6</ele><time>2026-05-01T14:41:34Z</time></trkpt><trkpt lat="44.60313222749319" lon="7.358816282659686"><ele>899.0</ele><time>2026-05-01T14:41:36Z</time></trkpt><trkpt lat="44.60308943539469" lon="7.358712175501071"><ele>899.0</ele><time>2026-05-01T14:41:38Z</time></trkpt><trkpt lat="44.603043850004624" lon="7.358605085605279"><ele>899.0000000000001</ele><time>2026-05-01T14:41:41Z</time></trkpt><trkpt lat="44.602963377414646" lon="7.358620643698237"><ele>899.0000000000001</ele><time>2026-05-01T14:41:43Z</time></trkpt><trkpt lat="44.602895086332715" lon="7.358610201294488"><ele>899.0</ele><time>2026-05-01T14:41:45Z</time></trkpt><trkpt lat="44.60282179379549" lon="7.358515758155824"><ele>899.0</ele><time>2026-05-01T14:41:47Z</time></trkpt><trkpt lat="44.60272546026753" lon="7.3583686916381845"><ele>901.8000000000001</ele><time>2026-05-01T14:41:49Z</time></trkpt><trkpt lat="44.60263444507779" lon="7.358278980298646"><ele>904.6000000000001</ele><time>2026-05-01T14:41:51Z</time></trkpt><trkpt lat="44.6025635867721" lon="7.358237597403978"><ele>907.4</ele><time>2026-05-01T14:41:53Z</time></trkpt><trkpt lat="44.602472941540206" lon="7.358207562005345"><ele>910.2</ele><time>2026-05-01T14:41:56Z</time></trkpt><trkpt lat="44.60245300203821" lon="7.358085584742955"><ele>913.0</ele><time>2026-05-01T14:41:59Z</time></trkpt><trkpt lat="44.60250041409771" lon="7.357958554895348"><ele>912.9999999999999</ele><time>2026-05-01T14:42:01Z</time></trkpt><trkpt lat="44.60255634585992" lon="7.357861598395709"><ele>913.0</ele><time>2026-05-01T14:42:03Z</time></trkpt><trkpt lat="44.60258414459485" lon="7.357774703197367"><ele>913.0</ele><time>2026-05-01T14:42:05Z</time></trkpt><trkpt lat="44.60262094020534" lon="7.357670305442145"><ele>913.0</ele><time>2026-05-01T14:42:08Z</time></trkpt><trkpt lat="44.60260549494658" lon="7.357576399530469"><ele>912.9999999999999</ele><time>2026-05-01T14:42:11Z</time></trkpt><trkpt lat="44.60254358365862" lon="7.3575130173922"><ele>913.0</ele><time>2026-05-01T14:42:14Z</time></trkpt><trkpt lat="44.60250961154519" lon="7.357435523794966"><ele>912.9999999999999</ele><time>2026-05-01T14:42:16Z</time></trkpt><trkpt lat="44.602493426347834" lon="7.3573366501519715"><ele>913.0</ele><time>2026-05-01T14:42:18Z</time></trkpt><trkpt lat="44.60248603500623" lon="7.357219270662143"><ele>913.0</ele><time>2026-05-01T14:42:22Z</time></trkpt><trkpt lat="44.602449568535285" lon="7.357107222708345"><ele>913.0</ele><time>2026-05-01T14:42:26Z</time></trkpt><trkpt lat="44.60243017385594" lon="7.357013258422153"><ele>912.9999999999999</ele><time>2026-05-01T14:42:29Z</time></trkpt><trkpt lat="44.60238712765329" lon="7.3569426966176925"><ele>913.0</ele><time>2026-05-01T14:42:31Z</time></trkpt><trkpt lat="44.602332098681146" lon="7.356863368323822"><ele>911.4285714285713</ele><time>2026-05-01T14:42:33Z</time></trkpt><trkpt lat="44.60227979527178" lon="7.356794842736587"><ele>909.8571428571429</ele><time>2026-05-01T14:42:35Z</time></trkpt><trkpt lat="44.60225767672142" lon="7.356697901074467"><ele>908.2857142857142</ele><time>2026-05-01T14:42:39Z</time></trkpt><trkpt lat="44.60232142879524" lon="7.356672232900422"><ele>906.7142857142857</ele><time>2026-05-01T14:42:49Z</time></trkpt><trkpt lat="44.60239210713242" lon="7.356704903090839"><ele>905.1428571428571</ele><time>2026-05-01T14:42:52.999Z</time></trkpt><trkpt lat="44.60246028151982" lon="7.356730204729012"><ele>903.5714285714286</ele><time>2026-05-01T14:42:56.999Z</time></trkpt><trkpt lat="44.602529116343845" lon="7.356698542468872"><ele>902.0</ele><time>2026-05-01T14:42:59.999Z</time></trkpt><trkpt lat="44.60260707854756" lon="7.3566828577983685"><ele>902.0000000000001</ele><time>2026-05-01T14:43:02.999Z</time></trkpt><trkpt lat="44.60266683282097" lon="7.356712323590166"><ele>902.0</ele><time>2026-05-01T14:43:05.999Z</time></trkpt><trkpt lat="44.602744373762015" lon="7.356748824814697"><ele>902.0</ele><time>2026-05-01T14:43:08.999Z</time></trkpt><trkpt lat="44.602847457443346" lon="7.35673659566337"><ele>902.0</ele><time>2026-05-01T14:43:10.999Z</time></trkpt><trkpt lat="44.602946958938595" lon="7.356756579075864"><ele>902.0000000000001</ele><time>2026-05-01T14:43:13.999Z</time></trkpt><trkpt lat="44.60302932995062" lon="7.356747856005736"><ele>902.0</ele><time>2026-05-01T14:43:14.999Z</time></trkpt><trkpt lat="44.60315838391335" lon="7.356752980773071"><ele>898.6</ele><time>2026-05-01T14:43:15.999Z</time></trkpt><trkpt lat="44.60323858973121" lon="7.356753528002655"><ele>895.2</ele><time>2026-05-01T14:43:16.999Z</time></trkpt><trkpt lat="44.603314027214644" lon="7.356734856482166"><ele>891.8</ele><time>2026-05-01T14:43:17.999Z</time></trkpt><trkpt lat="44.60337186010625" lon="7.356691244143599"><ele>888.4</ele><time>2026-05-01T14:43:18.999Z</time></trkpt><trkpt lat="44.60349876516109" lon="7.356654211793315"><ele>885.0</ele><time>2026-05-01T14:43:20.999Z</time></trkpt><trkpt lat="44.603615628683364" lon="7.356645433003921"><ele>883.4</ele><time>2026-05-01T14:43:22.999Z</time></trkpt><trkpt lat="44.60371311277275" lon="7.356634740449076"><ele>881.8</ele><time>2026-05-01T14:43:24.999Z</time></trkpt><trkpt lat="44.603800243343954" lon="7.356648036583894"><ele>880.2</ele><time>2026-05-01T14:43:26.999Z</time></trkpt><trkpt lat="44.60389720408742" lon="7.356610864681945"><ele>878.6</ele><time>2026-05-01T14:43:28.999Z</time></trkpt><trkpt lat="44.603963152148246" lon="7.356498482290287"><ele>877.0</ele><time>2026-05-01T14:43:30.999Z</time></trkpt><trkpt lat="44.60403228303798" lon="7.356477476875123"><ele>877.0</ele><time>2026-05-01T14:43:32.999Z</time></trkpt><trkpt lat="44.60418556080516" lon="7.356473755456279"><ele>877.0</ele><time>2026-05-01T14:43:34.999Z</time></trkpt><trkpt lat="44.60425735729917" lon="7.356509935387163"><ele>877.0</ele><time>2026-05-01T14:43:35.999Z</time></trkpt><trkpt lat="44.60433641537319" lon="7.356519469830959"><ele>877.0</ele><time>2026-05-01T14:43:37Z</time></trkpt><trkpt lat="44.60439889319706" lon="7.356560432205211"><ele>877.0</ele><time>2026-05-01T14:43:38Z</time></trkpt><trkpt lat="44.60453383868091" lon="7.3566067685253005"><ele>878.3333333333333</ele><time>2026-05-01T14:43:40Z</time></trkpt><trkpt lat="44.60460150825331" lon="7.356623994978766"><ele>879.6666666666666</ele><time>2026-05-01T14:43:41Z</time></trkpt><trkpt lat="44.60466831776618" lon="7.356638410962959"><ele>881.0</ele><time>2026-05-01T14:43:42Z</time></trkpt><trkpt lat="44.60473216548415" lon="7.356645284840405"><ele>882.3333333333333</ele><time>2026-05-01T14:43:43Z</time></trkpt><trkpt lat="44.60481708904354" lon="7.356594030807087"><ele>883.6666666666666</ele><time>2026-05-01T14:43:45Z</time></trkpt><trkpt lat="44.60487321146786" lon="7.356470982643049"><ele>885.0</ele><time>2026-05-01T14:43:47Z</time></trkpt><trkpt lat="44.60492181452057" lon="7.356330401878451"><ele>885.0</ele><time>2026-05-01T14:43:49Z</time></trkpt><trkpt lat="44.60500245855839" lon="7.356266593198735"><ele>885.0</ele><time>2026-05-01T14:43:51Z</time></trkpt><trkpt lat="44.60511948053618" lon="7.356208804621509"><ele>885.0</ele><time>2026-05-01T14:43:53Z</time></trkpt><trkpt lat="44.605205714086466" lon="7.356208318227859"><ele>885.0</ele><time>2026-05-01T14:43:54Z</time></trkpt><trkpt lat="44.60528490958707" lon="7.356228479377972"><ele>885.0</ele><time>2026-05-01T14:43:55Z</time></trkpt><trkpt lat="44.605351237390586" lon="7.356237584983314"><ele>879.3333333333334</ele><time>2026-05-01T14:43:56Z</time></trkpt><trkpt lat="44.60541186377317" lon="7.356263159878343"><ele>873.6666666666667</ele><time>2026-05-01T14:43:57Z</time></trkpt><trkpt lat="44.605508845655855" lon="7.356289098947814"><ele>868.0</ele><time>2026-05-01T14:43:59Z</time></trkpt><trkpt lat="44.605571864681544" lon="7.356230231646161"><ele>862.3333333333334</ele><time>2026-05-01T14:44:02Z</time></trkpt><trkpt lat="44.605584828961085" lon="7.356122822177856"><ele>856.6666666666667</ele><time>2026-05-01T14:44:06Z</time></trkpt><trkpt lat="44.605535384031064" lon="7.356032927075272"><ele>851.0</ele><time>2026-05-01T14:44:08Z</time></trkpt><trkpt lat="44.605469879492375" lon="7.35590530171413"><ele>851.0</ele><time>2026-05-01T14:44:10Z</time></trkpt><trkpt lat="44.60543224190967" lon="7.355807410498085"><ele>851.0</ele><time>2026-05-01T14:44:11Z</time></trkpt><trkpt lat="44.60545146277231" lon="7.355636405970916"><ele>851.0</ele><time>2026-05-01T14:44:13Z</time></trkpt><trkpt lat="44.60544660179853" lon="7.3555459479683325"><ele>851.0</ele><time>2026-05-01T14:44:14Z</time></trkpt><trkpt lat="44.60543461362925" lon="7.3553812623627"><ele>851.0</ele><time>2026-05-01T14:44:16Z</time></trkpt><trkpt lat="44.60538212809395" lon="7.355294130820409"><ele>857.8</ele><time>2026-05-01T14:44:17Z</time></trkpt><trkpt lat="44.605357214849356" lon="7.355197596098978"><ele>864.5999999999999</ele><time>2026-05-01T14:44:19Z</time></trkpt><trkpt lat="44.60543127078301" lon="7.355088341534548"><ele>871.4</ele><time>2026-05-01T14:44:23Z</time></trkpt><trkpt lat="44.60553326015919" lon="7.355088903037036"><ele>878.2</ele><time>2026-05-01T14:44:24Z</time></trkpt><trkpt lat="44.60562851921487" lon="7.355086076127638"><ele>885.0</ele><time>2026-05-01T14:44:25Z</time></trkpt><trkpt lat="44.605717077434804" lon="7.355116155110828"><ele>885.0</ele><time>2026-05-01T14:44:26Z</time></trkpt><trkpt lat="44.60579904662715" lon="7.3551263723296545"><ele>885.0</ele><time>2026-05-01T14:44:27Z</time></trkpt><trkpt lat="44.60586628226193" lon="7.355143641066407"><ele>885.0</ele><time>2026-05-01T14:44:28Z</time></trkpt><trkpt lat="44.60592569129859" lon="7.355173331327308"><ele>885.0</ele><time>2026-05-01T14:44:29Z</time></trkpt><trkpt lat="44.60598819515276" lon="7.355194638288518"><ele>885.0</ele><time>2026-05-01T14:44:30Z</time></trkpt><trkpt lat="44.60606925457688" lon="7.355241658018299"><ele>885.0</ele><time>2026-05-01T14:44:31Z</time></trkpt><trkpt lat="44.606170371014855" lon="7.355277388970438"><ele>884.8</ele><time>2026-05-01T14:44:32Z</time></trkpt><trkpt lat="44.60626090237842" lon="7.355287013781401"><ele>884.6</ele><time>2026-05-01T14:44:33Z</time></trkpt><trkpt lat="44.606340976634506" lon="7.3552955037130685"><ele>884.4000000000001</ele><time>2026-05-01T14:44:34Z</time></trkpt><trkpt lat="44.606452409622776" lon="7.355328042691928"><ele>884.2</ele><time>2026-05-01T14:44:36Z</time></trkpt><trkpt lat="44.60655386628399" lon="7.355358710982507"><ele>884.0</ele><time>2026-05-01T14:44:38Z</time></trkpt><trkpt lat="44.60665194254821" lon="7.355423620566147"><ele>884.0000000000001</ele><time>2026-05-01T14:44:40Z</time></trkpt><trkpt lat="44.60670537194885" lon="7.355506435660188"><ele>884.0</ele><time>2026-05-01T14:44:42Z</time></trkpt><trkpt lat="44.60677237038674" lon="7.355557077805909"><ele>884.0</ele><time>2026-05-01T14:44:44Z</time></trkpt><trkpt lat="44.60683730237594" lon="7.355494203568746"><ele>884.0</ele><time>2026-05-01T14:44:46Z</time></trkpt><trkpt lat="44.6069067754729" lon="7.355425883296367"><ele>884.0000000000001</ele><time>2026-05-01T14:44:48Z</time></trkpt><trkpt lat="44.60695237767618" lon="7.355355643249886"><ele>884.0</ele><time>2026-05-01T14:44:50Z</time></trkpt><trkpt lat="44.60699604714348" lon="7.3552813290740255"><ele>877.6</ele><time>2026-05-01T14:44:51.999Z</time></trkpt><trkpt lat="44.607079200939424" lon="7.355221820391345"><ele>871.2</ele><time>2026-05-01T14:44:53.999Z</time></trkpt><trkpt lat="44.607162094128356" lon="7.355114477696058"><ele>864.8000000000001</ele><time>2026-05-01T14:44:55.999Z</time></trkpt><trkpt lat="44.60723861917158" lon="7.355083606445338"><ele>858.4000000000001</ele><time>2026-05-01T14:44:57.999Z</time></trkpt><trkpt lat="44.60731297622234" lon="7.355047198479398"><ele>852.0</ele><time>2026-05-01T14:44:59.999Z</time></trkpt><trkpt lat="44.607431865154425" lon="7.35504445418537"><ele>852.0</ele><time>2026-05-01T14:45:01.999Z</time></trkpt><trkpt lat="44.60753215496368" lon="7.355040975873892"><ele>852.0</ele><time>2026-05-01T14:45:03.999Z</time></trkpt><trkpt lat="44.60765797898726" lon="7.355016439144422"><ele>852.0</ele><time>2026-05-01T14:45:05.999Z</time></trkpt><trkpt lat="44.607717728923326" lon="7.354988413002729"><ele>852.0</ele><time>2026-05-01T14:45:06.999Z</time></trkpt><trkpt lat="44.60779275488461" lon="7.354967685889918"><ele>852.0</ele><time>2026-05-01T14:45:07.999Z</time></trkpt><trkpt lat="44.607879006390675" lon="7.354953865284532"><ele>847.6666666666666</ele><time>2026-05-01T14:45:08.999Z</time></trkpt><trkpt lat="44.60796788010467" lon="7.354949313015694"><ele>843.3333333333333</ele><time>2026-05-01T14:45:09.999Z</time></trkpt><trkpt lat="44.608057929292634" lon="7.35492281109677"><ele>839.0</ele><time>2026-05-01T14:45:10.999Z</time></trkpt><trkpt lat="44.6081248861544" lon="7.354901953367706"><ele>834.6666666666666</ele><time>2026-05-01T14:45:11.999Z</time></trkpt><trkpt lat="44.60821677348296" lon="7.354896824755604"><ele>830.3333333333333</ele><time>2026-05-01T14:45:13.999Z</time></trkpt><trkpt lat="44.608291871811254" lon="7.354947968688282"><ele>826.0</ele><time>2026-05-01T14:45:58Z</time></trkpt><trkpt lat="44.60835494547954" lon="7.354983258671265"><ele>825.9999999999999</ele><time>2026-05-01T14:46:00Z</time></trkpt><trkpt lat="44.608427543172596" lon="7.354957136544734"><ele>826.0</ele><time>2026-05-01T14:46:02Z</time></trkpt><trkpt lat="44.60848878595351" lon="7.354884724216353"><ele>826.0</ele><time>2026-05-01T14:46:04Z</time></trkpt><trkpt lat="44.60853817143922" lon="7.354731202343485"><ele>826.0</ele><time>2026-05-01T14:46:06Z</time></trkpt><trkpt lat="44.60857190033739" lon="7.354627029534453"><ele>825.9999999999999</ele><time>2026-05-01T14:46:07Z</time></trkpt><trkpt lat="44.60859764780842" lon="7.354535322356903"><ele>826.0</ele><time>2026-05-01T14:46:08Z</time></trkpt><trkpt lat="44.60864642134354" lon="7.354442136886245"><ele>825.6666666666666</ele><time>2026-05-01T14:46:09Z</time></trkpt><trkpt lat="44.6086918975393" lon="7.3543602684408"><ele>825.3333333333333</ele><time>2026-05-01T14:46:10Z</time></trkpt><trkpt lat="44.6087440525003" lon="7.354290560057093"><ele>825.0</ele><time>2026-05-01T14:46:11Z</time></trkpt><trkpt lat="44.60878576891318" lon="7.35421219130109"><ele>824.6666666666667</ele><time>2026-05-01T14:46:12Z</time></trkpt><trkpt lat="44.60886657471853" lon="7.354128737760198"><ele>824.3333333333334</ele><time>2026-05-01T14:46:13Z</time></trkpt><trkpt lat="44.60893131124981" lon="7.354090149997681"><ele>824.0</ele><time>2026-05-01T14:46:14Z</time></trkpt><trkpt lat="44.60902449651891" lon="7.354006343350478"><ele>824.0</ele><time>2026-05-01T14:46:15Z</time></trkpt><trkpt lat="44.60912816243771" lon="7.353984243902091"><ele>824.0</ele><time>2026-05-01T14:46:16Z</time></trkpt><trkpt lat="44.609212009723386" lon="7.353983178685206"><ele>824.0</ele><time>2026-05-01T14:46:17Z</time></trkpt><trkpt lat="44.60929351961219" lon="7.3539634764995325"><ele>824.0</ele><time>2026-05-01T14:46:19Z</time></trkpt><trkpt lat="44.6093552880995" lon="7.353853685250187"><ele>824.0</ele><time>2026-05-01T14:46:21Z</time></trkpt><trkpt lat="44.60935628383252" lon="7.353728785899871"><ele>827.5000000000001</ele><time>2026-05-01T14:46:23Z</time></trkpt><trkpt lat="44.609353793253916" lon="7.353629267184976"><ele>831.0</ele><time>2026-05-01T14:46:25Z</time></trkpt><trkpt lat="44.60934262226887" lon="7.353488485423362"><ele>834.5</ele><time>2026-05-01T14:46:27Z</time></trkpt><trkpt lat="44.60930087520057" lon="7.353314764979066"><ele>838.0</ele><time>2026-05-01T14:46:29Z</time></trkpt><trkpt lat="44.60928410025284" lon="7.35322838453939"><ele>841.5000000000001</ele><time>2026-05-01T14:46:30Z</time></trkpt><trkpt lat="44.60925359283437" lon="7.353119382367687"><ele>845.0</ele><time>2026-05-01T14:46:32Z</time></trkpt><trkpt lat="44.60927674394506" lon="7.353005663601037"><ele>848.6666666666667</ele><time>2026-05-01T14:46:34Z</time></trkpt><trkpt lat="44.60932731340743" lon="7.352909883567731"><ele>852.3333333333334</ele><time>2026-05-01T14:46:36Z</time></trkpt><trkpt lat="44.60942742245368" lon="7.352894775643994"><ele>856.0</ele><time>2026-05-01T14:46:38Z</time></trkpt><trkpt lat="44.60949425617667" lon="7.35288078435376"><ele>859.6666666666667</ele><time>2026-05-01T14:46:39Z</time></trkpt><trkpt lat="44.60959156141237" lon="7.352843059606015"><ele>863.3333333333334</ele><time>2026-05-01T14:46:41Z</time></trkpt><trkpt lat="44.609656039843166" lon="7.352782009428709"><ele>867.0</ele><time>2026-05-01T14:46:43Z</time></trkpt><trkpt lat="44.609697712045914" lon="7.352650867196457"><ele>858.0</ele><time>2026-05-01T14:46:45Z</time></trkpt><trkpt lat="44.60974943609352" lon="7.352552129499007"><ele>849.0</ele><time>2026-05-01T14:46:47Z</time></trkpt><trkpt lat="44.60988488740903" lon="7.35244341470609"><ele>840.0</ele><time>2026-05-01T14:46:48.999Z</time></trkpt><trkpt lat="44.60992662432526" lon="7.352372507566638"><ele>831.0</ele><time>2026-05-01T14:46:49.999Z</time></trkpt><trkpt lat="44.60998196230302" lon="7.352306940000839"><ele>822.0</ele><time>2026-05-01T14:46:50.999Z</time></trkpt><trkpt lat="44.61005730588449" lon="7.352284196125906"><ele>822.0</ele><time>2026-05-01T14:46:51.999Z</time></trkpt><trkpt lat="44.610161207961845" lon="7.352224620657854"><ele>822.0</ele><time>2026-05-01T14:46:54.999Z</time></trkpt><trkpt lat="44.61024093903869" lon="7.3522343087692645"><ele>822.0</ele><time>2026-05-01T14:46:58.999Z</time></trkpt><trkpt lat="44.61032608258825" lon="7.35216039327361"><ele>822.0</ele><time>2026-05-01T14:47:00.999Z</time></trkpt><trkpt lat="44.61038739926254" lon="7.352069507077089"><ele>822.0</ele><time>2026-05-01T14:47:01.999Z</time></trkpt><trkpt lat="44.610460431462506" lon="7.352017311788423"><ele>821.4000000000001</ele><time>2026-05-01T14:47:02.999Z</time></trkpt><trkpt lat="44.61055196836241" lon="7.351948338092144"><ele>820.8000000000001</ele><time>2026-05-01T14:47:03.999Z</time></trkpt><trkpt lat="44.610627819880555" lon="7.351929100132959"><ele>820.2</ele><time>2026-05-01T14:47:04.999Z</time></trkpt><trkpt lat="44.61070957473521" lon="7.351889289360024"><ele>819.6</ele><time>2026-05-01T14:47:05.999Z</time></trkpt><trkpt lat="44.61083718143813" lon="7.351821589559852"><ele>819.0</ele><time>2026-05-01T14:47:07.999Z</time></trkpt><trkpt lat="44.610956017445076" lon="7.351800075464337"><ele>819.0</ele><time>2026-05-01T14:47:09.999Z</time></trkpt><trkpt lat="44.611057671506686" lon="7.351796770314501"><ele>819.0</ele><time>2026-05-01T14:47:11.999Z</time></trkpt><trkpt lat="44.61113293639427" lon="7.351799479276248"><ele>819.0</ele><time>2026-05-01T14:47:13.999Z</time></trkpt><trkpt lat="44.611208626950294" lon="7.35180684082963"><ele>819.0</ele><time>2026-05-01T14:47:15.999Z</time></trkpt><trkpt lat="44.61129825212412" lon="7.3518171500898415"><ele>819.0</ele><time>2026-05-01T14:47:18.999Z</time></trkpt><trkpt lat="44.61136555938712" lon="7.3517446595130025"><ele>819.0</ele><time>2026-05-01T14:47:20.999Z</time></trkpt><trkpt lat="44.61140608177986" lon="7.351609689013398"><ele>814.8333333333334</ele><time>2026-05-01T14:47:22.999Z</time></trkpt><trkpt lat="44.61138356300151" lon="7.351466989690795"><ele>810.6666666666667</ele><time>2026-05-01T14:47:24.999Z</time></trkpt><trkpt lat="44.61135775874758" lon="7.351374520889736"><ele>806.5</ele><time>2026-05-01T14:47:25.999Z</time></trkpt><trkpt lat="44.61132488302791" lon="7.3512711622461415"><ele>802.3333333333334</ele><time>2026-05-01T14:47:26.999Z</time></trkpt><trkpt lat="44.61126892810902" lon="7.3511523377736046"><ele>798.1666666666667</ele><time>2026-05-01T14:47:28.999Z</time></trkpt><trkpt lat="44.611279615984884" lon="7.351023586884553"><ele>794.0</ele><time>2026-05-01T14:47:30.999Z</time></trkpt><trkpt lat="44.611302266946545" lon="7.35093744659912"><ele>792.4000000000001</ele><time>2026-05-01T14:47:31.999Z</time></trkpt><trkpt lat="44.61132853835565" lon="7.350846318873813"><ele>790.8</ele><time>2026-05-01T14:47:32.999Z</time></trkpt><trkpt lat="44.611360473605224" lon="7.350762449538678"><ele>789.2</ele><time>2026-05-01T14:47:33.999Z</time></trkpt><trkpt lat="44.611385263174284" lon="7.350670677969476"><ele>787.5999999999999</ele><time>2026-05-01T14:47:34.999Z</time></trkpt><trkpt lat="44.611438447138354" lon="7.350531128941671"><ele>786.0</ele><time>2026-05-01T14:47:36.999Z</time></trkpt><trkpt lat="44.61149661439239" lon="7.35035704476558"><ele>784.5999999999999</ele><time>2026-05-01T14:47:38.999Z</time></trkpt><trkpt lat="44.61149921412132" lon="7.350252546893544"><ele>783.2</ele><time>2026-05-01T14:47:39.999Z</time></trkpt><trkpt lat="44.61152289341733" lon="7.350141284019973"><ele>781.8</ele><time>2026-05-01T14:47:40.999Z</time></trkpt><trkpt lat="44.611547148787174" lon="7.350039077451709"><ele>780.4000000000001</ele><time>2026-05-01T14:47:41.999Z</time></trkpt><trkpt lat="44.61155633345754" lon="7.3498825660869205"><ele>779.0</ele><time>2026-05-01T14:47:43.999Z</time></trkpt><trkpt lat="44.61148843823692" lon="7.349738041914924"><ele>778.6</ele><time>2026-05-01T14:47:45.999Z</time></trkpt><trkpt lat="44.611426314166" lon="7.349663835771737"><ele>778.2</ele><time>2026-05-01T14:47:46.999Z</time></trkpt><trkpt lat="44.61133348409246" lon="7.349577062628897"><ele>777.8000000000001</ele><time>2026-05-01T14:47:49Z</time></trkpt><trkpt lat="44.61124028786893" lon="7.349495065601981"><ele>777.4000000000001</ele><time>2026-05-01T14:47:51Z</time></trkpt><trkpt lat="44.61116665682306" lon="7.349367527292149"><ele>777.0</ele><time>2026-05-01T14:47:53Z</time></trkpt><trkpt lat="44.611123821845766" lon="7.349300995859735"><ele>777.0</ele><time>2026-05-01T14:47:54Z</time></trkpt><trkpt lat="44.61104602871952" lon="7.3491969725377295"><ele>777.0</ele><time>2026-05-01T14:47:56Z</time></trkpt><trkpt lat="44.61095120266759" lon="7.349104649154993"><ele>777.0</ele><time>2026-05-01T14:47:58Z</time></trkpt><trkpt lat="44.61083063349923" lon="7.3490496362183055"><ele>777.0</ele><time>2026-05-01T14:48:00Z</time></trkpt><trkpt lat="44.61071872206268" lon="7.349062186901947"><ele>777.0</ele><time>2026-05-01T14:48:02Z</time></trkpt><trkpt lat="44.61061249828102" lon="7.349020858011913"><ele>777.0</ele><time>2026-05-01T14:48:04Z</time></trkpt><trkpt lat="44.610537975256314" lon="7.348952180731163"><ele>777.0</ele><time>2026-05-01T14:48:06Z</time></trkpt><trkpt lat="44.61046154659927" lon="7.348905929265358"><ele>777.0</ele><time>2026-05-01T14:48:08Z</time></trkpt><trkpt lat="44.610377431119964" lon="7.3488297135680725"><ele>777.0</ele><time>2026-05-01T14:48:10Z</time></trkpt><trkpt lat="44.61028900783769" lon="7.348801427844273"><ele>777.0</ele><time>2026-05-01T14:48:12Z</time></trkpt><trkpt lat="44.610178547716274" lon="7.34889343092541"><ele>777.0</ele><time>2026-05-01T14:48:14Z</time></trkpt><trkpt lat="44.6100861632172" lon="7.348916245492202"><ele>777.0</ele><time>2026-05-01T14:48:16Z</time></trkpt><trkpt lat="44.610006141113324" lon="7.348780496510172"><ele>777.0</ele><time>2026-05-01T14:48:18Z</time></trkpt><trkpt lat="44.60999360557184" lon="7.348648720070382"><ele>777.0</ele><time>2026-05-01T14:48:19Z</time></trkpt><trkpt lat="44.60997128206095" lon="7.348564687672059"><ele>774.0</ele><time>2026-05-01T14:48:20Z</time></trkpt><trkpt lat="44.6099095989716" lon="7.348481700288657"><ele>771.0</ele><time>2026-05-01T14:48:21Z</time></trkpt><trkpt lat="44.609846714049475" lon="7.348395362979232"><ele>768.0</ele><time>2026-05-01T14:48:22Z</time></trkpt><trkpt lat="44.60978779135073" lon="7.34831977838944"><ele>765.0</ele><time>2026-05-01T14:48:23Z</time></trkpt><trkpt lat="44.60973038434498" lon="7.348267104874601"><ele>762.0</ele><time>2026-05-01T14:48:24Z</time></trkpt><trkpt lat="44.60968538769891" lon="7.348179296756593"><ele>759.0</ele><time>2026-05-01T14:48:25Z</time></trkpt><trkpt lat="44.60965098184636" lon="7.348093175851579"><ele>758.0</ele><time>2026-05-01T14:48:26Z</time></trkpt><trkpt lat="44.60960720231039" lon="7.348015581543686"><ele>757.0</ele><time>2026-05-01T14:48:27Z</time></trkpt><trkpt lat="44.60955304631912" lon="7.347856321815342"><ele>756.0</ele><time>2026-05-01T14:48:29Z</time></trkpt><trkpt lat="44.60949834800081" lon="7.3477078284877395"><ele>755.0</ele><time>2026-05-01T14:48:31Z</time></trkpt><trkpt lat="44.60945274799695" lon="7.347629237435368"><ele>754.0</ele><time>2026-05-01T14:48:33Z</time></trkpt><trkpt lat="44.60944012401008" lon="7.347475088345936"><ele>754.0</ele><time>2026-05-01T14:48:35Z</time></trkpt><trkpt lat="44.609482808574626" lon="7.3473923429125145"><ele>754.0</ele><time>2026-05-01T14:48:37Z</time></trkpt><trkpt lat="44.60953396683778" lon="7.347305241303758"><ele>754.0</ele><time>2026-05-01T14:48:39Z</time></trkpt><trkpt lat="44.609593951282086" lon="7.3472458126778015"><ele>754.0</ele><time>2026-05-01T14:48:41Z</time></trkpt><trkpt lat="44.609673068926426" lon="7.347198019430779"><ele>754.0</ele><time>2026-05-01T14:48:43Z</time></trkpt><trkpt lat="44.60979539988431" lon="7.34717559495605"><ele>754.0</ele><time>2026-05-01T14:48:45Z</time></trkpt><trkpt lat="44.609866134165905" lon="7.347188718377475"><ele>754.0</ele><time>2026-05-01T14:48:46Z</time></trkpt><trkpt lat="44.60994197613714" lon="7.347186984780962"><ele>754.0</ele><time>2026-05-01T14:48:47Z</time></trkpt><trkpt lat="44.61001829520666" lon="7.347187945375443"><ele>754.0</ele><time>2026-05-01T14:48:48Z</time></trkpt><trkpt lat="44.61008974654702" lon="7.34719608955394"><ele>754.0</ele><time>2026-05-01T14:48:49Z</time></trkpt><trkpt lat="44.61021153960375" lon="7.347243315226812"><ele>754.0</ele><time>2026-05-01T14:48:51Z</time></trkpt><trkpt lat="44.610273207433075" lon="7.347285710964765"><ele>754.0</ele><time>2026-05-01T14:48:51.999Z</time></trkpt><trkpt lat="44.61038136618517" lon="7.347358613346909"><ele>750.8000000000001</ele><time>2026-05-01T14:48:53.999Z</time></trkpt><trkpt lat="44.61050289097518" lon="7.347424030742155"><ele>747.6</ele><time>2026-05-01T14:48:55.999Z</time></trkpt><trkpt lat="44.61056913744781" lon="7.347442539408061"><ele>744.4</ele><time>2026-05-01T14:48:56.999Z</time></trkpt><trkpt lat="44.61067795742743" lon="7.347490954290183"><ele>741.2</ele><time>2026-05-01T14:48:58.999Z</time></trkpt><trkpt lat="44.61079110093643" lon="7.347553992028247"><ele>738.0</ele><time>2026-05-01T14:49:00.999Z</time></trkpt><trkpt lat="44.6108514037995" lon="7.347599900392073"><ele>738.0</ele><time>2026-05-01T14:49:01.999Z</time></trkpt><trkpt lat="44.61090454916278" lon="7.347656154765094"><ele>738.0</ele><time>2026-05-01T14:49:02.999Z</time></trkpt><trkpt lat="44.61096336511878" lon="7.3477281882352665"><ele>738.0</ele><time>2026-05-01T14:49:03.999Z</time></trkpt><trkpt lat="44.61102282223807" lon="7.347784729436845"><ele>738.0</ele><time>2026-05-01T14:49:04.999Z</time></trkpt><trkpt lat="44.61113196477523" lon="7.347804622807062"><ele>738.0</ele><time>2026-05-01T14:49:06.999Z</time></trkpt><trkpt lat="44.61119380139478" lon="7.3478271793544945"><ele>738.0</ele><time>2026-05-01T14:49:07.999Z</time></trkpt><trkpt lat="44.61125642259967" lon="7.347848438826267"><ele>736.4</ele><time>2026-05-01T14:49:08.999Z</time></trkpt><trkpt lat="44.61132119829281" lon="7.347871756035581"><ele>734.8</ele><time>2026-05-01T14:49:09.999Z</time></trkpt><trkpt lat="44.61142913866449" lon="7.34794255622669"><ele>733.2</ele><time>2026-05-01T14:49:11.999Z</time></trkpt><trkpt lat="44.61151855428723" lon="7.348022159776659"><ele>731.6</ele><time>2026-05-01T14:49:13.999Z</time></trkpt><trkpt lat="44.61161372352553" lon="7.348095454302585"><ele>730.0</ele><time>2026-05-01T14:49:15.999Z</time></trkpt><trkpt lat="44.611705053665965" lon="7.3481777260617935"><ele>730.0</ele><time>2026-05-01T14:49:17.999Z</time></trkpt><trkpt lat="44.6117393670107" lon="7.348258083288442"><ele>730.0</ele><time>2026-05-01T14:49:18.999Z</time></trkpt><trkpt lat="44.611785765826646" lon="7.348335102434271"><ele>730.0</ele><time>2026-05-01T14:49:19.999Z</time></trkpt><trkpt lat="44.611847803976616" lon="7.348394783469952"><ele>730.0</ele><time>2026-05-01T14:49:20.999Z</time></trkpt><trkpt lat="44.61189760439354" lon="7.3484675378816915"><ele>730.0</ele><time>2026-05-01T14:49:21.999Z</time></trkpt><trkpt lat="44.61200383220772" lon="7.3485588664742885"><ele>730.0</ele><time>2026-05-01T14:49:23.999Z</time></trkpt><trkpt lat="44.61214750371114" lon="7.348589152805811"><ele>725.8333333333334</ele><time>2026-05-01T14:49:25.999Z</time></trkpt><trkpt lat="44.61222774364564" lon="7.348600874748959"><ele>721.6666666666667</ele><time>2026-05-01T14:49:26.999Z</time></trkpt><trkpt lat="44.61231718286546" lon="7.348615500514031"><ele>717.5</ele><time>2026-05-01T14:49:27.999Z</time></trkpt><trkpt lat="44.612408515744335" lon="7.348633292220029"><ele>713.3333333333334</ele><time>2026-05-01T14:49:28.999Z</time></trkpt><trkpt lat="44.61250061116733" lon="7.348661497767215"><ele>709.1666666666666</ele><time>2026-05-01T14:49:29.999Z</time></trkpt><trkpt lat="44.61258734323528" lon="7.348689913182103"><ele>705.0</ele><time>2026-05-01T14:49:30.999Z</time></trkpt><trkpt lat="44.61266304233773" lon="7.348725937494958"><ele>705.0</ele><time>2026-05-01T14:49:31.999Z</time></trkpt><trkpt lat="44.61274677818633" lon="7.348755023188827"><ele>705.0</ele><time>2026-05-01T14:49:32.999Z</time></trkpt><trkpt lat="44.61282739480517" lon="7.348789948734969"><ele>705.0</ele><time>2026-05-01T14:49:33.999Z</time></trkpt><trkpt lat="44.6129119082578" lon="7.348828314305406"><ele>705.0</ele><time>2026-05-01T14:49:34.999Z</time></trkpt><trkpt lat="44.612988359422594" lon="7.348860510054142"><ele>705.0</ele><time>2026-05-01T14:49:35.999Z</time></trkpt><trkpt lat="44.613054801410776" lon="7.348900916774171"><ele>705.0</ele><time>2026-05-01T14:49:36.999Z</time></trkpt><trkpt lat="44.613120374153894" lon="7.348953073459798"><ele>701.8333333333334</ele><time>2026-05-01T14:49:37.999Z</time></trkpt><trkpt lat="44.61318802171294" lon="7.349009048654824"><ele>698.6666666666666</ele><time>2026-05-01T14:49:38.999Z</time></trkpt><trkpt lat="44.613245242664455" lon="7.349072711349509"><ele>695.5</ele><time>2026-05-01T14:49:39.999Z</time></trkpt><trkpt lat="44.61333675021152" lon="7.3491544915247635"><ele>692.3333333333333</ele><time>2026-05-01T14:49:41.999Z</time></trkpt><trkpt lat="44.61342037757488" lon="7.349235411886107"><ele>689.1666666666666</ele><time>2026-05-01T14:49:43.999Z</time></trkpt><trkpt lat="44.61347794611271" lon="7.349292447813977"><ele>686.0</ele><time>2026-05-01T14:49:44.999Z</time></trkpt><trkpt lat="44.613533434540436" lon="7.349359276296244"><ele>686.0</ele><time>2026-05-01T14:49:45.999Z</time></trkpt><trkpt lat="44.613607483561054" lon="7.349451575197748"><ele>686.0</ele><time>2026-05-01T14:49:46.999Z</time></trkpt><trkpt lat="44.61367312229062" lon="7.3495359150423685"><ele>686.0</ele><time>2026-05-01T14:49:47.999Z</time></trkpt><trkpt lat="44.61373096658822" lon="7.3496116272459355"><ele>686.0</ele><time>2026-05-01T14:49:48.999Z</time></trkpt><trkpt lat="44.613792902627914" lon="7.34966648010187"><ele>686.0</ele><time>2026-05-01T14:49:49.999Z</time></trkpt><trkpt lat="44.61383500351596" lon="7.349754030588318"><ele>686.0</ele><time>2026-05-01T14:49:50.999Z</time></trkpt><trkpt lat="44.61387974744366" lon="7.349842489364131"><ele>682.8</ele><time>2026-05-01T14:49:51.999Z</time></trkpt><trkpt lat="44.613923342981224" lon="7.349936502079521"><ele>679.5999999999999</ele><time>2026-05-01T14:49:52.999Z</time></trkpt><trkpt lat="44.61395357398389" lon="7.3500199255493905"><ele>676.4</ele><time>2026-05-01T14:49:54Z</time></trkpt><trkpt lat="44.61402691970829" lon="7.3501476268095045"><ele>673.2</ele><time>2026-05-01T14:49:56Z</time></trkpt><trkpt lat="44.61408072831489" lon="7.3502030909796465"><ele>670.0</ele><time>2026-05-01T14:49:57Z</time></trkpt><trkpt lat="44.61416106264278" lon="7.350330125928745"><ele>670.0</ele><time>2026-05-01T14:49:59Z</time></trkpt><trkpt lat="44.61426198811164" lon="7.350466286912371"><ele>670.0</ele><time>2026-05-01T14:50:01Z</time></trkpt><trkpt lat="44.6143172828032" lon="7.350524967762092"><ele>670.0</ele><time>2026-05-01T14:50:02Z</time></trkpt><trkpt lat="44.614433351094746" lon="7.350606789956114"><ele>670.0</ele><time>2026-05-01T14:50:04Z</time></trkpt><trkpt lat="44.6145543383262" lon="7.350617628827811"><ele>667.0</ele><time>2026-05-01T14:50:06Z</time></trkpt><trkpt lat="44.61465577314744" lon="7.350593010725374"><ele>664.0</ele><time>2026-05-01T14:50:08Z</time></trkpt><trkpt lat="44.6147650045781" lon="7.3505705946683175"><ele>661.0</ele><time>2026-05-01T14:50:10Z</time></trkpt><trkpt lat="44.614832193840975" lon="7.35055077454821"><ele>658.0</ele><time>2026-05-01T14:50:11Z</time></trkpt><trkpt lat="44.61489815345469" lon="7.350530696528939"><ele>655.0</ele><time>2026-05-01T14:50:12Z</time></trkpt><trkpt lat="44.615007448782585" lon="7.3505196709559035"><ele>655.0</ele><time>2026-05-01T14:50:14Z</time></trkpt><trkpt lat="44.615081056453384" lon="7.3505041559569175"><ele>655.0</ele><time>2026-05-01T14:50:16Z</time></trkpt><trkpt lat="44.615158531215805" lon="7.35049917514458"><ele>655.0</ele><time>2026-05-01T14:50:18Z</time></trkpt><trkpt lat="44.61526827707238" lon="7.350523659830061"><ele>655.0</ele><time>2026-05-01T14:50:20Z</time></trkpt><trkpt lat="44.615330279432754" lon="7.350552672773646"><ele>655.0</ele><time>2026-05-01T14:50:21Z</time></trkpt><trkpt lat="44.61542983276541" lon="7.350612597727648"><ele>655.0</ele><time>2026-05-01T14:50:23Z</time></trkpt><trkpt lat="44.61547813245023" lon="7.350742184144932"><ele>653.0</ele><time>2026-05-01T14:50:25Z</time></trkpt><trkpt lat="44.61552376762218" lon="7.35087222602053"><ele>651.0</ele><time>2026-05-01T14:50:27Z</time></trkpt><trkpt lat="44.61558243249176" lon="7.3510046605181385"><ele>649.0</ele><time>2026-05-01T14:50:29Z</time></trkpt><trkpt lat="44.615663784675675" lon="7.351127031641993"><ele>647.0</ele><time>2026-05-01T14:50:31Z</time></trkpt><trkpt lat="44.61572720377921" lon="7.351145166432198"><ele>645.0</ele><time>2026-05-01T14:50:32Z</time></trkpt><trkpt lat="44.615827308468674" lon="7.351120339716463"><ele>645.0</ele><time>2026-05-01T14:50:34Z</time></trkpt><trkpt lat="44.61593026391748" lon="7.351143004735089"><ele>645.0</ele><time>2026-05-01T14:50:36Z</time></trkpt><trkpt lat="44.61603351981636" lon="7.351206452713584"><ele>645.0</ele><time>2026-05-01T14:50:38Z</time></trkpt><trkpt lat="44.6161191036179" lon="7.351275040135427"><ele>645.0</ele><time>2026-05-01T14:50:40Z</time></trkpt><trkpt lat="44.61619249648901" lon="7.351371360712246"><ele>645.0</ele><time>2026-05-01T14:50:42Z</time></trkpt><trkpt lat="44.61626931713454" lon="7.3514785798759865"><ele>642.0</ele><time>2026-05-01T14:50:44Z</time></trkpt><trkpt lat="44.6163513964362" lon="7.351572053931543"><ele>639.0</ele><time>2026-05-01T14:50:46Z</time></trkpt><trkpt lat="44.616421974873155" lon="7.351636962204641"><ele>636.0</ele><time>2026-05-01T14:50:48Z</time></trkpt><trkpt lat="44.6165143059881" lon="7.351705485404963"><ele>633.0</ele><time>2026-05-01T14:50:50Z</time></trkpt><trkpt lat="44.61659191043326" lon="7.351756842878844"><ele>630.0</ele><time>2026-05-01T14:50:51.999Z</time></trkpt><trkpt lat="44.61666599228368" lon="7.351797406597005"><ele>630.0</ele><time>2026-05-01T14:50:53.999Z</time></trkpt><trkpt lat="44.61673435418983" lon="7.351833142326708"><ele>630.0</ele><time>2026-05-01T14:50:55.999Z</time></trkpt><trkpt lat="44.616843389807926" lon="7.351896456644794"><ele>630.0</ele><time>2026-05-01T14:50:57.999Z</time></trkpt><trkpt lat="44.616943482100055" lon="7.351985897929638"><ele>630.0</ele><time>2026-05-01T14:50:59.999Z</time></trkpt><trkpt lat="44.617001768494035" lon="7.352044479684029"><ele>630.0</ele><time>2026-05-01T14:51:00.999Z</time></trkpt><trkpt lat="44.617038922444095" lon="7.352117925582859"><ele>630.0</ele><time>2026-05-01T14:51:01.999Z</time></trkpt><trkpt lat="44.61709944130728" lon="7.352200449064852"><ele>627.1666666666666</ele><time>2026-05-01T14:51:02.999Z</time></trkpt><trkpt lat="44.61716748978545" lon="7.352293240075889"><ele>624.3333333333334</ele><time>2026-05-01T14:51:03.999Z</time></trkpt><trkpt lat="44.61724435480263" lon="7.3523993919670705"><ele>621.5</ele><time>2026-05-01T14:51:04.999Z</time></trkpt><trkpt lat="44.617302478521964" lon="7.352462923203992"><ele>618.6666666666667</ele><time>2026-05-01T14:51:05.999Z</time></trkpt><trkpt lat="44.617389091631466" lon="7.352547185468325"><ele>615.8333333333334</ele><time>2026-05-01T14:51:06.999Z</time></trkpt><trkpt lat="44.61744665417161" lon="7.35259529591021"><ele>613.0</ele><time>2026-05-01T14:51:07.999Z</time></trkpt><trkpt lat="44.6175082665757" lon="7.352644558818321"><ele>613.0</ele><time>2026-05-01T14:51:08.999Z</time></trkpt><trkpt lat="44.61757141660099" lon="7.352694626162568"><ele>613.0</ele><time>2026-05-01T14:51:09.999Z</time></trkpt><trkpt lat="44.61764240238368" lon="7.352751597599723"><ele>613.0</ele><time>2026-05-01T14:51:10.999Z</time></trkpt><trkpt lat="44.61770994372784" lon="7.352812091036444"><ele>613.0</ele><time>2026-05-01T14:51:11.999Z</time></trkpt><trkpt lat="44.61777623629173" lon="7.35287786468572"><ele>613.0</ele><time>2026-05-01T14:51:12.999Z</time></trkpt><trkpt lat="44.61784391189081" lon="7.352943166118433"><ele>613.0</ele><time>2026-05-01T14:51:13.999Z</time></trkpt><trkpt lat="44.617891714988694" lon="7.353031079266899"><ele>610.3333333333334</ele><time>2026-05-01T14:51:14.999Z</time></trkpt><trkpt lat="44.617961911470914" lon="7.353113938517922"><ele>607.6666666666667</ele><time>2026-05-01T14:51:15.999Z</time></trkpt><trkpt lat="44.618019680346784" lon="7.353221289690046"><ele>605.0</ele><time>2026-05-01T14:51:16.999Z</time></trkpt><trkpt lat="44.61809371336028" lon="7.353283735038172"><ele>602.3333333333334</ele><time>2026-05-01T14:51:17.999Z</time></trkpt><trkpt lat="44.61815410290454" lon="7.3533511367077296"><ele>599.6666666666666</ele><time>2026-05-01T14:51:18.999Z</time></trkpt><trkpt lat="44.61821020029481" lon="7.353427495568783"><ele>597.0</ele><time>2026-05-01T14:51:19.999Z</time></trkpt><trkpt lat="44.618256101172236" lon="7.353505331242077"><ele>597.0</ele><time>2026-05-01T14:51:20.999Z</time></trkpt><trkpt lat="44.61831004094568" lon="7.35358974504266"><ele>597.0</ele><time>2026-05-01T14:51:21.999Z</time></trkpt><trkpt lat="44.61834731567079" lon="7.353701941562228"><ele>597.0</ele><time>2026-05-01T14:51:22.999Z</time></trkpt><trkpt lat="44.61839215771643" lon="7.353787104146603"><ele>597.0</ele><time>2026-05-01T14:51:23.999Z</time></trkpt><trkpt lat="44.61844801016329" lon="7.353858618986053"><ele>597.0</ele><time>2026-05-01T14:51:24.999Z</time></trkpt><trkpt lat="44.61850281778898" lon="7.353927937579565"><ele>597.0</ele><time>2026-05-01T14:51:25.999Z</time></trkpt><trkpt lat="44.61856256428069" lon="7.354002908493244"><ele>597.3333333333334</ele><time>2026-05-01T14:51:26.999Z</time></trkpt><trkpt lat="44.618625161647905" lon="7.354081206024871"><ele>597.6666666666666</ele><time>2026-05-01T14:51:27.999Z</time></trkpt><trkpt lat="44.61869363369794" lon="7.354166851696845"><ele>598.0</ele><time>2026-05-01T14:51:28.999Z</time></trkpt><trkpt lat="44.61876720189208" lon="7.354258871559774"><ele>598.3333333333333</ele><time>2026-05-01T14:51:29.999Z</time></trkpt><trkpt lat="44.618835281527275" lon="7.354344026475204"><ele>598.6666666666666</ele><time>2026-05-01T14:51:30.999Z</time></trkpt><trkpt lat="44.61889374985765" lon="7.354415499708463"><ele>599.0</ele><time>2026-05-01T14:51:31.999Z</time></trkpt><trkpt lat="44.61895357383531" lon="7.354487468685319"><ele>596.3333333333333</ele><time>2026-05-01T14:51:32.999Z</time></trkpt><trkpt lat="44.619018821290084" lon="7.3545659624368485"><ele>593.6666666666666</ele><time>2026-05-01T14:51:33.999Z</time></trkpt><trkpt lat="44.61908365989999" lon="7.354636484457596"><ele>591.0</ele><time>2026-05-01T14:51:34.999Z</time></trkpt><trkpt lat="44.619140489328785" lon="7.354700740242008"><ele>588.3333333333334</ele><time>2026-05-01T14:51:35.999Z</time></trkpt><trkpt lat="44.61920542168577" lon="7.354752191052016"><ele>585.6666666666667</ele><time>2026-05-01T14:51:36.999Z</time></trkpt><trkpt lat="44.619262414815594" lon="7.354831954471127"><ele>583.0</ele><time>2026-05-01T14:51:37.999Z</time></trkpt><trkpt lat="44.61932197180595" lon="7.354914534555285"><ele>582.1666666666667</ele><time>2026-05-01T14:51:38.999Z</time></trkpt><trkpt lat="44.61937132270692" lon="7.3550161658819855"><ele>581.3333333333334</ele><time>2026-05-01T14:51:39.999Z</time></trkpt><trkpt lat="44.6194240568001" lon="7.355121495985656"><ele>580.5</ele><time>2026-05-01T14:51:40.999Z</time></trkpt><trkpt lat="44.619484197186566" lon="7.3552196096319795"><ele>579.6666666666666</ele><time>2026-05-01T14:51:41.999Z</time></trkpt><trkpt lat="44.61954190357064" lon="7.355304955928313"><ele>578.8333333333333</ele><time>2026-05-01T14:51:42.999Z</time></trkpt><trkpt lat="44.61960974568927" lon="7.355358757529693"><ele>578.0</ele><time>2026-05-01T14:51:43.999Z</time></trkpt><trkpt lat="44.61966120155469" lon="7.355427105667167"><ele>576.1666666666666</ele><time>2026-05-01T14:51:44.999Z</time></trkpt><trkpt lat="44.619708398937206" lon="7.355487989737423"><ele>574.3333333333333</ele><time>2026-05-01T14:51:45.999Z</time></trkpt><trkpt lat="44.619724317591704" lon="7.355575508322334"><ele>572.5</ele><time>2026-05-01T14:51:46.999Z</time></trkpt><trkpt lat="44.61980597319328" lon="7.35567333876669"><ele>570.6666666666666</ele><time>2026-05-01T14:51:48.999Z</time></trkpt><trkpt lat="44.619882455780306" lon="7.355743497893803"><ele>568.8333333333334</ele><time>2026-05-01T14:51:50.999Z</time></trkpt><trkpt lat="44.619957634718155" lon="7.355753398832125"><ele>567.0</ele><time>2026-05-01T14:51:52.999Z</time></trkpt><trkpt lat="44.620064137684174" lon="7.355798371023334"><ele>566.5</ele><time>2026-05-01T14:51:54.999Z</time></trkpt><trkpt lat="44.62013207477165" lon="7.355820588089257"><ele>566.0</ele><time>2026-05-01T14:51:55.999Z</time></trkpt><trkpt lat="44.62020074192901" lon="7.35586983437281"><ele>565.5</ele><time>2026-05-01T14:51:56.999Z</time></trkpt><trkpt lat="44.62027220810932" lon="7.355896822405232"><ele>565.0</ele><time>2026-05-01T14:51:57.999Z</time></trkpt><trkpt lat="44.620347143604086" lon="7.355925120667548"><ele>564.5</ele><time>2026-05-01T14:51:59Z</time></trkpt><trkpt lat="44.62042150574393" lon="7.355953202295302"><ele>564.0</ele><time>2026-05-01T14:52:00Z</time></trkpt><trkpt lat="44.62049575265092" lon="7.355958524159211"><ele>562.5714285714286</ele><time>2026-05-01T14:52:01Z</time></trkpt><trkpt lat="44.62056109720034" lon="7.35599077600185"><ele>561.1428571428571</ele><time>2026-05-01T14:52:02Z</time></trkpt><trkpt lat="44.620621975473185" lon="7.356015954913389"><ele>559.7142857142857</ele><time>2026-05-01T14:52:03Z</time></trkpt><trkpt lat="44.62068607220415" lon="7.356038148086017"><ele>558.2857142857142</ele><time>2026-05-01T14:52:04Z</time></trkpt><trkpt lat="44.62075735419713" lon="7.356067215925879"><ele>556.8571428571428</ele><time>2026-05-01T14:52:05Z</time></trkpt><trkpt lat="44.62083018561935" lon="7.356113425585932"><ele>555.4285714285714</ele><time>2026-05-01T14:52:06Z</time></trkpt><trkpt lat="44.62090569982925" lon="7.356176203247521"><ele>554.0</ele><time>2026-05-01T14:52:07Z</time></trkpt><trkpt lat="44.62098665183961" lon="7.356242374766263"><ele>554.0</ele><time>2026-05-01T14:52:08Z</time></trkpt><trkpt lat="44.62105995447561" lon="7.356307510784458"><ele>554.0</ele><time>2026-05-01T14:52:09Z</time></trkpt><trkpt lat="44.6211189918599" lon="7.356353241838593"><ele>554.0</ele><time>2026-05-01T14:52:10Z</time></trkpt><trkpt lat="44.621174381947895" lon="7.356398212330485"><ele>554.0</ele><time>2026-05-01T14:52:11Z</time></trkpt><trkpt lat="44.62122881559651" lon="7.356447846519933"><ele>554.0</ele><time>2026-05-01T14:52:12Z</time></trkpt><trkpt lat="44.621294795864905" lon="7.35658066983184"><ele>554.0</ele><time>2026-05-01T14:52:14Z</time></trkpt><trkpt lat="44.62129838755163" lon="7.356673847627526"><ele>552.0</ele><time>2026-05-01T14:52:15Z</time></trkpt><trkpt lat="44.621323038477115" lon="7.356760523646797"><ele>550.0</ele><time>2026-05-01T14:52:16Z</time></trkpt><trkpt lat="44.62134966926454" lon="7.3568533882187355"><ele>548.0</ele><time>2026-05-01T14:52:17Z</time></trkpt><trkpt lat="44.62137873999169" lon="7.356941437203559"><ele>546.0</ele><time>2026-05-01T14:52:18Z</time></trkpt><trkpt lat="44.62141477194629" lon="7.357018467096483"><ele>544.0</ele><time>2026-05-01T14:52:19Z</time></trkpt><trkpt lat="44.62146594012384" lon="7.3570855969727305"><ele>542.0</ele><time>2026-05-01T14:52:20Z</time></trkpt><trkpt lat="44.621531719909754" lon="7.357129765822476"><ele>540.0</ele><time>2026-05-01T14:52:21Z</time></trkpt><trkpt lat="44.62159091603707" lon="7.357182991927863"><ele>540.0</ele><time>2026-05-01T14:52:22Z</time></trkpt><trkpt lat="44.621655797465564" lon="7.357221622242439"><ele>540.0</ele><time>2026-05-01T14:52:23Z</time></trkpt><trkpt lat="44.62172431903685" lon="7.357230577280874"><ele>540.0</ele><time>2026-05-01T14:52:24Z</time></trkpt><trkpt lat="44.62178925004581" lon="7.357218037238324"><ele>540.0</ele><time>2026-05-01T14:52:25Z</time></trkpt><trkpt lat="44.621852705546395" lon="7.357192724173597"><ele>540.0</ele><time>2026-05-01T14:52:26Z</time></trkpt><trkpt lat="44.62191845622096" lon="7.357167226383262"><ele>540.0</ele><time>2026-05-01T14:52:27Z</time></trkpt><trkpt lat="44.621986764527186" lon="7.357145373807325"><ele>540.0</ele><time>2026-05-01T14:52:28Z</time></trkpt><trkpt lat="44.622056865115965" lon="7.357127902948002"><ele>538.8333333333334</ele><time>2026-05-01T14:52:29Z</time></trkpt><trkpt lat="44.62212688942023" lon="7.357123592571668"><ele>537.6666666666666</ele><time>2026-05-01T14:52:30Z</time></trkpt><trkpt lat="44.622246804332036" lon="7.357153999337979"><ele>536.5</ele><time>2026-05-01T14:52:32Z</time></trkpt><trkpt lat="44.62230188632133" lon="7.357206769117864"><ele>535.3333333333333</ele><time>2026-05-01T14:52:33Z</time></trkpt><trkpt lat="44.622353275577765" lon="7.357270283439657"><ele>534.1666666666666</ele><time>2026-05-01T14:52:34Z</time></trkpt><trkpt lat="44.622401541805935" lon="7.357338644707896"><ele>533.0</ele><time>2026-05-01T14:52:35Z</time></trkpt><trkpt lat="44.62245368795248" lon="7.357401796329587"><ele>532.5</ele><time>2026-05-01T14:52:36Z</time></trkpt><trkpt lat="44.622489151831815" lon="7.357487406529893"><ele>532.0</ele><time>2026-05-01T14:52:37Z</time></trkpt><trkpt lat="44.622535113867414" lon="7.357568574483184"><ele>531.5</ele><time>2026-05-01T14:52:38Z</time></trkpt><trkpt lat="44.62259655719085" lon="7.357640046468358"><ele>531.0</ele><time>2026-05-01T14:52:39Z</time></trkpt><trkpt lat="44.622632834048524" lon="7.357741146137689"><ele>530.5</ele><time>2026-05-01T14:52:40Z</time></trkpt><trkpt lat="44.62268517165064" lon="7.357832675035706"><ele>530.0</ele><time>2026-05-01T14:52:41Z</time></trkpt><trkpt lat="44.62273823925681" lon="7.357923749685775"><ele>530.0</ele><time>2026-05-01T14:52:42Z</time></trkpt><trkpt lat="44.6227898470876" lon="7.3580087717926785"><ele>530.0</ele><time>2026-05-01T14:52:43Z</time></trkpt><trkpt lat="44.62284080018236" lon="7.358091744741616"><ele>530.0</ele><time>2026-05-01T14:52:44Z</time></trkpt><trkpt lat="44.62289324286963" lon="7.358177143536976"><ele>530.0</ele><time>2026-05-01T14:52:45Z</time></trkpt><trkpt lat="44.62294880850791" lon="7.358261580759554"><ele>530.0</ele><time>2026-05-01T14:52:46Z</time></trkpt><trkpt lat="44.62300776706849" lon="7.358350333166907"><ele>530.0</ele><time>2026-05-01T14:52:47Z</time></trkpt><trkpt lat="44.62308295560036" lon="7.358428279585523"><ele>527.6</ele><time>2026-05-01T14:52:48Z</time></trkpt><trkpt lat="44.62316838371159" lon="7.358482312701963"><ele>525.2</ele><time>2026-05-01T14:52:49Z</time></trkpt><trkpt lat="44.623245674929514" lon="7.358554316764928"><ele>522.8</ele><time>2026-05-01T14:52:49.999Z</time></trkpt><trkpt lat="44.62332945571193" lon="7.358613134310562"><ele>520.4</ele><time>2026-05-01T14:52:50.999Z</time></trkpt><trkpt lat="44.623412360819785" lon="7.35866603893503"><ele>518.0</ele><time>2026-05-01T14:52:51.999Z</time></trkpt><trkpt lat="44.62348854877141" lon="7.358715352138217"><ele>518.0</ele><time>2026-05-01T14:52:52.999Z</time></trkpt><trkpt lat="44.623557282422105" lon="7.358768637122544"><ele>518.0</ele><time>2026-05-01T14:52:53.999Z</time></trkpt><trkpt lat="44.62362546359847" lon="7.358820417107362"><ele>518.0</ele><time>2026-05-01T14:52:54.999Z</time></trkpt><trkpt lat="44.62368965127902" lon="7.35886153246981"><ele>518.0</ele><time>2026-05-01T14:52:55.999Z</time></trkpt><trkpt lat="44.62375298199265" lon="7.358903920398025"><ele>518.0</ele><time>2026-05-01T14:52:56.999Z</time></trkpt><trkpt lat="44.62380833826093" lon="7.358952202054502"><ele>518.0</ele><time>2026-05-01T14:52:57.999Z</time></trkpt><trkpt lat="44.623879662524764" lon="7.359098553711521"><ele>515.8333333333333</ele><time>2026-05-01T14:52:59.999Z</time></trkpt><trkpt lat="44.62390462343547" lon="7.359191672153104"><ele>513.6666666666666</ele><time>2026-05-01T14:53:00.999Z</time></trkpt><trkpt lat="44.623913413450566" lon="7.359291449282569"><ele>511.5</ele><time>2026-05-01T14:53:01.999Z</time></trkpt><trkpt lat="44.62393967190112" lon="7.3593887290163265"><ele>509.33333333333337</ele><time>2026-05-01T14:53:02.999Z</time></trkpt><trkpt lat="44.62397186397921" lon="7.359490311524761"><ele>507.1666666666667</ele><time>2026-05-01T14:53:03.999Z</time></trkpt><trkpt lat="44.62400654578031" lon="7.359584673189729"><ele>505.0</ele><time>2026-05-01T14:53:04.999Z</time></trkpt><trkpt lat="44.624043640374076" lon="7.359682708954713"><ele>504.1666666666667</ele><time>2026-05-01T14:53:05.999Z</time></trkpt><trkpt lat="44.62408869343071" lon="7.3597747298250455"><ele>503.33333333333337</ele><time>2026-05-01T14:53:06.999Z</time></trkpt><trkpt lat="44.62411880031397" lon="7.359880576227783"><ele>502.5</ele><time>2026-05-01T14:53:07.999Z</time></trkpt><trkpt lat="44.62415161415494" lon="7.359986471167051"><ele>501.66666666666663</ele><time>2026-05-01T14:53:08.999Z</time></trkpt><trkpt lat="44.624173434872795" lon="7.360098656799345"><ele>500.8333333333333</ele><time>2026-05-01T14:53:09.999Z</time></trkpt><trkpt lat="44.6241808048598" lon="7.360219896451539"><ele>500.0</ele><time>2026-05-01T14:53:10.999Z</time></trkpt><trkpt lat="44.624189956682685" lon="7.360338112315084"><ele>499.99999999999994</ele><time>2026-05-01T14:53:11.999Z</time></trkpt><trkpt lat="44.624207955850316" lon="7.360457656416167"><ele>500.0</ele><time>2026-05-01T14:53:12.999Z</time></trkpt><trkpt lat="44.62423398054928" lon="7.360574423371245"><ele>500.0</ele><time>2026-05-01T14:53:13.999Z</time></trkpt><trkpt lat="44.62427124760877" lon="7.36068841301793"><ele>500.0</ele><time>2026-05-01T14:53:14.999Z</time></trkpt><trkpt lat="44.624318151673116" lon="7.360793418598883"><ele>499.99999999999994</ele><time>2026-05-01T14:53:15.999Z</time></trkpt><trkpt lat="44.62437097043855" lon="7.3608815678505195"><ele>500.0</ele><time>2026-05-01T14:53:16.999Z</time></trkpt><trkpt lat="44.62442979514744" lon="7.360955556671549"><ele>497.4</ele><time>2026-05-01T14:53:17.999Z</time></trkpt><trkpt lat="44.62450353879386" lon="7.361019042207918"><ele>494.8</ele><time>2026-05-01T14:53:18.999Z</time></trkpt><trkpt lat="44.62458151580722" lon="7.361080685975351"><ele>492.20000000000005</ele><time>2026-05-01T14:53:19.999Z</time></trkpt><trkpt lat="44.62465776010249" lon="7.361154473809777"><ele>489.6</ele><time>2026-05-01T14:53:20.999Z</time></trkpt><trkpt lat="44.62473347461139" lon="7.361237524529904"><ele>487.0</ele><time>2026-05-01T14:53:21.999Z</time></trkpt><trkpt lat="44.62480572610031" lon="7.361326220505811"><ele>486.83333333333337</ele><time>2026-05-01T14:53:22.999Z</time></trkpt><trkpt lat="44.62487759883567" lon="7.361417079172566"><ele>486.6666666666667</ele><time>2026-05-01T14:53:23.999Z</time></trkpt><trkpt lat="44.62494981736503" lon="7.361509480414558"><ele>486.5</ele><time>2026-05-01T14:53:24.999Z</time></trkpt><trkpt lat="44.62500801616131" lon="7.361611581355445"><ele>486.33333333333337</ele><time>2026-05-01T14:53:25.999Z</time></trkpt><trkpt lat="44.62506703627832" lon="7.361686822806168"><ele>486.1666666666667</ele><time>2026-05-01T14:53:26.999Z</time></trkpt><trkpt lat="44.62513076424652" lon="7.361741922878908"><ele>486.0</ele><time>2026-05-01T14:53:27.999Z</time></trkpt><trkpt lat="44.625162046358966" lon="7.361841625517081"><ele>486.0</ele><time>2026-05-01T14:53:28.999Z</time></trkpt><trkpt lat="44.62519668534701" lon="7.361935560109134"><ele>486.0</ele><time>2026-05-01T14:53:29.999Z</time></trkpt><trkpt lat="44.62522076143634" lon="7.362038197045964"><ele>486.0</ele><time>2026-05-01T14:53:30.999Z</time></trkpt><trkpt lat="44.62524595334523" lon="7.362139834517362"><ele>486.0</ele><time>2026-05-01T14:53:31.999Z</time></trkpt><trkpt lat="44.6252702028542" lon="7.362245612241329"><ele>486.0</ele><time>2026-05-01T14:53:32.999Z</time></trkpt><trkpt lat="44.62526880419585" lon="7.362353333708414"><ele>486.0</ele><time>2026-05-01T14:53:33.999Z</time></trkpt><trkpt lat="44.62528823845094" lon="7.362462454664545"><ele>485.1666666666667</ele><time>2026-05-01T14:53:34.999Z</time></trkpt><trkpt lat="44.62530768319521" lon="7.362564836758424"><ele>484.33333333333337</ele><time>2026-05-01T14:53:35.999Z</time></trkpt><trkpt lat="44.62531807284753" lon="7.36267161339017"><ele>483.5</ele><time>2026-05-01T14:53:36.999Z</time></trkpt><trkpt lat="44.6253230562594" lon="7.362776827242689"><ele>482.6666666666667</ele><time>2026-05-01T14:53:37.999Z</time></trkpt><trkpt lat="44.62532837091803" lon="7.362888948493576"><ele>481.83333333333337</ele><time>2026-05-01T14:53:38.999Z</time></trkpt><trkpt lat="44.62533446573221" lon="7.363000280376703"><ele>481.0</ele><time>2026-05-01T14:53:39.999Z</time></trkpt><trkpt lat="44.62534007740234" lon="7.363097278535063"><ele>479.1666666666667</ele><time>2026-05-01T14:53:40.999Z</time></trkpt><trkpt lat="44.62534712906643" lon="7.3632027566111695"><ele>477.33333333333337</ele><time>2026-05-01T14:53:41.999Z</time></trkpt><trkpt lat="44.625355908944826" lon="7.363313426139706"><ele>475.5</ele><time>2026-05-01T14:53:42.999Z</time></trkpt><trkpt lat="44.6253668836042" lon="7.363424926415327"><ele>473.66666666666663</ele><time>2026-05-01T14:53:43.999Z</time></trkpt><trkpt lat="44.625383021951606" lon="7.363541505352742"><ele>471.8333333333333</ele><time>2026-05-01T14:53:44.999Z</time></trkpt><trkpt lat="44.62542335085992" lon="7.363639293743034"><ele>470.0</ele><time>2026-05-01T14:53:45.999Z</time></trkpt><trkpt lat="44.62543114245653" lon="7.363752497257386"><ele>469.49999999999994</ele><time>2026-05-01T14:53:46.999Z</time></trkpt><trkpt lat="44.62540778589557" lon="7.363909079423529"><ele>469.0</ele><time>2026-05-01T14:53:48.999Z</time></trkpt><trkpt lat="44.62546447457174" lon="7.363991337403641"><ele>468.5</ele><time>2026-05-01T14:53:49.999Z</time></trkpt><trkpt lat="44.6255018159894" lon="7.364064552601877"><ele>468.0</ele><time>2026-05-01T14:53:50.999Z</time></trkpt><trkpt lat="44.62553888979778" lon="7.364147217128206"><ele>467.49999999999994</ele><time>2026-05-01T14:53:51.999Z</time></trkpt><trkpt lat="44.62558762132917" lon="7.364208699894014"><ele>467.0</ele><time>2026-05-01T14:53:52.999Z</time></trkpt><trkpt lat="44.625648650187124" lon="7.364238716962723"><ele>467.0</ele><time>2026-05-01T14:53:53.999Z</time></trkpt><trkpt lat="44.625715328333115" lon="7.3642932639250995"><ele>467.00000000000006</ele><time>2026-05-01T14:53:54.999Z</time></trkpt><trkpt lat="44.62577964722679" lon="7.364321714638141"><ele>467.00000000000006</ele><time>2026-05-01T14:53:55.999Z</time></trkpt><trkpt lat="44.62588376531674" lon="7.364389356399067"><ele>467.0</ele><time>2026-05-01T14:53:57.999Z</time></trkpt><trkpt lat="44.625985939757555" lon="7.364452799995042"><ele>467.0</ele><time>2026-05-01T14:53:59.999Z</time></trkpt><trkpt lat="44.62606276886675" lon="7.364357974078514"><ele>467.0</ele><time>2026-05-01T14:54:00.999Z</time></trkpt><trkpt lat="44.62611574914701" lon="7.3643005215764195"><ele>467.00000000000006</ele><time>2026-05-01T14:54:01.999Z</time></trkpt><trkpt lat="44.62620830517431" lon="7.364195291968682"><ele>467.00000000000006</ele><time>2026-05-01T14:54:03.999Z</time></trkpt><trkpt lat="44.6262659545426" lon="7.364139264805876"><ele>467.0</ele><time>2026-05-01T14:54:06Z</time></trkpt><trkpt lat="44.62635155458706" lon="7.364267652075475"><ele>467.0</ele><time>2026-05-01T14:54:09Z</time></trkpt><trkpt lat="44.62642711717962" lon="7.36438508791221"><ele>465.5</ele><time>2026-05-01T14:54:11Z</time></trkpt><trkpt lat="44.626472764421024" lon="7.364517854775427"><ele>464.0</ele><time>2026-05-01T14:54:13Z</time></trkpt><trkpt lat="44.6265577477476" lon="7.364621313903376"><ele>462.5</ele><time>2026-05-01T14:54:15Z</time></trkpt><trkpt lat="44.626664903695634" lon="7.364709370965277"><ele>461.0</ele><time>2026-05-01T14:54:17Z</time></trkpt><trkpt lat="44.626764255899346" lon="7.364772786958304"><ele>460.6</ele><time>2026-05-01T14:54:19Z</time></trkpt><trkpt lat="44.62688757233992" lon="7.364791421857871"><ele>460.20000000000005</ele><time>2026-05-01T14:54:21Z</time></trkpt><trkpt lat="44.627006881221256" lon="7.364772704231983"><ele>459.79999999999995</ele><time>2026-05-01T14:54:23Z</time></trkpt><trkpt lat="44.627076081582906" lon="7.364770427144116"><ele>459.4</ele><time>2026-05-01T14:54:24Z</time></trkpt><trkpt lat="44.627185043138034" lon="7.364865962545142"><ele>459.0</ele><time>2026-05-01T14:54:26Z</time></trkpt><trkpt lat="44.627265188333055" lon="7.364995330709266"><ele>457.6666666666667</ele><time>2026-05-01T14:54:28Z</time></trkpt><trkpt lat="44.62730821502353" lon="7.365065349232943"><ele>456.33333333333337</ele><time>2026-05-01T14:54:29Z</time></trkpt><trkpt lat="44.62737366284649" lon="7.365154520589869"><ele>455.0</ele><time>2026-05-01T14:54:30Z</time></trkpt><trkpt lat="44.62743305110909" lon="7.365247247186518"><ele>453.6666666666667</ele><time>2026-05-01T14:54:31Z</time></trkpt><trkpt lat="44.627488352207706" lon="7.365355183477357"><ele>452.33333333333337</ele><time>2026-05-01T14:54:32Z</time></trkpt><trkpt lat="44.62753417376387" lon="7.365476076130647"><ele>451.0</ele><time>2026-05-01T14:54:33Z</time></trkpt><trkpt lat="44.627569479313635" lon="7.365602313471827"><ele>450.50000000000006</ele><time>2026-05-01T14:54:34Z</time></trkpt><trkpt lat="44.627601511478716" lon="7.365709236349874"><ele>450.0</ele><time>2026-05-01T14:54:35Z</time></trkpt><trkpt lat="44.627647253341365" lon="7.365807338526166"><ele>449.5</ele><time>2026-05-01T14:54:36Z</time></trkpt><trkpt lat="44.6277037272671" lon="7.365900941439712"><ele>449.0</ele><time>2026-05-01T14:54:37Z</time></trkpt><trkpt lat="44.627759934135774" lon="7.365983927011648"><ele>448.50000000000006</ele><time>2026-05-01T14:54:38Z</time></trkpt><trkpt lat="44.62783239629926" lon="7.366089028673503"><ele>448.0</ele><time>2026-05-01T14:54:40Z</time></trkpt><trkpt lat="44.6278907269642" lon="7.366161034111329"><ele>447.00000000000006</ele><time>2026-05-01T14:54:43Z</time></trkpt><trkpt lat="44.627937466402024" lon="7.366233150322379"><ele>446.0</ele><time>2026-05-01T14:54:55.999Z</time></trkpt><trkpt lat="44.6279217442292" lon="7.366328538654315"><ele>445.0</ele><time>2026-05-01T14:54:56.999Z</time></trkpt><trkpt lat="44.62792296293946" lon="7.366424953221755"><ele>444.0</ele><time>2026-05-01T14:54:57.999Z</time></trkpt><trkpt lat="44.62791202837651" lon="7.366543031299501"><ele>443.00000000000006</ele><time>2026-05-01T14:54:58.999Z</time></trkpt><trkpt lat="44.62788225677815" lon="7.366674042228004"><ele>442.0</ele><time>2026-05-01T14:54:59.999Z</time></trkpt><trkpt lat="44.62787074801128" lon="7.366795378948841"><ele>441.20000000000005</ele><time>2026-05-01T14:55:00.999Z</time></trkpt><trkpt lat="44.627877989230576" lon="7.366905578983292"><ele>440.40000000000003</ele><time>2026-05-01T14:55:01.999Z</time></trkpt><trkpt lat="44.62786949338706" lon="7.366998822009443"><ele>439.59999999999997</ele><time>2026-05-01T14:55:02.999Z</time></trkpt><trkpt lat="44.627864626014066" lon="7.3671704631748245"><ele>438.79999999999995</ele><time>2026-05-01T14:55:04.999Z</time></trkpt><trkpt lat="44.62786229077202" lon="7.36733911060121"><ele>438.0</ele><time>2026-05-01T14:55:06.999Z</time></trkpt><trkpt lat="44.6278622551719" lon="7.367496483015906"><ele>437.2</ele><time>2026-05-01T14:55:08.999Z</time></trkpt><trkpt lat="44.62786293566535" lon="7.36766966069571"><ele>436.4</ele><time>2026-05-01T14:55:10.999Z</time></trkpt><trkpt lat="44.62786749948296" lon="7.367781124673915"><ele>435.59999999999997</ele><time>2026-05-01T14:55:11.999Z</time></trkpt><trkpt lat="44.627877494762586" lon="7.367893121079458"><ele>434.79999999999995</ele><time>2026-05-01T14:55:12.999Z</time></trkpt><trkpt lat="44.62788926720675" lon="7.3680120541156535"><ele>434.0</ele><time>2026-05-01T14:55:13.999Z</time></trkpt><trkpt lat="44.627904103605324" lon="7.36813524644668"><ele>433.3333333333333</ele><time>2026-05-01T14:55:14.999Z</time></trkpt><trkpt lat="44.627923076114634" lon="7.368256432232577"><ele>432.66666666666663</ele><time>2026-05-01T14:55:15.999Z</time></trkpt><trkpt lat="44.62794332348123" lon="7.368377811605979"><ele>432.0</ele><time>2026-05-01T14:55:16.999Z</time></trkpt><trkpt lat="44.62796509568308" lon="7.368495548640512"><ele>431.33333333333337</ele><time>2026-05-01T14:55:17.999Z</time></trkpt><trkpt lat="44.62799386803343" lon="7.368611119586709"><ele>430.6666666666667</ele><time>2026-05-01T14:55:18.999Z</time></trkpt><trkpt lat="44.62801754478029" lon="7.368729222773105"><ele>430.0</ele><time>2026-05-01T14:55:19.999Z</time></trkpt><trkpt lat="44.62803886045129" lon="7.36884664403104"><ele>429.50000000000006</ele><time>2026-05-01T14:55:20.999Z</time></trkpt><trkpt lat="44.62806314119241" lon="7.368960066908481"><ele>429.0</ele><time>2026-05-01T14:55:21.999Z</time></trkpt><trkpt lat="44.62809109604588" lon="7.369072550647502"><ele>428.5</ele><time>2026-05-01T14:55:22.999Z</time></trkpt><trkpt lat="44.628119646940036" lon="7.369187001455131"><ele>428.0</ele><time>2026-05-01T14:55:23.999Z</time></trkpt><trkpt lat="44.6281430752199" lon="7.369300881855296"><ele>427.50000000000006</ele><time>2026-05-01T14:55:24.999Z</time></trkpt><trkpt lat="44.62816490494717" lon="7.369415678720408"><ele>427.0</ele><time>2026-05-01T14:55:25.999Z</time></trkpt><trkpt lat="44.628190218902276" lon="7.369528710125889"><ele>427.00000000000006</ele><time>2026-05-01T14:55:26.999Z</time></trkpt><trkpt lat="44.6282192618467" lon="7.369640450337518"><ele>427.0</ele><time>2026-05-01T14:55:27.999Z</time></trkpt><trkpt lat="44.62825540232123" lon="7.369744326470052"><ele>427.0</ele><time>2026-05-01T14:55:28.999Z</time></trkpt><trkpt lat="44.62828581784008" lon="7.369852857601927"><ele>427.0</ele><time>2026-05-01T14:55:29.999Z</time></trkpt><trkpt lat="44.628312162581985" lon="7.369960150889495"><ele>427.00000000000006</ele><time>2026-05-01T14:55:30.999Z</time></trkpt><trkpt lat="44.628334456784465" lon="7.370055764802475"><ele>427.0</ele><time>2026-05-01T14:55:31.999Z</time></trkpt><trkpt lat="44.62834336707762" lon="7.370220686794887"><ele>425.5</ele><time>2026-05-01T14:55:33.999Z</time></trkpt><trkpt lat="44.62836145278344" lon="7.370376316414641"><ele>424.0</ele><time>2026-05-01T14:55:35.999Z</time></trkpt><trkpt lat="44.62834204461784" lon="7.370486331471684"><ele>422.5</ele><time>2026-05-01T14:55:37.999Z</time></trkpt><trkpt lat="44.628502762848" lon="7.370560433193506"><ele>421.0</ele><time>2026-05-01T14:55:38.999Z</time></trkpt><trkpt lat="44.62859981138608" lon="7.370569100136815"><ele>420.1666666666667</ele><time>2026-05-01T14:55:39.999Z</time></trkpt><trkpt lat="44.628679239775586" lon="7.370617483853162"><ele>419.33333333333337</ele><time>2026-05-01T14:55:40.999Z</time></trkpt><trkpt lat="44.628760476999716" lon="7.370680507527686"><ele>418.5</ele><time>2026-05-01T14:55:41.999Z</time></trkpt><trkpt lat="44.62883796293236" lon="7.370743912073424"><ele>417.66666666666663</ele><time>2026-05-01T14:55:42.999Z</time></trkpt><trkpt lat="44.6289168629047" lon="7.370806471736206"><ele>416.8333333333333</ele><time>2026-05-01T14:55:43.999Z</time></trkpt><trkpt lat="44.628992206670596" lon="7.3708701797727425"><ele>416.0</ele><time>2026-05-01T14:55:44.999Z</time></trkpt><trkpt lat="44.6290681404264" lon="7.37093149539699"><ele>415.99999999999994</ele><time>2026-05-01T14:55:45.999Z</time></trkpt><trkpt lat="44.62914452214929" lon="7.370991781917495"><ele>416.0</ele><time>2026-05-01T14:55:46.999Z</time></trkpt><trkpt lat="44.62922029435357" lon="7.371058167889929"><ele>416.0</ele><time>2026-05-01T14:55:47.999Z</time></trkpt><trkpt lat="44.62929689934125" lon="7.371124400600247"><ele>416.0</ele><time>2026-05-01T14:55:48.999Z</time></trkpt><trkpt lat="44.62937308346239" lon="7.371188785212696"><ele>415.99999999999994</ele><time>2026-05-01T14:55:49.999Z</time></trkpt><trkpt lat="44.629446798357236" lon="7.371257924258334"><ele>416.0</ele><time>2026-05-01T14:55:50.999Z</time></trkpt><trkpt lat="44.629522857965306" lon="7.371323921907675"><ele>414.66666666666663</ele><time>2026-05-01T14:55:51.999Z</time></trkpt><trkpt lat="44.62959998714023" lon="7.371385815783231"><ele>413.3333333333333</ele><time>2026-05-01T14:55:52.999Z</time></trkpt><trkpt lat="44.6296770625859" lon="7.371447123845768"><ele>412.0</ele><time>2026-05-01T14:55:53.999Z</time></trkpt><trkpt lat="44.629751373417896" lon="7.371514938250242"><ele>410.66666666666663</ele><time>2026-05-01T14:55:54.999Z</time></trkpt><trkpt lat="44.62982038810236" lon="7.371588683852705"><ele>409.3333333333333</ele><time>2026-05-01T14:55:55.999Z</time></trkpt><trkpt lat="44.62989510003338" lon="7.3716517850980265"><ele>408.0</ele><time>2026-05-01T14:55:56.999Z</time></trkpt><trkpt lat="44.62997296388194" lon="7.3717008976731275"><ele>408.0</ele><time>2026-05-01T14:55:57.999Z</time></trkpt><trkpt lat="44.63005030277135" lon="7.371748878738559"><ele>408.0</ele><time>2026-05-01T14:55:58.999Z</time></trkpt><trkpt lat="44.630116212275745" lon="7.371824856638367"><ele>408.0</ele><time>2026-05-01T14:55:59.999Z</time></trkpt><trkpt lat="44.63019173321749" lon="7.37187649522987"><ele>408.0</ele><time>2026-05-01T14:56:00.999Z</time></trkpt><trkpt lat="44.63025582095689" lon="7.3719499199902"><ele>408.0</ele><time>2026-05-01T14:56:01.999Z</time></trkpt><trkpt lat="44.630329099648414" lon="7.372018173288874"><ele>408.0</ele><time>2026-05-01T14:56:02.999Z</time></trkpt><trkpt lat="44.63041256467003" lon="7.372090048835507"><ele>406.79999999999995</ele><time>2026-05-01T14:56:03.999Z</time></trkpt><trkpt lat="44.630508270080036" lon="7.372171246411548"><ele>405.6</ele><time>2026-05-01T14:56:04.999Z</time></trkpt><trkpt lat="44.630602919103204" lon="7.372249776636461"><ele>404.4</ele><time>2026-05-01T14:56:05.999Z</time></trkpt><trkpt lat="44.63069982544017" lon="7.372329592193162"><ele>403.20000000000005</ele><time>2026-05-01T14:56:06.999Z</time></trkpt><trkpt lat="44.63079854816585" lon="7.372406231797335"><ele>402.0</ele><time>2026-05-01T14:56:07.999Z</time></trkpt><trkpt lat="44.63090151354616" lon="7.372473734417439"><ele>401.8</ele><time>2026-05-01T14:56:08.999Z</time></trkpt><trkpt lat="44.631006709089775" lon="7.37252729600132"><ele>401.6</ele><time>2026-05-01T14:56:09.999Z</time></trkpt><trkpt lat="44.631115957526" lon="7.372570997192764"><ele>401.40000000000003</ele><time>2026-05-01T14:56:11Z</time></trkpt><trkpt lat="44.631223302664644" lon="7.3726130232740426"><ele>401.20000000000005</ele><time>2026-05-01T14:56:12Z</time></trkpt><trkpt lat="44.631328519699366" lon="7.372646191204734"><ele>401.0</ele><time>2026-05-01T14:56:13Z</time></trkpt><trkpt lat="44.63143298332321" lon="7.372678053507637"><ele>399.4</ele><time>2026-05-01T14:56:14Z</time></trkpt><trkpt lat="44.63153808030031" lon="7.372708864098339"><ele>397.8</ele><time>2026-05-01T14:56:15Z</time></trkpt><trkpt lat="44.63164186610362" lon="7.372731859661231"><ele>396.2</ele><time>2026-05-01T14:56:16Z</time></trkpt><trkpt lat="44.63174465821805" lon="7.372755126685707"><ele>394.59999999999997</ele><time>2026-05-01T14:56:17Z</time></trkpt><trkpt lat="44.63185007089114" lon="7.372797000900868"><ele>393.0</ele><time>2026-05-01T14:56:18Z</time></trkpt><trkpt lat="44.63195980853293" lon="7.372849873276441"><ele>391.75</ele><time>2026-05-01T14:56:19Z</time></trkpt><trkpt lat="44.63207287749779" lon="7.37292533649073"><ele>390.5</ele><time>2026-05-01T14:56:20Z</time></trkpt><trkpt lat="44.632195487378155" lon="7.373024247757394"><ele>389.25</ele><time>2026-05-01T14:56:21Z</time></trkpt><trkpt lat="44.63232700937417" lon="7.373140973252148"><ele>388.0</ele><time>2026-05-01T14:56:22Z</time></trkpt><trkpt lat="44.63246706010894" lon="7.373256997774047"><ele>387.33333333333337</ele><time>2026-05-01T14:56:23Z</time></trkpt><trkpt lat="44.63262139521336" lon="7.373384497444209"><ele>386.66666666666663</ele><time>2026-05-01T14:56:24Z</time></trkpt><trkpt lat="44.63277246051043" lon="7.373515585142009"><ele>386.0</ele><time>2026-05-01T14:56:25Z</time></trkpt><trkpt lat="44.632921367215886" lon="7.373643648885451"><ele>385.0</ele><time>2026-05-01T14:56:26Z</time></trkpt><trkpt lat="44.63306668468347" lon="7.373774244536298"><ele>384.0</ele><time>2026-05-01T14:56:27Z</time></trkpt><trkpt lat="44.63321188933385" lon="7.373900804594305"><ele>383.0</ele><time>2026-05-01T14:56:28Z</time></trkpt><trkpt lat="44.63335259152523" lon="7.374025834788839"><ele>383.0</ele><time>2026-05-01T14:56:29Z</time></trkpt><trkpt lat="44.63349809861549" lon="7.374157904281015"><ele>383.0</ele><time>2026-05-01T14:56:30Z</time></trkpt><trkpt lat="44.63364802612879" lon="7.3742934460234695"><ele>383.0</ele><time>2026-05-01T14:56:31Z</time></trkpt><trkpt lat="44.63380558662257" lon="7.374429966159068"><ele>383.33333333333337</ele><time>2026-05-01T14:56:32Z</time></trkpt><trkpt lat="44.63396822948511" lon="7.3745711091597395"><ele>383.6666666666667</ele><time>2026-05-01T14:56:33Z</time></trkpt><trkpt lat="44.63413475694312" lon="7.374713693665476"><ele>384.0</ele><time>2026-05-01T14:56:34Z</time></trkpt><trkpt lat="44.634291694918026" lon="7.374841113314404"><ele>383.3333333333333</ele><time>2026-05-01T14:56:35Z</time></trkpt><trkpt lat="44.63444457124999" lon="7.374963111198687"><ele>382.66666666666663</ele><time>2026-05-01T14:56:36Z</time></trkpt><trkpt lat="44.63459436319574" lon="7.375081614313434"><ele>382.0</ele><time>2026-05-01T14:56:37Z</time></trkpt><trkpt lat="44.634740327356795" lon="7.375192623880457"><ele>383.66666666666663</ele><time>2026-05-01T14:56:38Z</time></trkpt><trkpt lat="44.63488150243862" lon="7.3753001976840675"><ele>385.3333333333333</ele><time>2026-05-01T14:56:39Z</time></trkpt><trkpt lat="44.63502177816568" lon="7.375402149173786"><ele>387.0</ele><time>2026-05-01T14:56:40Z</time></trkpt><trkpt lat="44.6351638233128" lon="7.375506081250492"><ele>386.0</ele><time>2026-05-01T14:56:41Z</time></trkpt><trkpt lat="44.635308170765455" lon="7.375607363994377"><ele>385.0</ele><time>2026-05-01T14:56:42Z</time></trkpt><trkpt lat="44.63545446685399" lon="7.375711452448094"><ele>384.0</ele><time>2026-05-01T14:56:43Z</time></trkpt><trkpt lat="44.635600443742085" lon="7.375815353666984"><ele>384.0</ele><time>2026-05-01T14:56:44Z</time></trkpt><trkpt lat="44.63574255128746" lon="7.37591258650937"><ele>384.0</ele><time>2026-05-01T14:56:45Z</time></trkpt><trkpt lat="44.63587964111415" lon="7.376007329177517"><ele>384.0</ele><time>2026-05-01T14:56:45.999Z</time></trkpt><trkpt lat="44.63601878702095" lon="7.376100212088826"><ele>383.6666666666667</ele><time>2026-05-01T14:56:46.999Z</time></trkpt><trkpt lat="44.63616429293029" lon="7.37618776838913"><ele>383.33333333333337</ele><time>2026-05-01T14:56:47.999Z</time></trkpt><trkpt lat="44.63630917323862" lon="7.376266808353274"><ele>383.0</ele><time>2026-05-01T14:56:48.999Z</time></trkpt><trkpt lat="44.63645772948802" lon="7.3763271664198555"><ele>382.0</ele><time>2026-05-01T14:56:49.999Z</time></trkpt><trkpt lat="44.63661121821174" lon="7.376371174313111"><ele>381.0</ele><time>2026-05-01T14:56:50.999Z</time></trkpt><trkpt lat="44.636768910242" lon="7.376397975874579"><ele>380.0</ele><time>2026-05-01T14:56:51.999Z</time></trkpt><trkpt lat="44.636929554217474" lon="7.376399985805183"><ele>380.6666666666667</ele><time>2026-05-01T14:56:52.999Z</time></trkpt><trkpt lat="44.63709049472981" lon="7.376379654750871"><ele>381.3333333333333</ele><time>2026-05-01T14:56:53.999Z</time></trkpt><trkpt lat="44.637252420731826" lon="7.376353938008324"><ele>382.0</ele><time>2026-05-01T14:56:54.999Z</time></trkpt><trkpt lat="44.63741386794473" lon="7.376319613422863"><ele>382.3333333333333</ele><time>2026-05-01T14:56:55.999Z</time></trkpt><trkpt lat="44.637575755924615" lon="7.376270370349143"><ele>382.6666666666667</ele><time>2026-05-01T14:56:56.999Z</time></trkpt><trkpt lat="44.63773604818745" lon="7.376214235150403"><ele>383.0</ele><time>2026-05-01T14:56:57.999Z</time></trkpt><trkpt lat="44.63789510666334" lon="7.37616535485246"><ele>383.33333333333337</ele><time>2026-05-01T14:56:58.999Z</time></trkpt><trkpt lat="44.638051470952966" lon="7.376117028509169"><ele>383.6666666666667</ele><time>2026-05-01T14:56:59.999Z</time></trkpt><trkpt lat="44.638207118654904" lon="7.3760709815383105"><ele>384.0</ele><time>2026-05-01T14:57:00.999Z</time></trkpt><trkpt lat="44.63835439433852" lon="7.376028805436598"><ele>384.0</ele><time>2026-05-01T14:57:01.999Z</time></trkpt><trkpt lat="44.638498563168376" lon="7.3759856879490595"><ele>384.0</ele><time>2026-05-01T14:57:02.999Z</time></trkpt><trkpt lat="44.63864329431129" lon="7.375932969462959"><ele>384.0</ele><time>2026-05-01T14:57:03.999Z</time></trkpt><trkpt lat="44.63878622813908" lon="7.375871270033941"><ele>384.0</ele><time>2026-05-01T14:57:04.999Z</time></trkpt><trkpt lat="44.63891880571028" lon="7.3758095422771035"><ele>384.5</ele><time>2026-05-01T14:57:05.999Z</time></trkpt><trkpt lat="44.639044730654334" lon="7.37575005065618"><ele>385.0</ele><time>2026-05-01T14:57:06.999Z</time></trkpt><trkpt lat="44.63916586645995" lon="7.375690084575228"><ele>385.5</ele><time>2026-05-01T14:57:07.999Z</time></trkpt><trkpt lat="44.63927584541486" lon="7.3756220000346335"><ele>386.0</ele><time>2026-05-01T14:57:08.999Z</time></trkpt><trkpt lat="44.63937339555746" lon="7.375562691808137"><ele>385.99999999999994</ele><time>2026-05-01T14:57:09.999Z</time></trkpt><trkpt lat="44.63945640762987" lon="7.375527004246482"><ele>386.0</ele><time>2026-05-01T14:57:10.999Z</time></trkpt><trkpt lat="44.63953325825056" lon="7.375511149887578"><ele>386.0</ele><time>2026-05-01T14:57:11.999Z</time></trkpt><trkpt lat="44.639613288964455" lon="7.375540640361759"><ele>386.0</ele><time>2026-05-01T14:57:12.999Z</time></trkpt><trkpt lat="44.63967570491216" lon="7.37561751593727"><ele>385.99999999999994</ele><time>2026-05-01T14:57:13.999Z</time></trkpt><trkpt lat="44.63972603486882" lon="7.375725662334414"><ele>386.0</ele><time>2026-05-01T14:57:14.999Z</time></trkpt><trkpt lat="44.639762247632" lon="7.3758668385332165"><ele>386.0</ele><time>2026-05-01T14:57:15.999Z</time></trkpt><trkpt lat="44.63979661262451" lon="7.376029951566583"><ele>386.0</ele><time>2026-05-01T14:57:16.999Z</time></trkpt><trkpt lat="44.63984033707969" lon="7.376203741589574"><ele>386.0</ele><time>2026-05-01T14:57:17.999Z</time></trkpt><trkpt lat="44.63989330711495" lon="7.376354814218511"><ele>386.0</ele><time>2026-05-01T14:57:18.999Z</time></trkpt><trkpt lat="44.63995466003651" lon="7.3764941880911135"><ele>386.0</ele><time>2026-05-01T14:57:19.999Z</time></trkpt><trkpt lat="44.64002212076536" lon="7.376624644837557"><ele>386.0</ele><time>2026-05-01T14:57:20.999Z</time></trkpt><trkpt lat="44.64008993916195" lon="7.376754963554388"><ele>386.0</ele><time>2026-05-01T14:57:21.999Z</time></trkpt><trkpt lat="44.640163490616665" lon="7.376887087039767"><ele>386.0</ele><time>2026-05-01T14:57:22.999Z</time></trkpt><trkpt lat="44.64024451091821" lon="7.377018224208857"><ele>386.0</ele><time>2026-05-01T14:57:23.999Z</time></trkpt><trkpt lat="44.64033511883699" lon="7.377149067797048"><ele>386.0</ele><time>2026-05-01T14:57:24.999Z</time></trkpt><trkpt lat="44.64043655053195" lon="7.377276667915507"><ele>386.0</ele><time>2026-05-01T14:57:25.999Z</time></trkpt><trkpt lat="44.64055104151769" lon="7.377398035374137"><ele>386.0</ele><time>2026-05-01T14:57:26.999Z</time></trkpt><trkpt lat="44.64067412138439" lon="7.377517388720208"><ele>384.3333333333333</ele><time>2026-05-01T14:57:27.999Z</time></trkpt><trkpt lat="44.64080523388297" lon="7.3776420065769885"><ele>382.66666666666663</ele><time>2026-05-01T14:57:28.999Z</time></trkpt><trkpt lat="44.6409333273302" lon="7.377762578628365"><ele>381.0</ele><time>2026-05-01T14:57:29.999Z</time></trkpt><trkpt lat="44.641058391617044" lon="7.3778755705154975"><ele>381.0</ele><time>2026-05-01T14:57:30.999Z</time></trkpt><trkpt lat="44.64118110812532" lon="7.377988183051235"><ele>381.0</ele><time>2026-05-01T14:57:31.999Z</time></trkpt><trkpt lat="44.641305273089955" lon="7.378104067966323"><ele>381.0</ele><time>2026-05-01T14:57:32.999Z</time></trkpt><trkpt lat="44.641431585078685" lon="7.3782217994012"><ele>381.0</ele><time>2026-05-01T14:57:33.999Z</time></trkpt><trkpt lat="44.64155863275276" lon="7.378342751166255"><ele>381.0</ele><time>2026-05-01T14:57:34.999Z</time></trkpt><trkpt lat="44.641687545089816" lon="7.378467283741647"><ele>381.0</ele><time>2026-05-01T14:57:35.999Z</time></trkpt><trkpt lat="44.641816837610314" lon="7.378588547115094"><ele>381.0</ele><time>2026-05-01T14:57:36.999Z</time></trkpt><trkpt lat="44.641946665121154" lon="7.378711482740271"><ele>380.3333333333333</ele><time>2026-05-01T14:57:37.999Z</time></trkpt><trkpt lat="44.64207809894708" lon="7.378832211041677"><ele>379.66666666666663</ele><time>2026-05-01T14:57:38.999Z</time></trkpt><trkpt lat="44.64221422700499" lon="7.378957266924507"><ele>379.0</ele><time>2026-05-01T14:57:39.999Z</time></trkpt><trkpt lat="44.64235666981527" lon="7.379090607712204"><ele>378.66666666666663</ele><time>2026-05-01T14:57:40.999Z</time></trkpt><trkpt lat="44.642506247239986" lon="7.379232632088961"><ele>378.3333333333333</ele><time>2026-05-01T14:57:41.999Z</time></trkpt><trkpt lat="44.642654705303045" lon="7.379369720745071"><ele>378.0</ele><time>2026-05-01T14:57:42.999Z</time></trkpt><trkpt lat="44.6428030103628" lon="7.379498207478897"><ele>378.0</ele><time>2026-05-01T14:57:43.999Z</time></trkpt><trkpt lat="44.64295326160378" lon="7.379616037669544"><ele>378.0</ele><time>2026-05-01T14:57:44.999Z</time></trkpt><trkpt lat="44.64311554150271" lon="7.379731124095651"><ele>378.0</ele><time>2026-05-01T14:57:45.999Z</time></trkpt><trkpt lat="44.64328362178123" lon="7.379843328563997"><ele>377.6666666666667</ele><time>2026-05-01T14:57:46.999Z</time></trkpt><trkpt lat="44.643462152951265" lon="7.37995160255311"><ele>377.33333333333337</ele><time>2026-05-01T14:57:47.999Z</time></trkpt><trkpt lat="44.64364625160706" lon="7.38005796116098"><ele>377.0</ele><time>2026-05-01T14:57:48.999Z</time></trkpt><trkpt lat="44.64383645271568" lon="7.380165450130356"><ele>376.0</ele><time>2026-05-01T14:57:49.999Z</time></trkpt><trkpt lat="44.644036110461904" lon="7.38028101613334"><ele>375.0</ele><time>2026-05-01T14:57:50.999Z</time></trkpt><trkpt lat="44.644234179633195" lon="7.38039094830808"><ele>374.0</ele><time>2026-05-01T14:57:51.999Z</time></trkpt><trkpt lat="44.64443532271197" lon="7.380505872952489"><ele>374.0</ele><time>2026-05-01T14:57:52.999Z</time></trkpt><trkpt lat="44.64462478323517" lon="7.380623088181606"><ele>374.0</ele><time>2026-05-01T14:57:53.999Z</time></trkpt><trkpt lat="44.64481958251101" lon="7.380735228526483"><ele>374.0</ele><time>2026-05-01T14:57:54.999Z</time></trkpt><trkpt lat="44.6449920670241" lon="7.380837488964583"><ele>374.0</ele><time>2026-05-01T14:57:55.999Z</time></trkpt><trkpt lat="44.645155956124114" lon="7.3809313697112975"><ele>374.0</ele><time>2026-05-01T14:57:56.999Z</time></trkpt><trkpt lat="44.64531443901041" lon="7.381017507348476"><ele>374.0</ele><time>2026-05-01T14:57:57.999Z</time></trkpt><trkpt lat="44.64546718141879" lon="7.381101615522969"><ele>373.6666666666667</ele><time>2026-05-01T14:57:58.999Z</time></trkpt><trkpt lat="44.6456138942407" lon="7.381182367279396"><ele>373.3333333333333</ele><time>2026-05-01T14:57:59.999Z</time></trkpt><trkpt lat="44.64575746714264" lon="7.381262468215024"><ele>373.0</ele><time>2026-05-01T14:58:00.999Z</time></trkpt><trkpt lat="44.64589955539964" lon="7.381343163520146"><ele>372.3333333333333</ele><time>2026-05-01T14:58:01.999Z</time></trkpt><trkpt lat="44.64604259440693" lon="7.381425822028899"><ele>371.6666666666667</ele><time>2026-05-01T14:58:02.999Z</time></trkpt><trkpt lat="44.64619101832292" lon="7.381512940341204"><ele>371.0</ele><time>2026-05-01T14:58:03.999Z</time></trkpt><trkpt lat="44.646335231812465" lon="7.381588835854552"><ele>371.0</ele><time>2026-05-01T14:58:04.999Z</time></trkpt><trkpt lat="44.646480483421996" lon="7.38166850761806"><ele>371.0</ele><time>2026-05-01T14:58:05.999Z</time></trkpt><trkpt lat="44.64663202539857" lon="7.381761198683962"><ele>371.0</ele><time>2026-05-01T14:58:06.999Z</time></trkpt><trkpt lat="44.646786009010924" lon="7.381850930673842"><ele>371.0</ele><time>2026-05-01T14:58:07.999Z</time></trkpt><trkpt lat="44.64694032353999" lon="7.381938904064925"><ele>371.0</ele><time>2026-05-01T14:58:08.999Z</time></trkpt><trkpt lat="44.64709098812085" lon="7.382029174595319"><ele>371.0</ele><time>2026-05-01T14:58:09.999Z</time></trkpt><trkpt lat="44.64724034062611" lon="7.3821194024322425"><ele>371.0</ele><time>2026-05-01T14:58:10.999Z</time></trkpt><trkpt lat="44.64739475263614" lon="7.382208140698454"><ele>371.0</ele><time>2026-05-01T14:58:11.999Z</time></trkpt><trkpt lat="44.64754976459811" lon="7.382293705822187"><ele>371.0</ele><time>2026-05-01T14:58:12.999Z</time></trkpt><trkpt lat="44.647703701880104" lon="7.382381035246235"><ele>370.6666666666667</ele><time>2026-05-01T14:58:13.999Z</time></trkpt><trkpt lat="44.647857882658265" lon="7.382465786697901"><ele>370.3333333333333</ele><time>2026-05-01T14:58:14.999Z</time></trkpt><trkpt lat="44.6480098201826" lon="7.38255307043529"><ele>370.0</ele><time>2026-05-01T14:58:15.999Z</time></trkpt><trkpt lat="44.64815916231013" lon="7.38263816840425"><ele>370.0</ele><time>2026-05-01T14:58:17Z</time></trkpt><trkpt lat="44.648312375410164" lon="7.3827226104120784"><ele>370.0</ele><time>2026-05-01T14:58:18Z</time></trkpt><trkpt lat="44.648460061157486" lon="7.382803231704976"><ele>370.0</ele><time>2026-05-01T14:58:19Z</time></trkpt><trkpt lat="44.6486124456706" lon="7.382884190656998"><ele>370.0</ele><time>2026-05-01T14:58:20Z</time></trkpt><trkpt lat="44.64877081629721" lon="7.3829702615297785"><ele>370.0</ele><time>2026-05-01T14:58:21Z</time></trkpt><trkpt lat="44.648927914541375" lon="7.383055868338492"><ele>370.0</ele><time>2026-05-01T14:58:22Z</time></trkpt><trkpt lat="44.649084230334694" lon="7.3831358033392185"><ele>368.66666666666663</ele><time>2026-05-01T14:58:23Z</time></trkpt><trkpt lat="44.64923681620816" lon="7.38321430714783"><ele>367.3333333333333</ele><time>2026-05-01T14:58:24Z</time></trkpt><trkpt lat="44.64939111783112" lon="7.383297484866665"><ele>366.0</ele><time>2026-05-01T14:58:25Z</time></trkpt><trkpt lat="44.649547125358716" lon="7.383380672962952"><ele>365.3333333333333</ele><time>2026-05-01T14:58:26Z</time></trkpt><trkpt lat="44.64970559784503" lon="7.383465911026979"><ele>364.66666666666663</ele><time>2026-05-01T14:58:27Z</time></trkpt><trkpt lat="44.64986434050212" lon="7.383549550023424"><ele>364.0</ele><time>2026-05-01T14:58:28Z</time></trkpt><trkpt lat="44.65001767733485" lon="7.383633024478326"><ele>364.0</ele><time>2026-05-01T14:58:29Z</time></trkpt><trkpt lat="44.650161748790126" lon="7.383710965697609"><ele>364.0</ele><time>2026-05-01T14:58:30Z</time></trkpt><trkpt lat="44.65030289091693" lon="7.383788146338275"><ele>364.0</ele><time>2026-05-01T14:58:31Z</time></trkpt><trkpt lat="44.65044277074129" lon="7.383862404620656"><ele>363.0</ele><time>2026-05-01T14:58:32Z</time></trkpt><trkpt lat="44.650585903226585" lon="7.383934858625569"><ele>362.0</ele><time>2026-05-01T14:58:33Z</time></trkpt><trkpt lat="44.65072771545806" lon="7.384011380734403"><ele>361.0</ele><time>2026-05-01T14:58:34Z</time></trkpt><trkpt lat="44.65086698253479" lon="7.384087800469654"><ele>361.0</ele><time>2026-05-01T14:58:35Z</time></trkpt><trkpt lat="44.651007797784615" lon="7.384161076713929"><ele>361.0</ele><time>2026-05-01T14:58:36Z</time></trkpt><trkpt lat="44.651150647617094" lon="7.384237368581381"><ele>361.0</ele><time>2026-05-01T14:58:37Z</time></trkpt><trkpt lat="44.65129077060035" lon="7.384311681738422"><ele>361.0</ele><time>2026-05-01T14:58:38Z</time></trkpt><trkpt lat="44.65142758860338" lon="7.384387311542459"><ele>361.0</ele><time>2026-05-01T14:58:39Z</time></trkpt><trkpt lat="44.651563428134416" lon="7.384459167597703"><ele>361.0</ele><time>2026-05-01T14:58:40Z</time></trkpt><trkpt lat="44.65169500179881" lon="7.3845327927106785"><ele>361.0</ele><time>2026-05-01T14:58:41Z</time></trkpt><trkpt lat="44.65183026709252" lon="7.384601522041708"><ele>361.25</ele><time>2026-05-01T14:58:42Z</time></trkpt><trkpt lat="44.651962048160506" lon="7.38467184651157"><ele>361.5</ele><time>2026-05-01T14:58:43Z</time></trkpt><trkpt lat="44.65208812282396" lon="7.3847401591091355"><ele>361.75</ele><time>2026-05-01T14:58:44Z</time></trkpt><trkpt lat="44.65220951463783" lon="7.384805499731126"><ele>362.0</ele><time>2026-05-01T14:58:45Z</time></trkpt><trkpt lat="44.65232383102788" lon="7.384868288231107"><ele>362.0</ele><time>2026-05-01T14:58:46Z</time></trkpt><trkpt lat="44.65243253885146" lon="7.384926853478515"><ele>362.0</ele><time>2026-05-01T14:58:47Z</time></trkpt><trkpt lat="44.652534421685154" lon="7.384981272875717"><ele>362.0</ele><time>2026-05-01T14:58:47.999Z</time></trkpt><trkpt lat="44.65263541987425" lon="7.385036355201643"><ele>362.0</ele><time>2026-05-01T14:58:48.999Z</time></trkpt><trkpt lat="44.65273318281549" lon="7.385089868411897"><ele>362.0</ele><time>2026-05-01T14:58:49.999Z</time></trkpt><trkpt lat="44.65283217200315" lon="7.38514503553211"><ele>361.40000000000003</ele><time>2026-05-01T14:58:50.999Z</time></trkpt><trkpt lat="44.65293258915377" lon="7.38519856837031"><ele>360.8</ele><time>2026-05-01T14:58:51.999Z</time></trkpt><trkpt lat="44.65303573357029" lon="7.385255445877977"><ele>360.2</ele><time>2026-05-01T14:58:52.999Z</time></trkpt><trkpt lat="44.65314086219124" lon="7.385314173471676"><ele>359.6</ele><time>2026-05-01T14:58:53.999Z</time></trkpt><trkpt lat="44.65324805442935" lon="7.385371106598856"><ele>359.0</ele><time>2026-05-01T14:58:54.999Z</time></trkpt><trkpt lat="44.65334989613884" lon="7.385426843879836"><ele>359.0</ele><time>2026-05-01T14:58:55.999Z</time></trkpt><trkpt lat="44.653450869074504" lon="7.385488576885262"><ele>359.0</ele><time>2026-05-01T14:58:56.999Z</time></trkpt><trkpt lat="44.65355388574441" lon="7.385547186323301"><ele>359.0</ele><time>2026-05-01T14:58:57.999Z</time></trkpt><trkpt lat="44.653657018600555" lon="7.385608753610002"><ele>359.0</ele><time>2026-05-01T14:58:58.999Z</time></trkpt><trkpt lat="44.653749486704044" lon="7.385671390466172"><ele>359.0</ele><time>2026-05-01T14:58:59.999Z</time></trkpt><trkpt lat="44.653829925808154" lon="7.3857523757923635"><ele>358.79999999999995</ele><time>2026-05-01T14:59:00.999Z</time></trkpt><trkpt lat="44.65389664211533" lon="7.385854597695405"><ele>358.59999999999997</ele><time>2026-05-01T14:59:01.999Z</time></trkpt><trkpt lat="44.65394405552127" lon="7.385967233750672"><ele>358.4</ele><time>2026-05-01T14:59:02.999Z</time></trkpt><trkpt lat="44.653962721515086" lon="7.386095154224689"><ele>358.2</ele><time>2026-05-01T14:59:03.999Z</time></trkpt><trkpt lat="44.653956844206526" lon="7.386233940556387"><ele>358.0</ele><time>2026-05-01T14:59:04.999Z</time></trkpt><trkpt lat="44.65393764691645" lon="7.38638037730266"><ele>357.75</ele><time>2026-05-01T14:59:05.999Z</time></trkpt><trkpt lat="44.65388447139821" lon="7.38651795738622"><ele>357.5</ele><time>2026-05-01T14:59:06.999Z</time></trkpt><trkpt lat="44.653826066751385" lon="7.386650632540954"><ele>357.25</ele><time>2026-05-01T14:59:07.999Z</time></trkpt><trkpt lat="44.65377054015596" lon="7.386789849727236"><ele>357.0</ele><time>2026-05-01T14:59:08.999Z</time></trkpt><trkpt lat="44.65371871287045" lon="7.3869341075043"><ele>357.0</ele><time>2026-05-01T14:59:09.999Z</time></trkpt><trkpt lat="44.65366644714129" lon="7.387078543649484"><ele>357.0</ele><time>2026-05-01T14:59:10.999Z</time></trkpt><trkpt lat="44.65361344487788" lon="7.387220771109228"><ele>357.0</ele><time>2026-05-01T14:59:11.999Z</time></trkpt><trkpt lat="44.6535625199983" lon="7.387350872163469"><ele>357.0</ele><time>2026-05-01T14:59:12.999Z</time></trkpt><trkpt lat="44.653514942391766" lon="7.387476093387759"><ele>357.0</ele><time>2026-05-01T14:59:13.999Z</time></trkpt><trkpt lat="44.65348416991722" lon="7.38760852883488"><ele>357.0</ele><time>2026-05-01T14:59:14.999Z</time></trkpt><trkpt lat="44.65347596078199" lon="7.387751640919511"><ele>357.0</ele><time>2026-05-01T14:59:15.999Z</time></trkpt><trkpt lat="44.653489249103906" lon="7.387893791847329"><ele>357.0</ele><time>2026-05-01T14:59:16.999Z</time></trkpt><trkpt lat="44.6535683074497" lon="7.388031049445215"><ele>357.0</ele><time>2026-05-01T14:59:17.999Z</time></trkpt><trkpt lat="44.653645723036476" lon="7.388162412276859"><ele>356.75</ele><time>2026-05-01T14:59:18.999Z</time></trkpt><trkpt lat="44.65371601368543" lon="7.388280326304363"><ele>356.5</ele><time>2026-05-01T14:59:19.999Z</time></trkpt><trkpt lat="44.653785102599635" lon="7.388405450538553"><ele>356.25</ele><time>2026-05-01T14:59:20.999Z</time></trkpt><trkpt lat="44.65385434347437" lon="7.3885518062562054"><ele>356.0</ele><time>2026-05-01T14:59:21.999Z</time></trkpt><trkpt lat="44.65392321215303" lon="7.388689801177995"><ele>356.0</ele><time>2026-05-01T14:59:22.999Z</time></trkpt><trkpt lat="44.6539843284247" lon="7.3888232965888925"><ele>356.0</ele><time>2026-05-01T14:59:23.999Z</time></trkpt><trkpt lat="44.654047393288344" lon="7.388944988340246"><ele>356.0</ele><time>2026-05-01T14:59:24.999Z</time></trkpt><trkpt lat="44.654110962484616" lon="7.389061737383027"><ele>356.0</ele><time>2026-05-01T14:59:25.999Z</time></trkpt><trkpt lat="44.65417607048129" lon="7.389187427954541"><ele>356.0</ele><time>2026-05-01T14:59:26.999Z</time></trkpt><trkpt lat="44.654239438120065" lon="7.38931744826522"><ele>355.8</ele><time>2026-05-01T14:59:27.999Z</time></trkpt><trkpt lat="44.65430305201005" lon="7.389435951636048"><ele>355.6</ele><time>2026-05-01T14:59:28.999Z</time></trkpt><trkpt lat="44.654365606966785" lon="7.389546522861783"><ele>355.4</ele><time>2026-05-01T14:59:29.999Z</time></trkpt><trkpt lat="44.65442387024685" lon="7.389661840691439"><ele>355.2</ele><time>2026-05-01T14:59:30.999Z</time></trkpt><trkpt lat="44.654484366982295" lon="7.3897838781409275"><ele>355.0</ele><time>2026-05-01T14:59:31.999Z</time></trkpt><trkpt lat="44.65454583185943" lon="7.389902527281048"><ele>354.4</ele><time>2026-05-01T14:59:32.999Z</time></trkpt><trkpt lat="44.654608008707434" lon="7.390030056760971"><ele>353.8</ele><time>2026-05-01T14:59:33.999Z</time></trkpt><trkpt lat="44.65467682893686" lon="7.390149986752514"><ele>353.20000000000005</ele><time>2026-05-01T14:59:34.999Z</time></trkpt><trkpt lat="44.65474047440139" lon="7.390275369590779"><ele>352.6</ele><time>2026-05-01T14:59:35.999Z</time></trkpt><trkpt lat="44.654800978418066" lon="7.390391938110123"><ele>352.0</ele><time>2026-05-01T14:59:36.999Z</time></trkpt><trkpt lat="44.654860803746075" lon="7.390507629548804"><ele>352.0</ele><time>2026-05-01T14:59:37.999Z</time></trkpt><trkpt lat="44.65492032454909" lon="7.390621686452123"><ele>352.0</ele><time>2026-05-01T14:59:38.999Z</time></trkpt><trkpt lat="44.65498692023587" lon="7.390744535980477"><ele>352.0</ele><time>2026-05-01T14:59:39.999Z</time></trkpt><trkpt lat="44.65506548676452" lon="7.390875670343693"><ele>352.0</ele><time>2026-05-01T14:59:40.999Z</time></trkpt><trkpt lat="44.65515189812849" lon="7.391006679647015"><ele>352.0</ele><time>2026-05-01T14:59:41.999Z</time></trkpt><trkpt lat="44.65524515357612" lon="7.3911317491796025"><ele>352.0</ele><time>2026-05-01T14:59:42.999Z</time></trkpt><trkpt lat="44.65534053511382" lon="7.391246567807672"><ele>352.0</ele><time>2026-05-01T14:59:43.999Z</time></trkpt><trkpt lat="44.65543457117733" lon="7.3913546216556325"><ele>352.0</ele><time>2026-05-01T14:59:44.999Z</time></trkpt><trkpt lat="44.655525370659944" lon="7.391461549898517"><ele>351.25</ele><time>2026-05-01T14:59:45.999Z</time></trkpt><trkpt lat="44.65561466346554" lon="7.391563688548874"><ele>350.5</ele><time>2026-05-01T14:59:46.999Z</time></trkpt><trkpt lat="44.65569802224158" lon="7.391667348979686"><ele>349.75</ele><time>2026-05-01T14:59:47.999Z</time></trkpt><trkpt lat="44.6557819962893" lon="7.391768606805956"><ele>349.0</ele><time>2026-05-01T14:59:48.999Z</time></trkpt><trkpt lat="44.65586910960612" lon="7.3918700260005625"><ele>349.0</ele><time>2026-05-01T14:59:49.999Z</time></trkpt><trkpt lat="44.65595824125607" lon="7.391965356512257"><ele>349.0</ele><time>2026-05-01T14:59:50.999Z</time></trkpt><trkpt lat="44.6560452518193" lon="7.39206709440261"><ele>349.0</ele><time>2026-05-01T14:59:51.999Z</time></trkpt><trkpt lat="44.65612849733809" lon="7.392164342835999"><ele>349.0</ele><time>2026-05-01T14:59:52.999Z</time></trkpt><trkpt lat="44.656208571003454" lon="7.392258349938833"><ele>349.0</ele><time>2026-05-01T14:59:53.999Z</time></trkpt><trkpt lat="44.65628682952242" lon="7.392352406133188"><ele>348.6</ele><time>2026-05-01T14:59:54.999Z</time></trkpt><trkpt lat="44.65635537051442" lon="7.392439715253806"><ele>348.2</ele><time>2026-05-01T14:59:55.999Z</time></trkpt><trkpt lat="44.65641943165673" lon="7.392526349160349"><ele>347.8</ele><time>2026-05-01T14:59:56.999Z</time></trkpt><trkpt lat="44.65648094332106" lon="7.392602581073001"><ele>347.40000000000003</ele><time>2026-05-01T14:59:57.999Z</time></trkpt><trkpt lat="44.656526210587195" lon="7.392673411546594"><ele>347.0</ele><time>2026-05-01T14:59:58.999Z</time></trkpt><trkpt lat="44.65659545768" lon="7.392810291589736"><ele>347.0</ele><time>2026-05-01T15:00:00.999Z</time></trkpt><trkpt lat="44.65663367089978" lon="7.392891358077501"><ele>347.0</ele><time>2026-05-01T15:00:01.999Z</time></trkpt><trkpt lat="44.65667676004814" lon="7.392977592083026"><ele>347.0</ele><time>2026-05-01T15:00:02.999Z</time></trkpt><trkpt lat="44.656716571020404" lon="7.393075617153312"><ele>347.0</ele><time>2026-05-01T15:00:03.999Z</time></trkpt><trkpt lat="44.6567539712427" lon="7.393173168977934"><ele>347.0</ele><time>2026-05-01T15:00:04.999Z</time></trkpt><trkpt lat="44.65678567774157" lon="7.393277426047178"><ele>347.0</ele><time>2026-05-01T15:00:05.999Z</time></trkpt><trkpt lat="44.65681488308574" lon="7.393383833294902"><ele>346.83333333333337</ele><time>2026-05-01T15:00:06.999Z</time></trkpt><trkpt lat="44.65684299170782" lon="7.39350557917091"><ele>346.6666666666667</ele><time>2026-05-01T15:00:07.999Z</time></trkpt><trkpt lat="44.65687026061207" lon="7.393616227949629"><ele>346.5</ele><time>2026-05-01T15:00:08.999Z</time></trkpt><trkpt lat="44.65690082979264" lon="7.393722994765549"><ele>346.3333333333333</ele><time>2026-05-01T15:00:09.999Z</time></trkpt><trkpt lat="44.656926003767616" lon="7.393827896226854"><ele>346.16666666666663</ele><time>2026-05-01T15:00:10.999Z</time></trkpt><trkpt lat="44.656948526783886" lon="7.393932948343523"><ele>346.0</ele><time>2026-05-01T15:00:11.999Z</time></trkpt><trkpt lat="44.65696744079935" lon="7.394035259227223"><ele>345.57142857142856</ele><time>2026-05-01T15:00:12.999Z</time></trkpt><trkpt lat="44.65698511868422" lon="7.39413150011413"><ele>345.14285714285717</ele><time>2026-05-01T15:00:13.999Z</time></trkpt><trkpt lat="44.6570071203015" lon="7.394237320210184"><ele>344.7142857142857</ele><time>2026-05-01T15:00:14.999Z</time></trkpt><trkpt lat="44.65703149589546" lon="7.39433959501262"><ele>344.2857142857143</ele><time>2026-05-01T15:00:15.999Z</time></trkpt><trkpt lat="44.6570527596378" lon="7.394423815807992"><ele>343.8571428571429</ele><time>2026-05-01T15:00:16.999Z</time></trkpt><trkpt lat="44.65705380277105" lon="7.394516969812921"><ele>343.42857142857144</ele><time>2026-05-01T15:00:18.999Z</time></trkpt><trkpt lat="44.657060656902566" lon="7.394607415922154"><ele>343.0</ele><time>2026-05-01T15:04:42Z</time></trkpt><trkpt lat="44.65706756908458" lon="7.394708738620208"><ele>342.0</ele><time>2026-05-01T15:04:47Z</time></trkpt></trkseg></trk></gpx>